     2              OBSERVATION DATA    GPS                 RINEX VERSION / TYPE
teqc 1997Sep10 19971010 23:19:38UTC                         PGM / RUN BY / DATE
                                                            COMMENT
Original Marker Name: OCO6                                  COMMENT
Campaign Name: NGS Salton Trough 1991                       COMMENT
4-Character Station Name: OCO6                              COMMENT
6-Character Antenna Code: TRMSST                            COMMENT
Vertical Measurement Point: BGP                             COMMENT
Vertical Offset to Rinex Ref. Point: 0.0597                 COMMENT
Radial Measurement Point: NGP                               COMMENT
Radial Offset to Rinex Ref. Point: 0.2334                   COMMENT
Antenna Height from Field Measurement: 1.6140 m             COMMENT
Original XYZ: -2335602.4395 -4832240.5581 3434390.3142      COMMENT
New XYZ position is based on association with SCEC monument COMMENT
E1C8V7N3+0011. Position of that monument is believed to be  COMMENT
valid to within 1 m horizontally; vertical accuracy         COMMENT
should be no worse than 3-times this value.                 COMMENT
                                                            COMMENT
Revised Rinex header created by UCSD GPS archive for        COMMENT
GSAC on 10-Apr-1999 (1999:100) 05:20:39 GMT                 COMMENT
For assistance contact dagnew@ucsd.edu or hjohnson@ucsd.edu COMMENT
                                                            COMMENT
OCOTILLO NCMN 1982                                          MARKER NAME
unknown NATIONAL GEODETIC SURVEY                            OBSERVER / AGENCY
482 TRIMBLE 4000 SST NP 4.30 / SP 4.20                      REC # / TYPE / VERS
20 TR 4000SST L1/L2 GEO                                     ANT # / TYPE
 -2335602.0000 -4832244.0000  3434393.0000                  APPROX POSITION XYZ
        1.5373        0.0000        0.0000                  ANTENNA: DELTA H/E/N
     1     1     0                                          WAVELENGTH FACT L1/2
     3    C1    L1    L2                                    # / TYPES OF OBSERV
     0                                                      INTERVAL
  1991     3    21    22     8   15.000000                  TIME OF FIRST OBS
  1991     3    22     3    37   60.000000                  TIME OF LAST OBS
     0                                                      # OF SATELLITES
                                                            END OF HEADER
 91  3 21 22  8 15.0000000  0  4G18G11G19G 2
  20458116.344       22731.009 8
  23431681.7344         -0.06156
  20880024.531          -0.48916
  23794211.242          -0.17015
 91  3 21 22  8 30.0000000  0  4G18G11G19G 2
  20459501.602       30005.793 8        -0.44133
  23424557.0234     -37443.66546
  20877728.984      -12078.424 6
  23784014.9924     -53577.45145
 91  3 21 22  8 45.0000000  0  4G18G11G19G 2
  20460908.875       37399.058 8      5760.52823
  23417450.3054     -74785.00546        -0.12471
  20875434.758      -24115.473 6        -0.44134
  23773829.3674    -107104.87645        -0.13771
 91  3 21 22  9  0.0000000  0  4G18G11G19G 2
  20462337.258       44910.381 8     11613.48823
  23410362.9224    -112023.92146    -29017.33761
  20873156.398      -36112.085 6     -9348.43124
  23763653.5394    -160582.51646    -41670.79461
 91  3 21 22  9 15.0000000  0  4G18G11G19G 2
  20463790.289       52541.557 8     17559.84023
  23403297.0554    -149158.59646    -57953.32061
  20870876.906      -48066.701 6    -18663.69924
  23753487.2034    -214008.56445    -83301.24761
 91  3 21 22  9 30.0000000  0  4G18G11G19G 2
  20465265.898       60298.673 8     23604.33023
  23396250.4144    -186182.72146    -86803.17061
  20868613.781      -59973.231 6    -27941.49224
  23743329.7814    -267376.87445   -124886.71761
 91  3 21 22  9 45.0000000  0  4G18G11G19G 2
  20466767.039       68187.134 8     29751.16423
  23389228.0234    -223090.52946   -115562.37461
  20866356.281      -71826.398 6    -37177.70724
  23733184.8674    -320681.85945   -166422.82261
 91  3 21 22 10  0.0000000  0  4G18G11G19G 2
  20468292.500       76206.186 8     35999.75423
  23382227.219     -259882.173 6   -144231.05721
  20864113.039      -83626.943 6    -46372.91724
  23723053.2814    -373924.08345   -207910.05161
 91  3 21 22 10 15.0000000  0  4G18G11G19G 2
  20469842.648       84348.467 8     42344.36923
  23375246.8914    -296564.74146   -172814.73761
  20861874.000      -95382.251 6    -55532.88224
  23712932.7814    -427110.98045   -249354.14261
 91  3 21 22 10 30.0000000  0  4G18G11G19G 2
  20471415.703       92616.264 8     48786.78823
  23368287.0234    -333135.36646   -201311.21061
  20859649.992     -107089.721 6    -64655.56624
  23702822.805     -480239.805 5   -290752.99121
 91  3 21 22 10 45.0000000  0  4G18G11G19G 2
  20473013.008      101011.580 8     55328.57023
  23361350.8674    -369591.86746   -229718.73861
  20857428.031     -118747.306 7    -73739.38324
  23692723.2894    -533308.42845   -332104.94461
 91  3 21 22 11  0.0000000  0  4G18G11G19G 2
  20474635.555      109535.111 8     61970.26323
  23354435.2424    -405933.19546   -258036.53361
  20855221.609     -130354.394 6    -82783.85224
  23682637.1094    -586316.02346   -373409.32561
 91  3 21 22 11 15.0000000  0  4G18G11G19G 2
  20476281.477      118183.846 8     68709.51423
  23347540.094     -442161.761 6   -286266.45721
  20853020.188     -141913.758 7    -91791.13424
  23672560.4144    -639265.25645   -414668.23361
 91  3 21 22 11 30.0000000  0  4G18G11G19G 2
  20477950.516      126958.231 8     75546.67723
  23340669.6174    -478276.69946   -314407.84361
  20850829.914     -153425.031 6   -100760.93924
  23662495.461     -692155.398 6   -455881.09721
 91  3 21 22 11 45.0000000  0  4G18G11G19G 2
  20479644.844      135857.892 8     82481.45423
  23333816.359     -514278.569 6   -342461.11121
  20848646.758     -164889.089 7   -109693.95924
  23652440.867     -744987.190 5   -497048.49521
 91  3 21 22 12  0.0000000  0  4G18G11G19G 2
  20481359.758      144872.062 8     89505.46623
  23326985.2114    -550177.67446   -370434.32561
  20846475.852     -176316.729 6   -118598.59924
  23642396.2584    -797770.99845   -538178.49261
 91  3 21 22 12 15.0000000  0  4G18G11G19G 2
  20483100.070      154016.224 8     96630.76423
  23320176.688     -585957.684 6   -398314.72321
  20844307.578     -187691.824 6   -127462.29524
  23632365.4694    -850490.86746   -579258.69861
 91  3 21 22 12 30.0000000  0  4G18G11G19G 2
  20484863.086      163282.467 8    103851.19223
  23313388.7584    -621626.54346   -426108.51361
  20842152.750     -199022.663 6   -136291.50224
  23622343.4384    -903154.87846   -620295.36161
 91  3 21 22 12 45.0000000  0  4G18G11G19G 2
  20486652.156      172684.815 8    111177.67323
  23306627.352     -657169.821 6   -453804.43921
  20840005.516     -210295.144 6   -145075.23224
  23612335.289     -955748.812 6   -661277.41421
 91  3 21 22 13  0.0000000  0  4G18G11G19G 2
  20488465.273      182209.385 8    118599.39123
  23299883.430     -692600.955 6   -481412.98621
  20837872.523     -221523.183 6   -153824.33624
  23602337.922    -1008286.512 6   -702215.66521
 91  3 21 22 13 15.0000000  0  4G18G11G19G 2
  20490301.5394     191860.34448    126119.59263
  23293159.9454    -727915.29146   -508930.52461
  20835743.273     -232702.392 6   -162535.39524
  23592351.4694   -1060763.29946   -743106.43761
 91  3 21 22 13 30.0000000  0  4G18G11G19G 2
  20492162.625      201637.760 8    133738.33323
  23286463.8364    -763112.33046   -536356.66461
  20833626.016     -243832.562 6   -171208.23624
  23582378.289    -1113178.736 6   -783949.41121
 91  3 21 22 13 45.0000000  0  4G18G11G19G 2
  20494046.914      211542.569 8    141456.34423
  23279788.5634    -798190.98246   -563690.56061
  20831516.250     -254912.975 6   -179842.30824
  23572413.188    -1165532.278 6   -824744.16221
 91  3 21 22 14  0.0000000  0  4G18G11G19G 2
  20495956.609      221573.532 8    149272.64723
  23273136.5474    -833152.28846   -590933.01061
  20829422.266     -265944.971 6   -188438.65324
  23562462.5634   -1217824.88146   -865491.41061
 91  3 21 22 14 15.0000000  0  4G18G11G19G 2
  20497890.008      231734.518 8    157190.27923
  23266505.7344    -867991.93846   -618080.67061
  20827326.641     -276924.744 7   -196994.30224
  23552523.4694   -1270052.54246   -906188.07361
 91  3 21 22 14 30.0000000  0  4G18G11G19G 2
  20499846.641      242020.026 8    165204.93223
  23259900.242     -902714.980 6   -645137.46921
  20825249.203     -287857.620 6   -205513.41024
  23542596.9224   -1322220.34146   -946838.10061
 91  3 21 22 14 45.0000000  0  4G18G11G19G 2
  20501828.656      252431.577 8    173317.80423
  23253313.023     -937319.383 6   -672101.83221
  20823175.328     -298741.864 7   -213994.61924
  23532680.969    -1374326.616 6   -987440.17221
 91  3 21 22 15  0.0000000  0  4G18G11G19G 2
  20503832.367      262966.603 8    181526.89123
  23246750.852     -971807.389 6   -698975.49421
  20821117.852     -309579.948 6   -222439.86324
  23522776.3134   -1426373.54746  -1027996.00761
 91  3 21 22 15 15.0000000  0  4G18G11G19G 2
  20505861.2734     273627.93548    189834.39563
  23240211.234    -1006175.897 6   -725756.03921
  20819061.102     -320369.199 7   -230847.05324
  23512882.8834   -1478358.45146  -1068503.52261
 91  3 21 22 15 30.0000000  0  4G18G11G19G 2
  20507914.438      284415.657 8    198240.38423
  23233692.930    -1040424.321 6   -752443.00821
  20817019.227     -331109.093 6   -239215.78224
  23503002.5314   -1530280.87046  -1108962.32661
 91  3 21 22 15 44.9990000  0  4G18G11G19G 2
  20509991.972      295329.387 8    206744.56423
  23227199.448    -1074549.910 6   -779034.26021
  20814982.151     -341798.873 6   -247545.45624
  23493133.9724   -1582137.03746  -1149369.52961
 91  3 21 22 15 59.9990000  0  4G18G11G19G 2
  20512091.503      306368.175 8    215346.18823
  23220726.558    -1108558.994 6   -805534.73321
  20812959.558     -352442.309 6   -255839.01724
  23483278.7534   -1633935.78346  -1189731.96961
 91  3 21 22 16 14.9990000  0  4G18G11G19G 2
  20514216.269      317531.234 8    224044.64823
  23214277.151    -1142449.020 6   -831942.43721
  20810940.183     -363038.762 6   -264095.97324
  23473433.4174   -1685673.72646  -1230047.04161
 91  3 21 22 16 29.9990000  0  4G18G11G19G 2
  20516363.972      328817.435 8    232839.06323
  23207851.245    -1176220.683 6   -858257.91221
  20808938.511     -373589.374 6   -272317.20624
  23463600.026    -1737351.726 6  -1270315.39921
 91  3 21 22 16 44.9990000  0  4G18G11G19G 2
  20518536.690      340235.050 8    241735.88023
  23201450.269    -1209865.451 6   -884474.51321
  20806935.019     -384085.806 6   -280496.21824
  23453778.386    -1788961.385 6  -1310530.51621
 91  3 21 22 16 59.9990000  0  4G18G11G19G 2
  20520733.9174     351779.33548    250731.39263
  23195069.261    -1243387.831 6   -910595.73521
  20804949.339     -394532.912 6   -288636.79324
  23443967.706    -1840507.360 6  -1350695.99121
 91  3 21 22 17 14.9990000  0  4G18G11G19G 2
  20522954.1364     363448.31548    259824.07363
  23188713.081    -1276789.358 6   -936622.79121
  20802968.511     -404932.444 6   -296740.30324
  23434171.8394   -1891991.49946  -1390813.31161
 91  3 21 22 17 29.9990000  0  4G18G11G19G 2
  20525198.9094     375242.40348    269014.23863
  23182380.073    -1310069.396 6   -962555.17421
  20801003.159     -415284.097 6   -304806.50024
  23424385.9404   -1943413.26546  -1430882.00561
 91  3 21 22 17 44.9990000  0  4G18G11G19G 2
  20527466.2454     387161.03548    278301.45063
  23176070.347    -1343228.050 6   -988392.97721
  20799038.136     -425588.112 6   -312835.58424
  23414612.276    -1994772.920 6  -1470902.31921
 91  3 21 22 17 59.9990000  0  4G18G11G19G 2
  20529758.9094     399205.77748    287686.93663
  23169784.308    -1376263.166 6  -1014134.51221
  20797086.972     -435842.896 6   -320826.30224
  23404849.9334   -2046068.63946  -1510872.79161
 91  3 21 22 18 14.9990000  0  4G18G11G19G 2
  20532073.9404     411373.05248    297167.89863
  23163522.753    -1409177.971 6  -1039782.30121
  20795143.175     -446051.924 6   -328781.36724
  23395099.6284   -2097303.57246  -1550795.90761
 91  3 21 22 18 29.9990000  0  4G18G11G19G 2
  20534414.1204     423669.50948    306749.51863
  23157281.690    -1441965.602 6  -1065330.99021
  20793212.433     -456208.624 6   -336695.65624
  23385363.503    -2148471.235 6  -1590666.62121
 91  3 21 22 18 44.9990000  0  4G18G11G19G 2
  20536777.6204     436087.09848    316425.53163
  23151064.362    -1474633.755 6  -1090786.58221
  20791285.987     -466321.082 6   -344575.47224
  23375636.925    -2199579.407 6  -1630490.97421
 91  3 21 22 18 59.9990000  0  4G18G11G19G 2
  20539160.8784     448619.99748    326191.39463
  23144870.667    -1507187.678 6  -1116153.17721
  20789372.050     -476394.724 6   -352425.04723
  23365923.026    -2250633.687 6  -1670273.32621
 91  3 21 22 19 14.9990000  0  4G18G11G19G 2
  20541571.2844     461278.33448    336054.99963
  23138698.5114   -1539617.07046  -1141422.74161
  20787461.011     -486419.636 6   -360236.64724
  23356219.4724   -2301623.74246  -1710005.64561
 91  3 21 22 19 29.9990000  0  4G18G11G19G 2
  20544004.6984     474061.34948    346015.75663
  23132551.5654   -1571922.25446  -1166595.52361
  20785564.901     -496396.705 6   -368010.96924
  23346528.7224   -2352550.06746  -1749688.29461
 91  3 21 22 19 44.9990000  0  4G18G11G19G 2
  20546459.8234     486969.51448    356074.03063
  23126427.9254   -1604102.56546  -1191670.99061
  20783673.534     -506325.228 6   -375747.46224
  23336850.4254   -2403412.30546  -1789321.01461
 91  3 21 22 19 59.9990000  0  4G18G11G19G 2
  20548940.8084     500005.02848    366231.53963
  23120327.0894   -1636155.40146  -1216647.13261
  20781797.245     -516202.916 6   -383444.34224
  23327184.026    -2454208.040 6  -1828901.91721
 91  3 21 22 20 14.9990000  0  4G18G11G19G 2
  20551446.3624     513175.51248    376494.21663
  23114254.3004   -1668072.67446  -1241517.64361
  20779924.933     -526022.262 7   -391095.76524
  23317531.495    -2504929.285 6  -1868424.75721
 91  3 21 22 20 29.9990000  0  4G18G11G19G 2
  20553976.5194     526471.90848    386855.01063
  23108204.589    -1699863.056 6  -1266289.28221
  20778069.105     -535792.193 6   -398708.68123
  23307890.714    -2555584.954 6  -1907896.52021
 91  3 21 22 20 44.9990000  0  4G18G11G19G 2
  20556530.0264     539893.39048    397313.27863
  23102180.2304   -1731526.91846  -1290962.33061
  20776216.597     -545513.290 7   -406283.54624
  23298265.0194   -2606175.61446  -1947317.60861
 91  3 21 22 20 59.9990000  0  4G18G11G19G 2
  20559107.9484     553438.02148    407867.49863
  23096176.7924   -1763065.97146  -1315538.11761
  20774380.198     -555187.515 6   -413821.88524
  23288648.1444   -2656703.09346  -1986689.48461
 91  3 21 22 21 14.9990000  0  4G18G11G19G 2
  20561709.3624     567105.31348    418517.30063
  23090199.394    -1794480.262 6  -1340016.68621
  20772543.105     -564815.193 7   -421323.95524
  23279045.8314   -2707167.63646  -2026012.31861
 91  3 21 22 21 29.9990000  0  4G18G11G19G 2
  20564333.3864     580897.73748    429264.61063
  23084247.6594   -1825767.08746  -1364395.94261
  20770723.776     -574393.996 6   -428787.94524
  23269455.667    -2757566.786 6  -2065284.17821
 91  3 21 22 21 44.9990000  0  4G18G11G19G 2
  20566982.1444     594815.80848    440109.82763
  23078315.9804   -1856925.47746  -1388675.12461
  20768907.0584    -583923.21447   -436213.29764
  23259877.386    -2807899.595 6  -2104504.36221
 91  3 21 22 21 59.9990000  0  4G18G11G19G 2
  20569654.8394     608857.16348    451051.10863
  23072410.2534   -1887957.46646  -1412855.80361
  20767105.753     -593405.132 6   -443601.79224
  23250310.901    -2858168.346 6  -2143674.62021
 91  3 21 22 22 14.9990000  0  4G18G11G19G 2
  20572348.5194     623014.74448    462082.95563
  23066529.4174   -1918869.73446  -1436943.18961
  20765305.042     -602846.949 6   -450959.03424
  23240755.9094   -2908380.06146  -2182800.44761
 91  3 21 22 22 29.9990000  0  4G18G11G19G 2
  20575067.3234     637296.82548    473211.82063
  23060671.2614   -1949653.42346  -1460930.38561
  20763520.964     -612239.875 6   -458278.18124
  23231214.605    -2958525.828 6  -2221874.88121
 91  3 21 22 22 44.9990000  0  4G18G11G19G 2
  20577810.1514     651713.92748    484445.89363
  23054839.9014   -1980297.60946  -1484808.87161
  20761743.3234    -621573.32247   -465550.98864
  23221684.8944   -3008594.94546  -2260889.58861
 91  3 21 22 22 59.9990000  0  4G18G11G19G 2
  20580577.1904     666252.65548    495774.73663
  23049031.2374   -2010815.50846  -1508588.96361
  20759978.784     -630860.872 6   -472788.02724
  23212168.956    -3058600.874 6  -2299855.05421
 91  3 21 22 23 14.9990000  0  4G18G11G19G 2
  20583367.0734     680917.20148    507201.62463
  23043249.5424   -2041202.58246  -1532267.11161
  20758217.612     -640098.220 7   -479985.94624
  23202665.7844   -3108539.28046  -2338767.90161
 91  3 21 22 23 29.9990000  0  4G18G11G19G 2
  20586181.1754     695706.77548    518725.93163
  23037492.5424   -2071459.15846  -1555843.57261
  20756471.651     -649285.945 6   -487145.19424
  23193175.175    -3158410.456 6  -2377628.35921
 91  3 21 22 23 44.9990000  0  4G18G11G19G 2
  20589019.5504     710621.53948    530347.79163
  23031758.5734   -2101584.97546  -1579318.14961
  20754730.2304    -658424.13547   -494265.85264
  23183698.675    -3208214.423 6  -2416436.46521
 91  3 21 22 23 59.9990000  0  4G18G11G19G 2
  20591881.6674     725663.14148    542068.48463
  23026051.2064   -2131577.87846  -1602689.15061
  20753003.9724    -667510.95046   -501346.47564
  23174233.831    -3257949.162 6  -2455190.61221
 91  3 21 22 24 14.9990000  0  4G18G11G19G 2
  20594768.6834     740830.71648    553887.34163
  23020368.065    -2161438.141 6  -1625956.79821
  20751280.8554    -676546.69747   -508387.30564
  23164784.636    -3307615.114 6  -2493891.16021
 91  3 21 22 24 29.9990000  0  4G18G11G19G 2
  20597677.9014     756122.43848    565802.93363
  23014713.105    -2191167.152 6  -1649122.17921
  20749574.4484    -685533.32546   -515389.85964
  23155344.823    -3357213.964 6  -2532539.41321
 91  3 21 22 24 44.9990000  0  4G18G11G19G 2
  20600613.1834     771544.08548    577819.76663
  23009080.808    -2220758.989 6  -1672180.67021
  20747872.7534    -694465.15747   -522349.71964
  23145921.3084   -3406739.79046  -2571130.78961
 91  3 21 22 24 59.9990000  0  4G18G11G19G 2
  20603570.7844     787085.89448    589930.23263
  23003473.5894   -2250223.31546  -1695139.79961
  20746182.6984    -703352.09646   -529274.59564
  23136508.487    -3456202.510 6  -2609672.96621
 91  3 21 22 25 14.9990000  0  4G18G11G19G 2
  20606552.2844     802752.39748    602137.86363
  22997892.167    -2279555.016 6  -1717995.59221
  20744498.9094    -712189.36446   -536160.77063
  23127107.6674   -3505597.12046  -2648162.08761
 91  3 21 22 25 29.9990000  0  4G18G11G19G 2
  20609558.8944     818547.11648    614445.40363
  22992333.386    -2308750.142 6  -1740744.96621
  20742829.8394    -720973.18446   -543005.29963
  23117722.222    -3554919.958 6  -2686595.27921
 91  3 21 22 25 44.9990000  0  4G18G11G19G 2
  20612587.1284     834464.64848    626848.64163
  22986806.5974   -2337813.40546  -1763391.57661
  20741165.1834    -729708.37246   -549811.93464
  23108347.4484   -3604175.86346  -2724976.31461
 91  3 21 22 25 59.9990000  0  4G18G11G19G 2
  20615639.3154     850504.93848    639347.53863
  22981301.401    -2366745.130 6  -1785935.69021
  20739514.0894    -738395.60046   -556581.18963
  23098988.151    -3653365.232 6  -2763305.49321
 91  3 21 22 26 14.9990000  0  4G18G11G19G 2
  20618715.0894     866672.96448    651945.96463
  22975820.9254   -2395539.78346  -1808372.99861
  20737869.0424    -747029.64247   -563309.00464
  23089641.073    -3702482.602 6  -2801578.58121
 91  3 21 22 26 29.9990000  0  4G18G11G19G 2
  20621816.1054     882963.17148    664639.60363
  22970366.940    -2424202.409 6  -1830707.43221
  20736239.2764    -755615.82346   -569999.52863
  23080306.6444   -3751533.06546  -2839799.53561
 91  3 21 22 26 44.9990000  0  4G18G11G19G 2
  20624940.5654     899379.00548    677431.12563
  22964937.472    -2452729.018 6  -1852935.87621
  20734610.1054    -764150.56646   -576649.96964
  23070987.565    -3800513.162 6  -2877965.65521
 91  3 21 22 26 59.9990000  0  4G18G11G19G 2
  20628086.8234     915919.92848    690320.11863
  22959534.745    -2481120.019 6  -1875058.65721
  20732999.1284    -772634.63946   -583260.93064
  23061679.8234   -3849423.53046  -2916077.44661
 91  3 21 22 27 14.9990000  0  4G18G11G19G 2
  20631258.5114     932584.88348    703305.76263
  22954157.901    -2509376.358 6  -1897076.50721
  20731391.2454    -781069.11247   -589833.23964
  23052385.0734   -3898265.06746  -2954135.59461
 91  3 21 22 27 29.9990000  0  4G18G11G19G 2
  20634452.6204     949375.29448    716389.16563
  22948807.292    -2537496.096 6  -1918987.90521
  20729798.4874    -789452.11146   -596365.43764
  23043104.2924   -3947035.95946  -2992138.71061
 91  3 21 22 27 44.9990000  0  4G18G11G19G 2
  20637671.9174     966289.05148    729568.68363
  22943481.542    -2565480.728 6  -1940794.03121
  20728210.6364    -797785.51646   -602858.98864
  23033834.5814   -3995737.92746  -3030088.10661
 91  3 21 22 27 59.9990000  0  4G18G11G19G 2
  20640913.3704     983324.79048    742843.24963
  22938182.097    -2593331.267 6  -1962495.67821
  20726635.8864    -806070.61146   -609314.89764
  23024581.8474   -4044372.13246  -3067984.72261
 91  3 21 22 28 14.9990000  0  4G18G11G19G 2
  20644179.9564    1000484.72248    756214.59063
  22932908.3314   -2621045.23346  -1984090.90561
  20725066.8944    -814305.04346   -615731.33064
  23015338.2844   -4092936.13446  -3105826.61261
 91  3 21 22 28 29.9990000  0  4G18G11G19G 2
  20647469.4404    1017771.07648    769684.44263
  22927659.620    -2648620.092 6  -2005577.73621
  20723512.2374    -822486.61946   -622106.57764
  23006111.2764   -4141427.62746  -3143612.01061
 91  3 21 22 28 44.9990000  0  4G18G11G19G 2
  20650782.1054    1035180.72148    783250.35863
  22922439.581    -2676058.589 6  -2026958.30721
  20721961.3944    -830618.28046   -628442.92864
  22996896.620    -4189849.479 6  -3181343.15721
 91  3 21 22 28 59.9990000  0  4G18G11G19G 2
  20654118.5894    1052713.80848    796912.46863
  22917243.487    -2703360.160 6  -2048232.18421
  20720431.0734    -838699.93646   -634740.31664
  22987695.480    -4238201.434 6  -3219019.82921
 91  3 21 22 29 14.9990000  0  4G18G11G19G 2
  20657477.1754    1070369.26748    810669.93263
  22912074.284    -2730525.553 6  -2069399.95121
  20718895.3084    -846732.46147   -640999.42064
  22978508.659    -4286484.263 6  -3256642.64321
 91  3 21 22 29 29.9990000  0  4G18G11G19G 2
  20660861.5734    1088148.28148    824523.67063
  22906929.9094   -2757553.24946  -2090460.42461
  20717379.0504    -854714.66746   -647219.31363
  22969333.1514   -4334696.66946  -3294210.57061
 91  3 21 22 29 44.9990000  0  4G18G11G19G 2
  20664268.5894    1106051.43948    838474.14563
  22901813.8394   -2784442.28546  -2111412.85561
  20715868.6834    -862645.70647   -653399.33564
  22960171.0264   -4382837.84346  -3331722.99961
 91  3 21 22 29 59.9990000  0  4G18G11G19G 2
  20667697.8784    1124077.84648    852520.65963
  22896722.6364   -2811193.48246  -2132257.87361
  20714372.7924    -870526.68946   -659540.34764
  22951025.097    -4430908.833 6  -3369180.76221
 91  3 21 22 30 14.9990000  0  4G18G11G19G 2
  20671151.7064    1142226.01248    866662.05063
  22891659.5344   -2837807.40446  -2152995.92761
  20712878.3474    -878358.45047   -665643.01564
  22941889.519    -4478910.294 6  -3406584.32421
 91  3 21 22 30 29.9990000  0  4G18G11G19G 2
  20674630.1984    1160502.57348    880903.48863
  22886621.0194   -2864277.05146  -2173621.56161
  20711400.0114    -886134.16646   -671702.00564
  22932768.308    -4526835.415 6  -3443928.41321
 91  3 21 22 30 44.9990000  0  4G18G11G19G 2
  20678131.6124    1178905.46748    895243.36763
  22881611.5194   -2890604.38546  -2194136.29961
  20709928.7614    -893856.08547   -677719.07564
  22923663.987    -4574686.221 6  -3481214.58821
 91  3 21 22 30 59.9990000  0  4G18G11G19G 2
  20681656.9404    1197430.36848    909678.31463
  22876627.792    -2916793.194 6  -2214543.10121
  20708470.3084    -901528.36046   -683697.46064
  22914571.4644   -4622466.56646  -3518445.86461
 91  3 21 22 31 14.9990000  0  4G18G11G19G 2
  20685204.6444    1216072.29848    924204.45463
  22871670.0114   -2942848.38746  -2234845.78661
  20707017.0584    -909155.91947   -689641.00164
  22905490.901    -4670181.565 6  -3555626.22221
 91  3 21 22 31 29.9990000  0  4G18G11G19G 2
  20688774.9874    1234835.78548    938825.31263
  22866737.5194   -2968765.05246  -2255040.52061
  20705577.9564    -916734.24746   -695546.17864
  22896424.3704   -4717826.45646  -3592751.94661
 91  3 21 22 31 44.9990000  0  4G18G11G19G 2
  20692368.073     1253714.905 8    953536.27623
  22861831.3784   -2994548.35546  -2275131.34861
  20704141.6364    -924268.85347   -701417.29064
  22887370.183    -4765406.699 6  -3629827.30721
 91  3 21 22 31 59.9990000  0  4G18G11G19G 2
  20695984.972     1272717.577 8    968343.50523
  22856951.8394   -3020190.48546  -2295112.16061
  20702719.6054    -931751.86346   -707248.19664
  22878331.331    -4812914.485 6  -3666846.19421
 91  3 21 22 32 14.9990000  0  4G18G11G19G 2
  20699622.823     1291842.264 8    983245.81524
  22852097.956    -3045692.570 6  -2314983.84121
  20701302.9564    -939184.72547   -713040.02864
  22869302.472    -4860350.986 6  -3703809.53621
 91  3 21 22 32 29.9990000  0  4G18G11G19G 2
  20703285.644     1311088.001 8    998242.45223
  22847272.5194   -3071055.19546  -2334746.85561
  20699900.1984    -946568.22646   -718793.39564
  22860289.6054   -4907716.90946  -3740717.89361
 91  3 21 22 32 44.9990000  0  4G18G11G19G 2
  20706971.706     1330457.853 8   1013335.79423
  22842472.6594   -3096274.71646  -2354398.36461
  20698502.4644    -953898.80347   -724505.52164
  22851289.4874   -4955008.79146  -3777568.55961
 91  3 21 22 32 59.9990000  0  4G18G11G19G 2
  20710682.323     1349951.671 8   1028525.73823
  22837700.0034   -3121350.98146  -2373938.24761
  20697119.9254    -961176.69546   -730176.59264
  22842305.050    -5002226.660 6  -3814361.53921
 91  3 21 22 33 14.9990000  0  4G18G11G19G 2
  20714414.120     1369569.195 8   1043812.07623
  22832957.628    -3146284.067 6  -2393366.54921
  20695743.5344    -968402.02247   -735806.71064
  22833332.7694   -5049370.79946  -3851097.07561
 91  3 21 22 33 29.9990000  0  4G18G11G19G 2
  20718170.761     1389309.612 8   1059194.17623
  22828238.9334   -3171074.32046  -2412683.56361
  20694381.8234    -975575.47846   -741396.40863
  22824376.8154   -5096441.71746  -3887775.56061
 91  3 21 22 33 44.9990000  0  4G18G11G19G 2
  20721950.261     1409172.156 8   1074671.43523
  22823548.4874   -3195722.27046  -2431889.69661
  20693021.9404    -982698.19747   -746946.56863
  22815432.4334   -5143440.13546  -3924397.54761
 91  3 21 22 33 59.9990000  0  4G18G11G19G 2
  20725754.737     1429160.469 8   1090246.70323
  22818885.4094   -3220223.85446  -2450981.76961
  20691680.0264    -989765.99946   -752453.93663
  22806502.581    -5190362.102 6  -3960959.96521
 91  3 21 22 34 14.9990000  0  4G18G11G19G 2
  20729582.651     1449278.898 8   1105923.35123
  22814253.6594   -3244574.04146  -2469955.88161
  20690344.1674    -996773.80047   -757914.55363
  22797589.2764   -5237202.62546  -3997458.91261
 91  3 21 22 34 29.9990000  0  4G18G11G19G 2
  20733433.886     1469519.839 8   1121695.46623
  22809647.1754   -3268780.36246  -2488817.88561
  20689022.9644   -1003729.78346   -763334.78963
  22788689.8554   -5283969.61846  -4033900.57261
 91  3 21 22 34 44.9990000  0  4G18G11G19G 2
  20737309.808     1489887.459 8   1137566.29723
  22805068.3394   -3292838.25246  -2507564.22761
  20687706.5264   -1010629.38446   -768711.09563
  22779804.737    -5330658.373 6  -4070281.26321
 91  3 21 22 34 59.9990000  0  4G18G11G19G 2
  20741208.011     1510369.830 8   1153526.53323
  22800516.0814   -3316759.41546  -2526204.02761
  20686404.7374   -1017484.59246   -774052.80963
  22770933.1594   -5377280.69646  -4106610.19861
 91  3 21 22 35 14.9990000  0  4G18G11G19G 2
  20745130.597     1530977.519 8   1169584.42223
  22795992.417    -3340532.514 6  -2544728.47221
  20685109.0814   -1024284.33546   -779351.30363
  22762074.2304   -5423825.50346  -4142878.71861
 91  3 21 22 35 29.9990000  0  4G18G11G19G 2
  20749074.065     1551707.434 8   1185737.55423
  22791495.2064   -3364160.65646  -2563139.94861
  20683829.7764   -1031031.81546   -784609.07363
  22753231.8474   -5470295.90346  -4179089.27061
 91  3 21 22 35 44.9990000  0  4G18G11G19G 2
  20753041.675     1572556.087 8   1201983.20323
  22787026.4804   -3387646.98946  -2581440.93061
  20682550.5814   -1037730.48247   -789828.80864
  22744403.3314   -5516695.20346  -4215244.41361
 91  3 21 22 35 59.9990000  0  4G18G11G19G 2
  20757032.339     1593529.500 8   1218326.07523
  22782585.5654   -3410985.11346  -2599626.41761
  20681288.0424   -1044373.97246   -795005.54863
  22735588.8474   -5563017.25346  -4251339.36661
 91  3 21 22 36 14.9990000  0  4G18G11G19G 2
  20761047.690     1614627.077 8   1234765.69423
  22778172.7304   -3434175.40646  -2617696.72061
  20680031.8314   -1050962.75846   -800139.66663
  22726788.2144   -5609262.46946  -4287374.44961
 91  3 21 22 36 29.9990000  0  4G18G11G19G 2
  20765085.253     1635845.641 8   1251299.58923
  22773787.0114   -3457220.61746  -2635653.96861
  20678790.5814   -1057499.87946   -805233.52663
  22718002.0814   -5655433.65146  -4323351.83861
 91  3 21 22 36 44.9990000  0  4G18G11G19G 2
  20769148.042     1657190.601 8   1267931.97323
  22769430.159    -3480114.935 6  -2653493.64421
  20677555.2924   -1063979.63047   -810282.67763
  22709231.0194   -5701525.24446  -4359267.21161
 91  3 21 22 36 59.9990000  0  4G18G11G19G 2
  20773231.105     1678653.701 8   1284656.41423
  22765100.761    -3502866.102 6  -2671221.77621
  20676335.9014   -1070410.05646   -815293.39663
  22700473.5034   -5747545.19846  -4395126.76561
 91  3 21 22 37 14.9990000  0  4G18G11G19G 2
  20777338.940     1700237.556 8   1301474.95023
  22760799.6364   -3525471.12846  -2688836.02361
  20675117.1754   -1076788.31247   -820263.46664
  22691730.6594   -5793490.50846  -4430928.14761
 91  3 21 22 37 29.9990000  0  4G18G11G19G 2
  20781470.730     1721950.972 8   1318394.44623
  22756527.769    -3547921.021 6  -2706329.39121
  20673917.7764   -1083105.81446   -825186.19263
  22683003.3784   -5839352.33646  -4466664.48361
 91  3 21 22 37 44.9990000  0  4G18G11G19G 2
  20785627.292     1743791.398 8   1335412.91223
  22752284.253    -3570217.750 6  -2723703.40721
  20672725.1514   -1089364.72746   -830063.26764
  22674291.1284   -5885132.80746  -4502337.42761
 91  3 21 22 37 59.9990000  0  4G18G11G19G 2
  20789806.190     1765750.058 8   1352523.50323
  22748068.917    -3592369.937 6  -2740964.80121
  20671547.3624   -1095573.74446   -834901.46264
  22665592.3554   -5930840.73046  -4537953.82961
 91  3 21 22 38 14.9990000  0  4G18G11G19G 2
  20794006.589     1787832.445 8   1369730.50423
  22743882.425    -3614371.826 6  -2758109.07721
  20670373.0584   -1101727.19346   -839696.35364
  22656909.862    -5976470.324 6  -4573509.20121
 91  3 21 22 38 29.9990000  0  4G18G11G19G 2
  20798233.698     1810037.076 8   1387032.76123
  22739722.823    -3636224.476 6  -2775137.06721
  20669213.1124   -1107826.40946   -844448.98864
  22648241.2064   -6022022.82046  -4609004.50061
 91  3 21 22 38 44.9990000  0  4G18G11G19G 2
  20802482.206     1832360.870 8   1404427.87223
  22735592.472    -3657930.560 6  -2792050.84821
  20668061.4334   -1113874.17546   -849161.53064
  22639587.4404   -6067501.02746  -4644441.91561
 91  3 21 22 38 59.9990000  0  4G18G11G19G 2
  20806752.081     1854802.881 8   1421915.09523
  22731490.4724   -3679490.61946  -2808850.84061
  20666924.0974   -1119871.55846   -853834.81264
  22630947.0114   -6112905.67446  -4679822.01561
 91  3 21 22 39 14.9990000  0  4G18G11G19G 2
  20811046.8314    1877369.31148   1439499.27263
  22727415.964    -3700898.277 6  -2825532.07921
  20665788.4484   -1125812.00046   -858463.73064
  22622320.6674   -6158230.47746  -4715139.88461
 91  3 21 22 39 29.9990000  0  4G18G11G19G 2
  20815362.940     1900053.202 8   1457174.97423
  22723371.456    -3722160.151 6  -2842099.72121
  20664670.5814   -1131702.45246   -863053.68764
  22613710.2844   -6203482.07146  -4750400.71861
 91  3 21 22 39 44.9990000  0  4G18G11G19G 2
  20819701.878     1922852.505 8   1474940.60823
  22719351.2844   -3743277.69846  -2858554.89361
  20663556.3944   -1137544.30946   -867605.78364
  22605112.4334   -6248662.07246  -4785605.76361
 91  3 21 22 39 59.9990000  0  4G18G11G19G 2
  20824062.3624    1945767.55848   1492796.43463
  22715360.4564   -3764250.24346  -2874897.07661
  20662457.1904   -1143336.97646   -872119.54964
  22596528.3314   -6293770.04746  -4820754.68061
 91  3 21 22 40 14.9990000  0  4G18G11G19G 2
  20828446.1444    1968801.13148   1510744.61463
  22711396.511    -3785075.153 6  -2891124.22521
  20661361.2224   -1149078.21146   -876593.23564
  22587958.4484   -6338803.50546  -4855845.53561
 91  3 21 22 40 29.9990000  0  4G18G11G19G 2
  20832853.0974    1991960.59548   1528790.89463
  22707464.5194   -3805744.60846  -2907230.23961
  20660283.9094   -1154760.44246   -881020.94664
  22579404.8474   -6383754.44746  -4890872.09161
 91  3 21 22 40 44.9990000  0  4G18G11G19G 2
  20837282.9804    2015235.94548   1546927.47263
  22703558.9014   -3826268.01246  -2923222.44561
  20659208.9954   -1160393.19846   -885410.10364
  22570865.3004   -6428632.31546  -4925841.71661
 91  3 21 22 40 59.9990000  0  4G18G11G19G 2
  20841732.6834    2038625.24148   1565152.84163
  22699681.2534   -3846646.78546  -2939101.94861
  20658147.6834   -1165978.13446   -889762.00264
  22562338.073    -6473439.095 6  -4960755.94521
 91  3 21 22 41 14.9990000  0  4G18G11G19G 2
  20846205.8154    2062129.57448   1583467.84763
  22695831.542    -3866879.637 6  -2954867.75821
  20657090.9094   -1171514.07846   -894075.72264
  22553826.0344   -6518173.43946  -4995613.72761
 91  3 21 22 41 29.9990000  0  4G18G11G19G 2
  20850703.2144    2085761.36548   1601882.16763
  22692010.089    -3886953.970 6  -2970510.04921
  20656056.6754   -1176988.55446   -898341.54763
  22545329.605    -6562822.684 6  -5030405.19921
 91  3 21 22 41 44.9990000  0  4G18G11G19G 2
  20855221.7694    2109509.66348   1620387.27263
  22688218.347    -3906880.385 6  -2986037.07721
  20655017.1984   -1182412.44746   -902567.95464
  22536845.894    -6607397.744 6  -5065138.86721
 91  3 21 22 41 59.9990000  0  5G18G16G11G19G 2
  20859764.3154    2133378.57548   1638986.36463
  23980326.4404         -0.17655
  22684455.761    -3926654.324 6  -3001445.29521
  20653998.4804   -1187781.17846   -906751.37963
  22528379.8474   -6651894.08046  -5099811.18961
 91  3 21 22 42 14.9990000  0  5G18G16G11G19G 2
  20864328.4954    2157361.59548   1657674.37063
  23975564.7064     -25026.86845
  22680720.042    -3946281.972 6  -3016739.52221
  20652984.3864   -1193101.04946   -910896.73164
  22519925.4724   -6696318.03546  -5134427.11461
 91  3 21 22 42 29.9990000  0  5G18G16G11G19G 2
  20868914.0424    2181460.00648   1676452.29563
  23970826.4804     -49918.74045
  22677014.511    -3965761.820 6  -3031918.57321
  20651987.2924   -1198370.73746   -915002.98163
  22511486.472    -6740668.013 6  -5168985.40221
 91  3 21 22 42 44.9990000  0  5G18G16G11G19G 2
  20873522.5734    2205674.00948   1695320.29263
  23966115.7144     -74675.01845
  22673335.097    -3985093.141 6  -3046981.89621
  20650986.4954   -1203589.72846   -919069.73063
  22503060.026    -6784943.748 6  -5203485.83121
 91  3 21 22 42 59.9990000  0  5G18G16G11G19G 2
  20878152.5194    2230008.13148   1714281.87863
  23961430.6674     -99291.02245
  22669686.8394   -4004271.02146  -3061925.65761
  20650007.2374   -1208753.17546   -923093.19463
  22494648.855    -6829140.247 6  -5237924.52521
 91  3 21 22 43 14.9990000  0  5G18G16G11G19G 2
  20882803.7694    2254452.07048   1733329.04163
  23956775.120     -123777.059 5        -0.25531
  22666063.8234   -4023305.61046  -3076757.75561
  20649031.6514   -1213871.35646   -927081.38663
  22486251.987    -6873267.587 6  -5272309.32321
 91  3 21 22 43 29.9990000  0  5G18G16G11G19G 2
  20887476.7454    2279007.42948   1752463.02563
  23952137.2844    -148131.45045    -18977.63861
  22662470.292    -4042194.888 6  -3091476.63821
  20648068.8394   -1218942.50146   -931032.92963
  22477869.261    -6917323.969 6  -5306638.83021
 91  3 21 22 43 44.9990000  0  5G18G16G11G19G 2
  20892171.4564    2303681.72648   1771689.68663
  23947527.1054    -172346.14845    -37846.19761
  22658904.190    -4060931.033 6  -3106076.18321
  20647112.4724   -1223958.89946   -934941.80463
  22469500.206    -6961301.845 6  -5340907.16721
 91  3 21 22 43 59.9990000  0  5G18G16G11G19G 2
  20896890.2144    2328477.42348   1791010.94663
  23942949.3154    -196418.07245    -56603.51261
  22655369.940    -4079510.960 6  -3120554.00421
  20646171.5344   -1228917.82146   -938805.89963
  22461147.573    -7005198.183 6  -5375111.97321
 91  3 21 22 44 14.9990000  0  5G18G16G11G19G 2
  20901631.9484    2353393.88348   1810426.30963
  23938394.9644    -220348.40245    -75250.49061
  22651862.659    -4097935.347 6  -3134910.62821
  20645234.2224   -1233819.77946   -942625.60963
  22452809.011    -7049013.595 6  -5409253.71821
 91  3 21 22 44 29.9990000  0  5G18G16G11G19G 2
  20906395.1514    2378422.93048   1829929.40663
  23933865.9484    -244144.79145    -93793.09861
  22648384.2764   -4116212.01046  -3149152.13961
  20644314.8474   -1238672.93746   -946407.28463
  22444486.058    -7092756.091 6  -5443338.65021
 91  3 21 22 44 44.9990000  0  5G18G16G11G19G 2
  20911180.7844    2403565.40847   1849520.88763
  23929363.253     -267806.100 5   -112230.44121
  22644935.6514   -4134339.67946  -3163277.56161
  20643397.2694   -1243476.14346   -950150.04463
  22436176.065    -7136424.532 6  -5477365.87721
 91  3 21 22 44 59.9990000  0  5G18G16G11G19G 2
  20915985.4564    2428819.32748   1869199.19663
  23924887.292     -291334.006 5   -130563.85121
  22641513.4254   -4152319.99246  -3177288.15861
  20642495.9874   -1248231.09046   -953855.19563
  22427878.2374   -7180020.56846  -5511336.68461
 91  3 21 22 45 14.9990000  0  5G18G16G11G19G 2
  20920812.6204    2454190.12248   1888968.58563
  23920434.511     -314722.789 5   -148788.84921
  22638121.0194   -4170147.28546  -3191179.52161
  20641599.1364   -1252932.20446   -957518.39663
  22419598.081    -7223538.500 6  -5545246.63121
 91  3 21 22 45 29.9990000  0  5G18G16G11G19G 2
  20925662.6904    2479674.23348   1908826.27163
  23916009.1284    -337975.96045   -166908.16561
  22634756.511    -4187824.775 6  -3204954.14821
  20640715.6284   -1257582.79646   -961142.23364
  22411331.0344   -7266981.77346  -5579098.41061
 91  3 21 22 45 44.9990000  0  5G18G16G11G19G 2
  20930534.9014    2505273.86148   1928773.97163
  23911611.1834    -361091.08345   -184919.90861
  22631421.3554   -4205349.75646  -3218609.94161
  20639839.5114   -1262180.28446   -964724.68864
  22403078.9484   -7310347.91646  -5612890.08561
 91  3 21 22 45 59.9990000  0  5G18G16G11G19G 2
  20935426.1284    2530984.88947   1948808.47463
  23907237.839     -384071.834 5   -202826.95221
  22628115.6904   -4222726.10347  -3232149.92361
  20638977.6204   -1266728.75346   -968268.94563
  22394839.6514   -7353640.73446  -5646624.63061
 91  3 21 22 46 14.9990000  0  5G18G16G11G19G 2
  20940340.9174    2556810.62647   1968932.36563
  23902891.886     -406914.561 5   -220626.44621
  22624836.6674   -4239950.23246  -3245571.28561
  20638118.2454   -1271224.75646   -971772.32064
  22386616.7614   -7396856.56646  -5680299.18561
 91  3 21 22 46 29.9990000  0  5G18G16G11G19G 2
  20945278.0734    2582753.39047   1989147.44063
  23898572.909     -429616.725 5   -238316.43021
  22621590.2454   -4257019.41947  -3258871.92061
  20637276.2534   -1275665.67346   -975232.77664
  22378408.0734   -7439992.98846  -5713911.86461
 91  3 21 22 46 44.9990000  0  5G18G16G11G19G 2
  20950237.4954    2608816.40447   2009456.22163
  23894278.081     -452175.017 5   -255894.27521
  22618371.7844   -4273930.02047  -3272048.97661
  20636439.3314   -1280048.05546   -978647.61664
  22370214.8474   -7483046.54446  -5747459.96261
 91  3 21 22 46 59.9990000  0  5G18G16G11G19G 2
  20955219.2694    2634993.01148   2029853.51163
  23890014.776     -474595.974 5   -273365.12921
  22615182.9724   -4290688.51647  -3285107.50461
  20635617.7454   -1284378.32546   -982021.84963
  22362034.7844   -7526023.84246  -5780948.64961
 91  3 21 22 47 14.9990000  0  5G18G16G11G19G 2
  20960222.8474    2661283.75848   2050339.74163
  23885772.5584    -496878.88145   -290728.39061
  22612021.6444   -4307294.17147  -3298046.94061
  20634799.8864   -1288655.95646   -985355.06664
  22353872.2304   -7568923.99746  -5814377.21761
 91  3 21 22 47 29.9990000  0  5G18G16G11G19G 2
  20965247.1054    2687691.10747   2070916.83363
  23881558.995     -519020.992 5   -307981.95321
  22608892.7534   -4323743.99746  -3310864.94861
  20634000.4564   -1292878.05846   -988645.01063
  22345723.9484   -7611744.18246  -5847743.47461
 91  3 21 22 47 44.9990000  0  5G18G16G11G19G 2
  20970294.2844    2714210.72547   2091581.40763
  23877372.190     -541026.426 5   -325129.02021
  22605790.9254   -4340042.14547  -3323564.76861
  20633202.8394   -1297049.05346   -991895.13564
  22337589.9014   -7654488.74546  -5881050.80361
 91  3 21 22 47 59.9990000  0  5G18G16G11G19G 2
  20975361.6204    2740842.25347   2112333.18163
  23873211.675     -562895.182 5   -342169.56621
  22602717.605    -4356188.476 6  -3336146.29621
  20632422.6364   -1301168.88846   -995105.39264
  22329469.5424   -7697157.61346  -5914299.15661
 91  3 21 22 48 14.9990000  0  5G18G16G11G19G 2
  20980451.0734    2767587.19647   2133173.33063
  23869073.8084    -584625.70445   -359102.40161
  22599675.0584   -4372181.34246  -3348608.24361
  20631644.5654   -1305235.69546   -998274.32864
  22321366.1124   -7739749.06146  -5947487.18561
 91  3 21 22 48 29.9990000  0  5G18G16G11G19G 2
  20985563.4094    2794448.58147   2154104.21463
  23864967.526     -606214.789 5   -375925.03221
  22596661.3154   -4388017.32746  -3360947.93061
  20630884.3004   -1309246.34146  -1001399.50564
  22313275.4804   -7782259.66446  -5980612.21061
 91  3 21 22 48 44.9990000  0  5G18G16G11G19G 2
  20990695.4334    2821421.29947   2175121.84963
  23860885.3944    -627666.84345   -392640.90961
  22593676.6054   -4403700.95846  -3373168.90961
  20630128.9334   -1313205.60646  -1004484.64364
  22305199.0814   -7824694.26446  -6013678.01861
 91  3 21 22 48 59.9990000  0  5G18G16G11G19G 2
  20995849.7924    2848508.03147   2196228.32763
  23856830.222     -648979.016 5   -409247.77021
  22590721.8314   -4419229.33646  -3385268.91861
  20629388.2374   -1317110.58946  -1007527.48564
  22297139.8784   -7867049.97646  -6046682.35661
 91  3 21 22 49 14.9990000  0  5G18G16G11G19G 2
  21001025.8704    2875706.46247   2217421.84663
  23852800.8554    -670153.67845   -425747.48861
  22587796.2614   -4434604.53646  -3397249.56161
  20628652.4484   -1320963.40146  -1010529.67264
  22289095.167    -7909328.930 6  -6079626.87721
 91  3 21 22 49 29.9990000  0  5G18G16G11G19G 2
  21006222.8704    2903017.20847   2238702.87863
  23848795.245     -691189.961 5   -442139.35221
  22584899.2614   -4449825.97646  -3409110.38361
  20627933.7304   -1324763.53046  -1013490.81164
  22281064.003    -7951530.521 6  -6112511.12321
 91  3 21 22 49 44.9990000  0  5G18G16G11G19G 2
  21011440.9564    2930440.72447   2260071.78463
  23844820.573     -712086.978 5   -458422.70821
  22582031.2454   -4464892.46146  -3420850.47261
  20627216.2224   -1328509.94246  -1016410.09164
  22273048.456    -7993653.728 6  -6145334.28821
 91  3 21 22 49 59.9990000  0  5G18G16G11G19G 2
  21016682.6674    2957976.81148   2281528.40763
  23840869.1674    -732844.67345   -474597.51361
  22579193.542    -4479804.051 6  -3432469.86622
  20626515.7924   -1332202.76946  -1019287.61764
  22265047.261    -8035698.643 6  -6178096.45321
 91  3 21 22 50 14.9990000  0  5G18G16G11G19G 2
  21021942.2064    2985622.63347   2303070.53863
  23836946.980     -753465.702 5   -490665.82221
  22576385.6444   -4494563.19346  -3443970.47261
  20625821.6284   -1335844.46946  -1022125.30664
  22257061.308    -8077667.850 6  -6210799.61521
 91  3 21 22 50 29.9990000  0  5G18G16G11G19G 2
  21027223.8004    3013381.41547   2324700.69463
  23833047.4804    -773946.80945   -506625.08861
  22573605.9174   -4509166.37346  -3455349.54361
  20625140.9094   -1339431.78246  -1024920.61264
  22249088.417    -8119557.996 6  -6243441.17521
 91  3 21 22 50 44.9990000  0  5G18G16G11G19G 2
  21032527.8084    3041248.64647   2346415.35363
  23829176.245     -794292.430 5   -522478.79621
  22570856.6754   -4523617.68546  -3466610.27261
  20624465.1364   -1342968.90346  -1027676.81064
  22241130.847    -8161373.019 6  -6276024.19421
 91  3 21 22 50 59.9990000  0  5G18G16G11G19G 2
  21037851.2144    3069227.15647   2368216.71963
  23825330.6754    -814499.22845   -538224.33061
  22568135.0264   -4537913.97646  -3477750.20861
  20623804.6364   -1346452.62846  -1030391.40364
  22233189.183    -8203110.060 6  -6308546.45821
 91  3 21 22 51 14.9990000  0  5G18G16G11G19G 2
  21043196.9174    3097316.98648   2390104.82963
  23821512.230     -834566.734 5   -553861.32821
  22565444.3314   -4552054.69446  -3488768.91461
  20623148.8314   -1349882.62346  -1033064.13064
  22225262.0344   -8244768.61946  -6341007.55461
 91  3 21 22 51 29.9990000  0  5G18G16G11G19G 2
  21048561.6754    3125506.20148   2412070.38563
  23817718.925     -854506.792 5   -569399.02221
  22562781.9014   -4566051.71946  -3499675.65861
  20622510.8704   -1353270.86846  -1035704.32364
  22217347.315    -8286360.525 6  -6373416.71721
 91  3 21 22 51 44.9990000  0  5G18G16G11G19G 2
  21053946.4644    3153803.08548   2434119.83863
  23813948.5504    -874310.84545   -584830.71061
  22560146.8234   -4579896.38346  -3510463.67161
  20621869.6834   -1356608.66446  -1038305.20364
  22209446.8474   -8327877.40346  -6405767.41661
 91  3 21 22 51 59.9990000  0  6G18G16G11G19G 2G 6
  21059352.1984    3182208.93648   2456254.19863
  23810207.073     -893977.996 5   -600155.71221
  22557540.6124   -4593587.47646  -3521132.01561
  20621247.8234   -1359894.83846  -1040865.86064
  22201560.0194   -8369318.00746  -6438058.68061
  24072060.7374         -0.23153
 91  3 21 22 52 14.9990000  0  6G18G16G11G19G 2G 6
  21064778.1754    3210725.66248   2478474.95263
  23806491.065     -913505.689 5   -615372.09721
  22554965.0264   -4607122.56446  -3531678.80861
  20620629.3944   -1363127.08446  -1043384.49464
  22193689.237    -8410679.733 6  -6470288.48821
  24064835.7304     -37986.56544
 91  3 21 22 52 29.9990000  0  6G18G16G11G19G 2G 6
  21070226.581     3239353.507 8   2500782.29023
  23802801.495     -932893.253 5   -630479.27621
  22552419.8234   -4620500.78346  -3542103.35961
  20620027.6904   -1366304.71946  -1045860.57164
  22185833.550    -8451961.736 6  -6502456.16721
  24057609.6124     -75958.43544
 91  3 21 22 52 44.9990000  0  6G18G16G11G19G 2G 6
  21075694.2764    3268088.75147   2523173.32163
  23799137.284     -952144.171 5   -645479.95021
  22549903.8944   -4633725.77846  -3552408.51561
  20619429.6754   -1369431.48146  -1048297.00964
  22177993.5264   -8493167.98946  -6534564.81961
  24050386.6364    -113919.76244
 91  3 21 22 52 59.9990000  0  6G18G16G11G19G 2G 6
  21081182.5504    3296930.87047   2545647.62963
  23795500.769     -971259.061 5   -660374.65921
  22547415.9564   -4646797.83846  -3562594.49461
  20618846.5814   -1372507.65146  -1050694.02964
  22170165.0814   -8534298.82346  -6566614.70862
  24043164.0974    -151870.90744
 91  3 21 22 53 14.9990000  0  6G18G16G11G19G 2G 6
  21086692.065     3325880.203 7   2568205.47823
  23791888.4094    -990237.35945   -675162.92661
  22544956.7694   -4659716.23146  -3572660.73861
  20618268.9254   -1375532.54646  -1053051.08964
  22162352.2924   -8575353.48046  -6598605.23561
  24035940.487     -189811.430 3        -0.41231
 91  3 21 22 53 29.9990000  0  6G18G16G11G19G 2G 6
  21092222.6984    3354945.91547   2590854.01463
  23788306.4724   -1009069.68145   -689837.42061
  22542530.2304   -4672471.41446  -3582599.80161
  20617705.7844   -1378496.63946  -1055360.77864
  22154557.073    -8616322.550 6  -6630529.07121
  24028728.190     -227731.850 3    -29548.59721
 91  3 21 22 53 44.9990000  0  6G18G16G11G19G 2G 6
  21097773.706     3384114.094 8   2613582.38923
  23784745.3624   -1027769.60545   -704408.75961
  22540130.4564   -4685077.29946  -3592422.54061
  20617149.3474   -1381413.74946  -1057633.85464
  22146773.073    -8657220.039 6  -6662397.13422
  24021511.534     -265646.306 3    -59092.16821
 91  3 21 22 53 59.9990000  0  6G18G16G11G19G 2G 6
  21103343.987     3413386.686 7   2636392.12623
  23781216.323    -1046334.632 5   -718874.98521
  22537761.0114   -4697531.26546  -3602126.89461
  20616610.5424   -1384281.63646  -1059868.57164
  22139005.800    -8698043.283 6  -6694207.33822
  24014297.8314    -303552.41543    -88629.21361
 91  3 21 22 54 14.9990000  0  6G18G16G11G19G 2G 6
  21108933.714     3442765.792 7   2659284.86223
  23777707.331    -1064762.388 5   -733234.27021
  22535420.6904   -4709830.77746  -3611710.89361
  20616068.3704   -1387097.85746  -1062063.03664
  22131251.636    -8738789.881 6  -6725957.82422
  24007086.6904    -341447.81344   -118157.90561
 91  3 21 22 54 29.9990000  0  6G18G16G11G19G 2G 6
  21114545.4804    3472251.45347   2682260.62963
  23774228.472    -1083053.066 5   -747486.71721
  22533109.9724   -4721975.82446  -3621174.53861
  20615543.8234   -1389862.44946  -1064217.26164
  22123511.917    -8779459.912 6  -6757648.64421
  23999876.9804    -379332.61144   -147678.36361
 91  3 21 22 54 44.9990000  0  6G18G16G11G19G 2G 6
  21120176.394     3501842.860 7   2705318.79023
  23770774.5974   -1101207.25845   -761632.82761
  22530828.4644   -4733966.64846  -3630518.00661
  20615025.1284   -1392575.52146  -1066331.35164
  22115786.823    -8820053.516 6  -6789279.91422
  23992670.128     -417207.218 4   -177190.91021
 91  3 21 22 54 59.9990000  0  6G18G16G11G19G 2G 6
  21125827.917     3531541.492 7   2728460.50723
  23767343.0264   -1119223.27945   -775671.25761
  22528576.5344   -4745801.69846  -3639740.09561
  20614525.7064   -1395235.51746  -1068404.08064
  22108077.870    -8860569.180 6  -6820850.45021
  23985465.276     -455070.289 4   -206694.40221
 91  3 21 22 55 14.9990000  0  6G18G16G11G19G 2G 6
  21131500.058     3561346.178 7   2751684.86123
  23763943.269    -1137101.908 5   -789602.64021
  22526354.3154   -4757481.83347  -3648841.46861
  20614023.3554   -1397843.27046  -1070436.09664
  22100381.995    -8901008.023 6  -6852361.12422
  23978262.620     -492922.891 4   -236189.78621
 91  3 21 22 55 29.9990000  0  6G18G16G11G19G 2G 6
  21137191.331     3591258.372 7   2774992.98823
  23760564.7144   -1154841.31445   -803425.51961
  22524160.0654   -4769004.99947  -3657820.53061
  20613539.7304   -1400397.10746  -1072426.09964
  22092702.1904   -8941367.84446  -6883810.21962
  23971059.9484    -530763.09144   -265675.45761
 91  3 21 22 55 44.9990000  0  6G18G16G11G19G 2G 6
  21142904.409     3621277.738 7   2798384.62823
  23757214.3784   -1172441.91445   -817140.24761
  22521997.6124   -4780371.53847  -3666677.53861
  20613060.9254   -1402897.28546  -1074374.29364
  22085036.464    -8981649.035 6  -6915198.05022
  23963863.581     -568591.312 4   -295151.80721
 91  3 21 22 55 59.9990000  0  6G18G16G11G19G 2G 6
  21148637.675     3651405.116 7   2821860.43123
  23753893.3624   -1189902.62445   -830745.97361
  22519865.4254   -4791580.26447  -3675411.58161
  20612597.9094   -1405342.58746  -1076279.72764
  22077386.597    -9021850.347 6  -6946523.63722
  23956664.972     -606406.672 4   -324618.17121
 91  3 21 22 56 14.9990000  0  6G18G16G11G19G 2G 6
  21154390.855     3681636.530 7   2845417.30223
  23750595.9644   -1207227.30145   -844245.68661
  22517761.2304   -4802634.91347  -3684025.56161
  20612140.9564   -1407736.86646  -1078145.39764
  22069751.386    -9061975.714 6  -6977790.04421
  23949471.269     -644213.000 4   -354077.46521
 91  3 21 22 56 29.9990000  0  6G18G16G11G19G 2G 6
  21160163.573     3711972.733 7   2869055.82423
  23747324.292    -1224414.861 5   -857638.57221
  22515687.4334   -4813534.46247  -3692518.68661
  20611696.1834   -1410079.33646  -1079970.69764
  22062131.230    -9102024.310 6  -7008996.63722
  23942277.628     -682009.578 4   -383529.15821
 91  3 21 22 56 44.9990000  0  6G18G16G11G19G 2G 6
  21165956.409     3742412.864 7   2892775.32923
  23744081.050    -1241465.937 5   -870925.09721
  22513642.628    -4824279.300 7  -3700891.26021
  20611258.5264   -1412370.13146  -1081755.73564
  22054522.800    -9141996.461 6  -7040143.65321
  23935085.7224    -719796.74544   -412973.56061
 91  3 21 22 56 59.9990000  0  6G18G16G11G19G 2G 6
  21171767.495     3772952.314 7   2916572.22623
  23740863.253    -1258384.876 5   -884108.66321
  22511626.4484   -4834873.70647  -3709146.61761
  20610832.9724   -1414613.63646  -1083503.91864
  22046930.417    -9181896.519 6  -7071234.49622
  23927896.1514    -757579.03444   -442414.11561
 91  3 21 22 57 14.9990000  0  6G18G16G11G19G 2G 6
  21177598.870     3803594.698 7   2940449.32923
  23737666.503    -1275167.993 5   -897186.39821
  22509639.026    -4845313.986 7  -3717281.87521
  20610413.8084   -1416806.19746  -1085212.41064
  22039352.097    -9221720.862 6  -7102266.34622
  23920709.800     -795352.822 4   -471848.06121
 91  3 21 22 57 29.9990000  0  6G18G16G11G19G 2G 6
  21183449.253     3834341.874 7   2964408.09123
  23734502.0344   -1291813.10945   -910156.59261
  22507682.698    -4855597.965 7  -3725295.34121
  20610011.2764   -1418945.56546  -1086879.45164
  22031788.378    -9261467.122 6  -7133237.34622
  23913523.370     -833116.110 4   -501273.82621
 91  3 21 22 57 44.9990000  0  6G18G16G11G19G 2G 6
  21189320.222     3865189.767 7   2988445.33523
  23731359.917    -1308324.176 5   -923022.33821
  22505756.011    -4865729.529 7  -3733190.04121
  20609609.4174   -1421035.70746  -1088508.13364
  22024239.167    -9301139.198 6  -7164150.54022
  23906338.378     -870872.793 4   -530694.41621
 91  3 21 22 57 59.9990000  0  6G18G16G11G19G 2G 6
  21195209.706     3896141.582 7   3012563.55823
  23728243.6514   -1324697.30045   -935780.59361
  22503857.136    -4875704.890 7  -3740963.03121
  20609223.7374   -1423073.02246  -1090095.64964
  22016704.144    -9340733.505 6  -7195003.13822
  23899156.3944    -908619.41345   -560107.20061
 91  3 21 22 58 14.9990000  0  6G18G16G11G19G 2G 6
  21201119.925     3927196.548 7   3036762.16023
  23725152.870    -1340933.275 5   -948431.98421
  22501988.159    -4885524.507 7  -3748614.65721
  20608843.4484   -1425057.92646  -1091642.32764
  22009185.425    -9380250.588 6  -7225795.56222
  23891974.1204    -946356.68345   -589512.68361
 91  3 21 22 58 29.9990000  0  6G18G16G11G19G 2G 6
  21207049.105     3958351.605 7   3061038.75123
  23722090.558    -1357035.486 5   -960979.14421
  22500149.0894   -4895191.40047  -3756147.27361
  20608480.0424   -1426993.47846  -1093150.54164
  22001679.409    -9419693.544 6  -7256530.22422
  23884795.8474    -984087.55145   -618913.19161
 91  3 21 22 58 44.9990000  0  6G18G16G11G19G 2G 6
  21212997.769     3989611.679 7   3085397.17623
  23719054.284    -1372998.314 5   -973417.70121
  22498340.065    -4904700.192 7  -3763556.69921
  20608117.1594   -1428874.34046  -1094616.14964
  21994187.308    -9459057.039 6  -7287202.96822
  23877614.722    -1021806.975 5   -648304.77121
 91  3 21 22 58 59.9990000  0  6G18G16G11G19G 2G 6
  21218962.987     4020971.817 7   3109833.57223
  23716041.753    -1388826.688 5   -985751.47721
  22496558.370    -4914055.503 7  -3770846.53321
  20607772.0114   -1430705.13046  -1096042.73464
  21986712.261    -9498345.599 6  -7317817.32522
  23870440.1514   -1059519.56245   -677691.02261
 91  3 21 22 59 14.9990000  0  6G18G16G11G19G 2G 6
  21224951.894     4052435.045 7   3134350.29723
  23713055.5584   -1404517.16945   -997977.79561
  22494808.808    -4923254.152 7  -3778014.29421
  20607430.6594   -1432482.57846  -1097427.75864
  21979249.628    -9537556.054 6  -7348370.82022
  23863265.245    -1097222.319 5   -707069.63321
 91  3 21 22 59 29.9990000  0  6G18G16G11G19G 2G 6
  21230959.112     4084004.569 7   3158949.84923
  23710095.175    -1420066.591 5  -1010094.21221
  22493087.292    -4932292.723 7  -3785057.31821
  20607107.6674   -1434203.37946  -1098768.64064
  21971803.409    -9576685.082 6  -7378860.86522
  23856090.878    -1134911.954 5   -736437.98221
 91  3 21 22 59 44.9990000  0  6G18G16G11G19G 2G 6
  21236987.276     4115678.889 7   3183631.06023
  23707162.526    -1435476.155 5  -1022101.64321
  22491398.206    -4941172.412 7  -3791976.53921
  20606786.4094   -1435868.88746  -1100066.43464
  21964372.456    -9615733.889 6  -7409288.40022
  23848921.3784   -1172589.76245   -765797.13361
 91  3 21 22 59 59.9990000  0  6G18G16G11G19G 2G 6
  21243032.308     4147445.638 7   3208384.29423
  23704257.3314   -1450757.94245  -1034009.52161
  22489736.6984   -4949905.00747  -3798781.14361
  20606480.0504   -1437490.85546  -1101330.30164
  21956956.144    -9654714.347 6  -7439662.67522
  23841755.1204   -1210267.72845   -795156.41261
 91  3 21 23  0 14.9990000  0  6G18G16G11G19G 2G 6
  21249094.565     4179304.434 7   3233209.25323
  23701372.058    -1465912.348 5  -1045818.12921
  22488102.253    -4958490.847 7  -3805471.38721
  20606178.3784   -1439069.45246  -1102560.37564
  21949550.831    -9693626.771 6  -7469983.94422
  23834581.097    -1247946.395 5   -824516.20621
 91  3 21 23  0 29.9990000  0  6G18G16G11G19G 2G 6
  21255175.456     4211264.082 7   3258112.79223
  23698512.3864   -1480930.05245  -1057520.22761
  22486499.964    -4966920.748 7  -3812040.11721
  20605891.1834   -1440595.69946  -1103749.65964
  21942159.659    -9732462.113 6  -7500245.14322
  23827414.3864   -1285616.49245   -853869.34961
 91  3 21 23  0 44.9990000  0  6G18G16G11G19G 2G 6
  21261276.972     4243322.357 7   3283093.18823
  23695682.605    -1495812.903 5  -1069117.22921
  22484923.901    -4975196.634 7  -3818488.84521
  20605606.5654   -1442071.49546  -1104899.62964
  21934783.745    -9771222.269 6  -7530447.76222
  23820246.2694   -1323280.17745   -883217.48861
 91  3 21 23  0 59.9990000  0  6G18G16G11G19G 2G 6
  21267397.120     4275480.171 7   3308151.14623
  23692875.6364   -1510560.14545  -1080608.57761
  22483378.573    -4983317.311 7  -3824816.62621
  20605338.9334   -1443495.58046  -1106009.30264
  21927422.355    -9809906.017 6  -7560590.83622
  23813081.605    -1360936.382 5   -912559.82121
 91  3 21 23  1 14.9990000  0  6G18G16G11G19G 2G 6
  21273535.401     4307738.750 7   3333287.61923
  23690094.9334   -1525170.40745  -1091993.18161
  22481864.050    -4991281.523 7  -3831022.48621
  20605073.8784   -1444866.72646  -1107077.72864
  21920075.8704   -9848512.02946  -7590673.34362
  23805916.276    -1398583.935 5   -941895.39421
 91  3 21 23  1 29.9990000  0  6G18G16G11G19G 2G 6
  21279691.761     4340096.387 7   3358501.27823
  23687339.573    -1539645.053 5  -1103272.11921
  22480377.6904   -4999090.50247  -3837107.39661
  20604826.2304   -1446186.05546  -1108105.77464
  21912745.128    -9887041.671 6  -7620696.33622
  23798752.9484   -1436224.14145   -971225.24561
 91  3 21 23  1 44.9990000  0  6G18G16G11G19G 2G 6
  21285869.456     4372558.276 7   3383796.17723
  23684613.933    -1553978.874 5  -1114441.32321
  22478919.995    -5006738.879 7  -3843067.15321
  20604584.4564   -1447448.27446  -1109089.32564
  21905426.792    -9925489.584 6  -7650655.64522
  23791591.269    -1473851.846 4  -1000545.37021
 91  3 21 23  1 59.9990000  0  6G18G16G11G19G 2G 6
  21292064.519     4405114.577 7   3409164.64323
  23681909.4174   -1568181.32245  -1125508.16661
  22477493.175    -5014236.215 7  -3848909.21521
  20604356.3554   -1448663.00846  -1110035.86664
  21898125.175    -9963865.367 6  -7680558.74222
  23784432.1124   -1511476.66145  -1029863.19861
 91  3 21 23  2 14.9990000  0  6G18G16G11G19G 2G 6
  21298280.065     4437769.278 7   3434609.79023
  23679232.4334   -1582248.52445  -1136469.60861
  22476097.276    -5021578.084 7  -3854630.13721
  20604131.9724   -1449825.84546  -1110941.97164
  21890836.0974  -10002164.77146  -7710402.34062
  23777274.698    -1549094.607 4  -1059175.69621
 91  3 21 23  2 29.9990000  0  6G18G16G11G19G 2G 6
  21304512.308     4470528.505 7   3460136.37023
  23676583.0734   -1596173.41845  -1147320.17161
  22474730.151    -5028758.001 7  -3860224.86021
  20603924.5734   -1450930.14646  -1111802.46664
  21883564.4174  -10040381.08346  -7740181.18162
  23770117.6204   -1586698.90844  -1088477.59861
 91  3 21 23  2 44.9990000  0  6G18G16G11G19G 2G 6
  21310765.8154    4503387.24947   3485740.50463
  23673958.4094   -1609961.25845  -1158063.94161
  22473394.9484   -5035781.02147  -3865697.32261
  20603721.1674   -1451980.91246  -1112621.24264
  21876306.612   -10078519.465 6  -7769899.29322
  23762962.026    -1624294.764 4  -1117772.88321
 91  3 21 23  2 59.9990000  0  6G18G16G11G19G 2G 6
  21317036.8784    4536345.07347   3511421.84063
  23671360.2144   -1623612.20645  -1168701.04561
  22472088.730    -5042646.963 7  -3871047.38521
  20603534.4954   -1452978.12846  -1113398.29964
  21869064.019   -10116579.662 6  -7799556.49022
  23755811.206    -1661882.181 4  -1147061.58321
 91  3 21 23  3 14.9990000  0  6G18G16G11G19G 2G 6
  21323328.8394    4569404.81647   3537182.58863
  23668789.0194   -1637123.49045  -1179229.30961
  22470812.651    -5049353.022 7  -3876272.87321
  20603351.9484   -1453918.93246  -1114131.39464
  21861836.769   -10154558.952 6  -7829150.64022
  23748660.5894   -1699458.48944  -1176341.66761
 91  3 21 23  3 29.9990000  0  6G18G16G11G19G 2G 6
  21329641.4014    4602576.41547   3563030.50063
  23666245.4644   -1650485.04545  -1189640.91261
  22469567.1674   -5055888.99247  -3881365.82761
  20603189.0584   -1454793.24046  -1114812.67264
  21854627.792   -10192447.243 6  -7858673.87822
  23741512.4564   -1737013.60344  -1205605.21361
 91  3 21 23  3 44.9990000  0  6G18G16G11G19G 2G 6
  21335972.058     4635844.055 7   3588953.25323
  23663730.5034   -1663712.10345  -1199947.71361
  22468354.409    -5062270.289 7  -3886338.26222
  20603027.3394   -1455616.44746  -1115454.13364
  21847431.1514  -10230259.80246  -7888138.10862
  23734367.730    -1774562.997 4  -1234864.29821
 91  3 21 23  3 59.9990000  0  6G18G16G11G19G 2G 6
  21342320.1054    4669205.46347   3614949.06862
  23661239.2454   -1676806.98145  -1210151.51161
  22467168.026    -5068498.917 7  -3891191.72521
  20602887.2694   -1456390.43046  -1116057.23864
  21840248.8234  -10267998.72546  -7917544.96162
  23727223.1204   -1812108.84844  -1264120.61561
 91  3 21 23  4 14.9990000  0  6G18G16G11G19G 2G 6
  21348686.019     4702660.663 7   3641017.97222
  23658773.3704   -1689768.99345  -1220251.78761
  22466013.565    -5074574.360 7  -3895925.81221
  20602743.0734   -1457114.62346  -1116621.54964
  21833082.831   -10305663.469 6
  23720078.683    -1849650.510 4
 91  3 21 23  4 29.9990000  0  6G18G16G11G19G 2G 6
  21355071.237     4736215.742 7   3667164.69823
  23656333.034    -1702592.540 5  -1230244.16121
  22464887.1124   -5080490.87047  -3900536.08461
  20602620.0894   -1457783.18746  -1117142.51064
  21825928.9484  -10343248.20246
  23712935.112    -1887182.397 4
 91  3 21 23  4 44.9990000  0  6G18G16G11G19G 2G 6
  21361477.5194    4769868.99747   3693387.92462
  23653917.5034   -1715278.98545  -1240129.69861
  22463791.878    -5086249.557 7  -3905023.35621
  20602499.5894   -1458397.32946  -1117621.06464
  21818792.3154  -10380754.08446
  23705797.573    -1924705.875 4
 91  3 21 23  4 59.9990000  0  6G18G16G11G19G 2G 6
  21367898.7374    4803619.52547   3719686.94962
  23651530.870    -1727828.971 5  -1249908.90521
  22462726.136    -5091850.907 7  -3909388.02521
  20602395.4564   -1458957.55446  -1118057.60264
  21811669.2374  -10418181.64146  -8034570.20962
  23698655.308    -1962221.260 4  -1381090.67721
 91  3 21 23  5 14.9990000  0  6G18G16G11G19G 2G 6
  21374339.1754    4837464.59947   3746059.64262
  23649168.175    -1740244.640 5  -1259583.45621
  22461687.315    -5097297.190 7  -3913631.86321
  20602296.3944   -1459465.91746  -1118453.72664
  21804562.933   -10455533.283 6  -8063675.27822
  23691519.9724   -1999731.22144  -1410319.05661
 91  3 21 23  5 29.9990000  0  6G18G16G11G19G 2G 6
  21380797.269     4871399.652 7   3772502.46022
  23646829.839    -1752530.868 5  -1269157.13321
  22460680.519    -5102593.237 7  -3917758.63721
  20602211.9644   -1459927.24246  -1118813.20064
  21797467.917   -10492813.893 6  -8092725.00422
  23684379.1674   -2037240.51544  -1439546.87961
 91  3 21 23  5 44.9990000  0  6G18G16G11G19G 2G 6
  21387272.9484    4905429.89347   3799019.44362
  23644515.0504   -1764682.21845  -1278625.75861
  22459701.198    -5107733.606 7  -3921764.10221
  20602132.5974   -1460336.32146  -1119131.96264
  21790388.3554  -10530017.85746  -8121715.00562
  23677242.6284   -2074743.74244  -1468770.00261
 91  3 21 23  5 59.9990000  0  6G18G16G11G19G 2G 6
  21393767.1284    4939560.51247   3825614.64362
  23642233.956    -1776693.109 5  -1287984.88421
  22458752.933    -5112712.696 7  -3925643.88321
  20602069.1124   -1460687.34746  -1119405.49264
  21783324.0894  -10567139.33746  -8150640.73062
  23670109.495    -2112235.307 4  -1497984.03921
 91  3 21 23  6 14.9990000  0  6G18G16G11G19G 2G 6
  21400280.519     4973788.281 7   3852285.54822
  23639971.237    -1788566.594 5  -1297236.96021
  22457836.7454   -5117533.37947  -3929400.24061
  20602008.6594   -1460983.18146  -1119636.01464
  21776276.050   -10604181.398 6  -8179504.56922
  23662977.1364   -2149718.26244  -1527191.35061
 91  3 21 23  6 29.9990000  0  6G18G16G11G19G 2G 6
  21406813.3084    5008111.30447   3879030.67362
  23637739.800    -1800304.705 5  -1306383.51621
  22456948.394    -5122197.386 7  -3933034.50821
  20601969.5654   -1461225.44746  -1119824.79164
  21769241.745   -10641145.897 6  -8208307.97822
  23655845.401    -2187194.541 5  -1556393.51521
 91  3 21 23  6 44.9990000  0  6G18G16G11G19G 2G 6
  21413362.5584    5042529.48747   3905849.94862
  23635528.894    -1811906.795 5  -1315424.12521
  22456093.370    -5126704.335 7  -3936546.39921
  20601926.0814   -1461413.69746  -1119971.48064
  21762222.4174  -10678032.52846  -8237050.71262
  23648715.636    -2224663.695 5  -1585590.07921
 91  3 21 23  6 59.9990000  0  6G18G16G11G19G 2G 6
  21419929.5894    5077047.27047   3932746.82862
  23633350.339    -1823368.740 5  -1324355.49521
  22455265.480    -5131049.781 7  -3939932.44021
  20601901.9484   -1461543.58246
  21755218.6284  -10714836.67347  -8265729.16862
  23641585.2374   -2262121.39045  -1614777.71361
 91  3 21 23  7 14.9990000  0  6G18G16G11G19G 2G 6
  21426518.0034    5111659.59947   3959717.39262
  23631194.722    -1834695.136 5  -1333181.25021
  22454467.409    -5135238.370 7  -3943196.25022
  20601888.4334   -1461619.63446
  21748230.6284  -10751563.01247  -8294346.99762
  23634458.4724   -2299572.39845  -1643960.15761
 91  3 21 23  7 29.9990000  0  6G18G16G11G19G 2G 6
  21433121.6754    5146361.61347   3986757.82362
  23629062.5974   -1845890.58845  -1341905.01161
  22453701.136    -5139274.789 7  -3946341.49621
  20601885.9404   -1461646.39746
  21741254.2064  -10788216.04547  -8322907.70462
  23627334.558    -2337021.275 5  -1673140.93521
 91  3 21 23  7 44.9990000  0  6G18G16G11G19G 2G 6
  21439743.0814    5181154.99647   4013869.45962
  23626958.9014   -1856953.37145  -1350525.34761
  22452960.753    -5143157.263 7  -3949366.79121
  20601885.7694   -1461622.04146
  21734294.0424  -10824794.07247  -8351409.96662
  23620207.761    -2374466.320 5  -1702318.74221
 91  3 21 23  7 59.9990000  0  6G18G16G11G19G 2G 6
  21446382.2844    5216044.82947   4041056.25162
  23624881.620    -1867878.452 5  -1359038.40621
  22452252.8154   -5146880.23146  -3952267.78861
  20601904.0584   -1461541.00246
  21727349.6444  -10861291.50247  -8379849.42762
  23613084.9804   -2411902.20245  -1731489.40261
 91  3 21 23  8 14.9980000  0  6G18G16G11G19G 2G 6
  21453037.7014    5251021.69747   4068310.86662
  23622824.3574   -1878671.51745  -1367448.57761
  22451572.506    -5150450.188 7  -3955049.56622
  20601927.4124   -1461409.96046
  21720417.9594  -10897712.79047  -8408229.55662
  23605962.1394   -2449333.20945  -1760656.24861
 91  3 21 23  8 29.9980000  0  6G18G16G11G19G 2G 6
  21459713.0614    5286096.15147   4095641.51762
  23620797.600    -1889328.444 5  -1375752.67821
  22450924.6934   -5153861.61347  -3957707.79961
  20601963.4514   -1461222.99446
  21713501.8424  -10934056.78847  -8436549.45662
  23598841.826    -2486758.403 5  -1789818.60321
 91  3 21 23  8 44.9980000  0  6G18G16G11G19G 2G 6
  21466404.0454    5321263.65847   4123044.67662
  23618794.5064   -1899850.28245  -1383951.51261
  22450304.4984   -5157116.29147  -3960243.90462
  20602007.1314   -1460982.14746
  21706600.7324  -10970322.99047  -8464808.73862
  23591717.787    -2524177.358 5  -1818976.06821
 91  3 21 23  8 59.9980000  0  6G18G16G11G19G 2G 6
  21473113.8574    5356525.70647   4150521.50462
  23616818.0144   -1910235.22545  -1392043.68661
  22449714.0144   -5160212.54847  -3962656.56461
  20602067.5144   -1460685.50946  -1119404.06664
  21699713.8184  -11006509.68747  -8493006.06762
  23584598.5374   -2561588.40445  -1848127.37661
 91  3 21 23  9 14.9980000  0  6G18G16G11G19G 2G 6
  21479844.4434    5391888.94147   4178077.18162
  23614869.9044   -1920476.63045  -1400023.99661
  22449156.147    -5163143.385 7  -3964940.31322
  20602134.3734   -1460326.04746  -1119123.96564
  21692843.8654  -11042609.93547  -8521136.03762
  23577484.943    -2598984.562 5  -1877267.08721
 91  3 21 23  9 29.9980000  0  6G18G16G11G19G 2G 6
  21486590.3424    5427341.23147   4205702.25362
  23612945.959    -1930586.669 5  -1407901.98221
  22448628.311    -5165920.676 6  -3967104.41322
  20602214.0844   -1459915.55646  -1118804.10764
  21685987.6784  -11078635.50647  -8549207.81862
  23570369.4364   -2636377.82945  -1906404.52061
 91  3 21 23  9 44.9980000  0  6G18G16G11G19G 2G 6
  21493352.7014    5462876.61247   4233392.06562
  23611047.186    -1940570.800 5  -1415681.81421
  22448127.045    -5168550.272 6  -3969153.43122
  20602298.3814   -1459459.74046  -1118448.92764
  21679145.0924  -11114592.28347  -8577225.98562
  23563251.4204   -2673773.94744  -1935544.20261
 91  3 21 23  9 59.9980000  0  6G18G16G11G19G 2G 6
  21500131.3654    5498504.03447   4261153.59862
  23609172.170    -1950419.957 5  -1423356.49621
  22447656.451    -5171022.878 6  -3971080.12322
  20602399.9674   -1458949.38846  -1118051.25564
  21672317.8114  -11150471.04647  -8605183.36662
  23556137.7014   -2711163.94044  -1964679.14061
 91  3 21 23 10 14.9980000  0  6G18G16G11G19G 2G 6
  21506929.8344    5534223.11947   4288986.55562
  23607323.3184   -1960134.31045  -1430926.13061
  22447215.7874   -5173338.63146  -3972884.60562
  20602503.9434   -1458384.49647  -1117611.08464
  21665505.6074  -11186271.94147  -8633080.07362
  23549021.6544   -2748547.82044  -1993809.27961
 91  3 21 23 10 29.9980000  0  6G18G16G11G19G 2G 6
  21513744.0614    5570029.34647   4316887.41762
  23605500.1474   -1969718.08245  -1438394.02061
  22446805.5844   -5175501.60546  -3974570.03862
  20602621.2174   -1457769.06746  -1117131.53364
  21658706.6314  -11221998.82947  -8660919.11462
  23541909.5924   -2785929.76345  -2022937.91861
 91  3 21 23 10 44.9980000  0  6G18G16G11G19G 2G 6
  21520573.7014    5605922.98647   4344856.38862
  23603699.568    -1979171.242 5  -1445760.13021
  22446424.8734   -5177511.52647  -3976136.20262
  20602745.0374   -1457102.69446  -1116612.28064
  21651921.9284  -11257651.39447  -8688700.24362
  23534793.006    -2823309.425 5  -2052064.77821
 91  3 21 23 10 59.9980000  0  6G18G16G11G19G 2G 6
  21527421.0294    5641909.11447   4372897.43762
  23601928.5534   -1988488.55545  -1453020.38861
  22446070.5144   -5179363.19347  -3977579.05362
  20602889.8894   -1456380.35846  -1116049.42564
  21645154.4284  -11293224.63147  -8716419.55962
  23527680.3344   -2860681.86045  -2081186.00561
 91  3 21 23 11 14.9980000  0  6G18G16G11G19G 2G 6
  21534287.9434    5677990.10647   4401012.40262
  23600182.709    -1997667.325 5  -1460172.67621
  22445747.982    -5181053.892 6  -3978896.46222
  20603032.5454   -1455599.15747  -1115440.69864
  21638398.3034  -11328715.77647  -8744074.90462
  23520572.8974   -2898044.37645  -2110299.49961
 91  3 21 23 11 29.9980000  0  6G18G16G11G19G 2G 6
  21541171.0534    5714164.11947   4429199.85062
  23598461.084    -2006709.181 5  -1467218.30721
  22445458.100    -5182585.331 6  -3980089.77622
  20603194.8894   -1454760.75746  -1114787.39864
  21631660.8184  -11364126.45047  -8771667.54362
  23513465.4124   -2935398.55845  -2139406.49461
 91  3 21 23 11 44.9980000  0  6G18G16G11G19G 2G 6
  21548071.2404    5750429.15447   4457458.22262
  23596764.053    -2015615.557 5  -1474158.35221
  22445196.1864   -5183958.85646  -3981160.05162
  20603361.1004   -1453866.35447  -1114090.46664
  21624936.6154  -11399458.05647  -8799198.57562
  23506357.9594   -2972745.80245  -2168508.09261
 91  3 21 23 11 59.9980000  0  6G18G16G11G19G 2G 6
  21554990.1864    5786783.72447   4485786.36162
  23595097.0924   -2024388.13645  -1480994.13261
  22444963.3264   -5185175.87746  -3982108.36661
  20603544.8574   -1452917.17346  -1113350.84663
  21618229.2174  -11434711.82947  -8826668.95562
  23499250.475    -3010087.580 5  -2197605.45021
 91  3 21 23 12 14.9980000  0  6G18G16G11G19G 2G 6
  21561925.7794    5823228.63947   4514184.90362
  23593452.943    -2033026.170 5  -1487725.08321
  22444764.9594   -5186235.63146  -3982934.14762
  20603733.0144   -1451912.48647  -1112567.97664
  21611533.9434  -11469886.97547  -8854078.07362
  23492148.3034   -3047423.21045  -2226698.02661
 91  3 21 23 12 29.9980000  0  6G18G16G11G19G 2G 6
  21568877.8264    5859762.68547   4542652.88862
  23591833.303    -2041530.132 5  -1494351.56621
  22444590.2014   -5187138.71346  -3983637.84762
  20603937.2564   -1450852.72446  -1111742.19264
  21604856.7644  -11504984.05747  -8881426.35662
  23485043.4984   -3084753.24545  -2255786.19261
 91  3 21 23 12 44.9980000  0  6G18G16G11G19G 2G 6
  21575847.5064    5896386.61547   4571190.92162
  23590237.7564   -2049899.38445  -1500873.07461
  22444446.1784   -5187884.38146  -3984218.88862
  20604149.9984   -1449737.04547  -1110872.83664
  21598192.0764  -11540002.23947  -8908713.16762
  23477942.6934   -3122076.97045  -2284869.46261
 91  3 21 23 12 59.9980000  0  6G18G16G11G19G 2G 6
  21582833.154     5933097.344 7   4599796.58722
  23588674.537    -2058136.965 5  -1507291.99821
  22444335.1234   -5188475.42246  -3984679.43562
  20604375.0614   -1448568.26346  -1109962.10064
  21591543.0064  -11574944.36947  -8935940.71262
  23470838.3424   -3159397.07945  -2313949.90061
 91  3 21 23 13 14.9980000  0  6G18G16G11G19G 2G 6
  21589835.2724    5969893.02547   4628468.45162
  23587130.4434   -2066244.50045  -1513609.56461
  22444254.9904   -5188913.49346  -3985020.78662
  20604601.4674   -1447347.94746  -1109011.20764
  21584907.7484  -11609812.08547  -8963110.26962
  23463737.9044   -3196715.48745  -2343029.05561
 91  3 21 23 13 29.9980000  0  6G18G16G11G19G 2G 6
  21596854.3114    6006778.99447   4657210.66562
  23585613.857    -2074216.569 5  -1519821.60521
  22444198.7254   -5189193.12446  -3985238.67662
  20604848.3504   -1446070.56146  -1108015.84564
  21578288.5144  -11644599.76947  -8990217.46762
  23456636.6314   -3234026.60345  -2372102.52661
 91  3 21 23 13 44.9980000  0  6G18G16G11G19G 2G 6
  21603890.1394    6043750.92247   4686019.86462
  23584123.8184   -2082057.17345  -1525931.16361
  22444177.0144   -5189318.34946
  20605099.8814   -1444740.08647  -1106979.11364
  21571681.740   -11679311.565 7  -9017265.53322
  23449536.7254   -3271334.48045  -2401173.42061
 91  3 21 23 13 59.9980000  0  6G18G16G11G19G 2G 6
  21610942.7094    6080810.88047   4714897.65662
  23582654.0144   -2089764.35345  -1531936.78361
  22444181.8974   -5189287.19546
  20605365.9594   -1443354.33546  -1105899.31264
  21565091.3344  -11713945.39547  -9044252.84562
  23442440.3974   -3308637.15345  -2430240.30061
 91  3 21 23 14 14.9980000  0  6G18G16G11G19G 2G 6
  21618012.5374    6117961.58147   4743846.15962
  23581213.6544   -2097335.12945  -1537836.10261
  22444218.1704   -5189096.22946
  20605638.1864   -1441909.86347  -1104773.75464
  21558516.7254  -11748497.86447  -9071176.76162
  23435343.061    -3345931.327 5  -2459300.56421
 91  3 21 23 14 29.9980000  0  6G18G16G11G19G 2G 6
  21625098.022     6155201.866 7   4772864.46122
  23579798.8734   -2104770.40645  -1543629.82861
  22444287.5374   -5188746.51046
  20605923.5614   -1440407.59246  -1103603.16464
  21551956.8184  -11782969.88047  -9098037.98562
  23428246.311    -3383217.895 5  -2488354.87821
 91  3 21 23 14 44.9980000  0  6G18G16G11G19G 2G 6
  21632202.0614    6192525.79347   4801947.94262
  23578408.6864   -2112075.88245  -1549322.44961
  22444378.7794   -5188243.85446  -3984498.98662
  20606218.6544   -1438853.22347  -1102391.96764
  21545411.631   -11817367.374 7  -9124841.14422
  23421150.2874   -3420502.78745  -2517407.88661
 91  3 21 23 14 59.9980000  0  6G18G16G11G19G 2G 6
  21639321.787     6229938.017 7   4831100.22522
  23577045.3114   -2119246.56745  -1554909.98761
  22444506.5374   -5187583.24046  -3983984.22062
  20606528.8424   -1437241.58846  -1101136.15564
  21538880.240   -11851685.271 7  -9151582.27622
  23414054.201    -3457780.912 5  -2546455.61021
 91  3 21 23 15 14.9980000  0  6G18G16G11G19G 2G 6
  21646456.5454    6267433.41747   4860317.32062
  23575703.678    -2126287.634 5  -1560396.55521
  22444662.1624   -5186769.29247  -3983349.97562
  20606840.7724   -1435577.18747  -1099839.22664
  21532364.3894  -11885928.09347  -9178264.90962
  23406962.482    -3495056.859 5  -2575501.65621
 91  3 21 23 15 29.9980000  0  6G18G16G11G19G 2G 6
  21653608.4044    6305016.46047   4889602.70262
  23574390.7564   -2133194.68945  -1565778.71761
  22444844.9044   -5185797.94047  -3982593.07662
  20607173.4124   -1433855.85246  -1098497.93364
  21525862.764   -11920091.558 7  -9204885.71022
  23399870.217    -3532326.663 5  -2604542.91221
 91  3 21 23 15 44.9980000  0  6G18G16G11G19G 2G 6
  21660776.0294    6342687.79547   4918956.89662
  23573101.826    -2139966.848 5  -1571055.72521
  22445061.9674   -5184668.35047  -3981712.86762
  20607506.6544   -1432076.62846  -1097111.53164
  21519377.6474  -11954174.83447  -9231444.01962
  23392779.9904   -3569589.40445  -2633578.65561
 91  3 21 23 15 59.9980000  0  6G18G16G11G19G 2G 6
  21667960.522     6380437.194 7   4948371.90222
  23571836.4204   -2146614.46345  -1576235.71761
  22445303.3344   -5183390.36746  -3980717.03862
  20607857.9364   -1430249.23346  -1095687.59864
  21512905.482   -11988187.856 7  -9257947.58322
  23385688.2644   -3606854.94245  -2662616.57061
 91  3 21 23 16 14.9980000  0  6G18G16G11G19G 2G 6
  21675160.9904    6418274.12047   4977855.12562
  23570595.342    -2153127.547 5  -1581310.85821
  22445576.5454   -5181954.11446  -3979597.88162
  20608215.8504   -1428363.76346  -1094218.40964
  21506447.8504  -12022120.65947  -9284388.64162
  23378598.053    -3644113.550 5  -2691649.10021
 91  3 21 23 16 29.9980000  0  6G18G16G11G19G 2G 6
  21682376.154     6456195.134 7   5007403.86422
  23569381.3424   -2159509.03245  -1586283.46361
  22445879.8974   -5180362.81347  -3978357.89362
  20608588.1314   -1426423.27546  -1092706.34864
  21500004.6624  -12055976.58147  -9310769.79962
  23371508.514    -3681368.219 5  -2720678.55321
 91  3 21 23 16 44.9980000  0  6G18G16G11G19G 2G 6
  21689609.365     6494205.302 7   5037022.07122
  23568193.217    -2165753.840 5  -1591149.57321
  22446214.7644   -5178611.13646  -3976992.94862
  20608964.1314   -1424422.35746  -1091147.20264
  21493577.998   -12089749.940 7  -9337086.61322
  23364422.1864   -3718613.71045  -2749700.85461
 91  3 21 23 16 59.9980000  0  6G18G16G11G19G 2G 6
  21696858.295     6532300.598 7   5066706.61122
  23567031.0924   -2171866.28945  -1595912.55261
  22446578.4984   -5176703.37346  -3975506.38062
  20609357.8034   -1422365.10446  -1089544.15564
  21487166.178   -12123444.991 7  -9363342.41822
  23357333.4594   -3755854.17445  -2778719.26161
 91  3 21 23 17 14.9980000  0  6G18G16G11G19G 2G 6
  21704122.373     6570478.719 7   5096455.69522
  23565894.092    -2177848.244 5  -1600573.80721
  22446970.7564   -5174641.36246
  20609756.3894   -1420253.17446
  21480768.795   -12157063.556 7  -9389538.62022
  23350250.967    -3793091.441 5  -2807735.16721
 91  3 21 23 17 29.9980000  0  6G18G16G11G19G 2G 6
  21711406.045     6608743.164 7   5126272.04222
  23564781.6784   -2183696.05845  -1605130.57261
  22447392.4124   -5172421.35246  -3972169.74162
  20610172.6704   -1418082.79946  -1086207.31764
  21474386.967   -12190601.829 7  -9415672.25822
  23343163.404    -3830321.960 5  -2836745.80221
 91  3 21 23 17 44.9980000  0  6G18G16G11G19G 2G 6
  21718703.678     6647091.898 7   5156154.06822
  23563692.7404   -2189411.82745  -1609584.45161
  22447843.8894   -5170045.24446  -3970318.23062
  20610594.4044   -1415855.90847  -1084472.08764
  21468018.443   -12224061.861 7  -9441744.92722
  23336080.5684   -3867547.44445  -2865752.54461
 91  3 21 23 17 59.9980000  0  6G18G16G11G19G 2G 6
  21726016.397     6685524.462 7   5186101.41022
  23562630.3344   -2194995.63445  -1613935.46061
  22448324.7644   -5167513.02447  -3968345.07562
  20611032.1544   -1413572.35046  -1082692.69464
  21461667.014   -12257443.554 7  -9467756.55422
  23328996.7724   -3904768.05645  -2894755.46261
 91  3 21 23 18 14.9980000  0  6G18G16G11G19G 2G 6
  21733346.397     6724035.143 7   5216109.62522
  23561592.756    -2200452.917 5  -1618187.92121
  22448835.1934   -5164830.23746  -3966254.59062
  20611475.1394   -1411237.48547  -1080873.33064
  21455327.311   -12290752.389 7  -9493711.40522
  23321913.9514   -3941989.20945  -2923758.80861
 91  3 21 23 18 29.9980000  0  6G18G16G11G19G 2G 6
  21740689.865     6762632.528 7   5246185.40122
  23560578.365    -2205775.346 5  -1622335.28021
  22449376.8034   -5161988.52046  -3964040.26562
  20611931.6074   -1408842.66646  -1079007.24764
  21449005.514   -12323979.571 7  -9519602.63422
  23314832.3504   -3979202.39745  -2952755.93761
 91  3 21 23 18 44.9980000  0  6G18G16G11G19G 2G 6
  21748051.740     6801313.503 7   5276326.30722
  23559591.568    -2210965.783 5  -1626379.81421
  22449948.326    -5158990.527 6  -3961704.15722
  20612396.568    -1406390.564 7  -1077096.53024
  21442696.701   -12357127.915 7  -9545432.43122
  23307752.068    -4016410.376 5  -2981749.04021
 91  3 21 23 18 59.9980000  0  6G18G16G11G19G 2G 6
  21755428.092     6840077.798 7   5306532.14922
  23558629.357    -2216024.312 5  -1630321.53721
  22450545.6074   -5155836.23446  -3959246.25962
  20612881.0924   -1403881.03046  -1075141.05663
  21436404.522   -12390197.531 7  -9571200.88122
  23300670.092    -4053613.125 5  -3010738.04721
 91  3 21 23 19 14.9980000  0  6G18G16G11G19G 2G 6
  21762820.170     6878924.766 7   5336802.40822
  23557691.334    -2220951.250 5  -1634160.73821
  22451179.5614   -5152526.16447  -3956666.98362
  20613361.592    -1401314.339 7  -1073141.05223
  21430126.381   -12423188.671 7  -9596908.18022
  23293592.709    -4090811.001 5  -3039723.26821
 91  3 21 23 19 29.9980000  0  6G18G16G11G19G 2G 6
  21770227.654     6917852.377 7   5367135.50122
  23556780.139    -2225748.720 5  -1637899.04021
  22451834.8264   -5149062.20646  -3953967.79662
  20613864.2644   -1398692.37646  -1071097.97764
  21423862.717   -12456103.091 7  -9622555.70122
  23286516.350    -4128005.873 5  -3068706.15021
 91  3 21 23 19 44.9980000  0  6G18G16G11G19G 2G 6
  21777651.412     6956861.333 7   5397531.98122
  23555891.107    -2230415.705 5  -1641535.68021
  22452526.6934   -5145443.24247  -3951147.81662
  20614370.615    -1396013.904 7  -1069010.86523
  21417614.764   -12488939.841 7  -9648142.69222
  23279438.482    -4165196.670 5  -3097685.84621
 91  3 21 23 19 59.9980000  0  6G18G16G11G19G 2G 6
  21785089.826     6995952.099 7   5427992.21422
  23555025.9824   -2234951.78345  -1645070.28161
  22453243.2324   -5141668.73446  -3948206.63162
  20614896.1864   -1393278.14846  -1066879.11363
  21411380.084   -12521698.371 7  -9673668.73822
  23272362.1004   -4202382.83745  -3126661.93761
 91  3 21 23 20 14.9980000  0  6G18G16G11G19G 2G 6
  21792544.107     7035125.492 7   5458516.82022
  23554188.561    -2239355.954 5  -1648502.13921
  22453990.4204   -5137737.79946  -3945143.56462
  20615424.8734   -1390484.03147  -1064701.88963
  21405160.811   -12554377.735 7  -9699133.09122
  23265288.2404   -4239563.34645  -3155633.61261
 91  3 21 23 20 29.9980000  0  6G18G16G11G19G 2G 6
  21800012.248     7074374.991 7   5489100.73722
  23553373.904    -2243634.588 5  -1651836.15821
  22454767.3504   -5133657.07346  -3941963.76962
  20615967.7324   -1387638.00847  -1062484.21864
  21398955.443   -12586984.297 7  -9724540.72122
  23258211.686    -4276744.687 5  -3184605.95221
 91  3 21 23 20 44.9980000  0  6G18G16G11G19G 2G 6
  21807496.365     7113701.461 7   5519744.62722
  23552583.8504   -2247786.46745  -1655071.40861
  22455572.6784   -5129424.93847  -3938665.99762
  20616516.9594   -1384738.33247  -1060224.73864
  21392765.2794  -12619516.44647  -9749890.35762
  23251136.522    -4313925.403 5  -3213577.78221
 91  3 21 23 20 59.9980000  0  6G18G16G11G19G 2G 6
  21814996.545     7153104.039 7   5550447.82422
  23551817.7324   -2251812.45745  -1658208.58061
  22456407.1004   -5125042.24446  -3935250.90862
  20617080.8424   -1381785.78446  -1057924.05964
  21386588.818   -12651974.921 7  -9775182.59322
  23244060.170    -4351106.191 5  -3242549.69921
 91  3 21 23 21 14.9980000  0  6G18G16G11G19G 2G 6
  21822508.240     7192582.328 7   5581210.01722
  23551075.2484   -2255712.90645  -1661247.91661
  22457268.8734   -5120509.32546  -3931718.75862
  20617649.6004   -1378780.59547  -1055582.35863
  21380425.232   -12684359.810 7  -9800417.48622
  23236987.225    -4388287.300 5  -3271521.83121
 91  3 21 23 21 29.9980000  0  6G18G16G11G19G 2G 6
  21830035.522     7232141.383 7   5612035.14322
  23550359.1624   -2259482.80545  -1664185.51361
  22458162.4904   -5115821.17246  -3928065.65362
  20618235.9754   -1375717.25446  -1053195.34863
  21374279.592   -12716666.160 7  -9825591.18322
  23229908.443    -4425463.621 5  -3300490.26521
 91  3 21 23 21 44.9980000  0  6G18G16G11G19G 2G 6
  21837579.061     7271781.327 7   5642923.30222
  23549665.8114   -2263121.69345  -1667021.03661
  22459081.7404   -5110977.00946  -3924290.97862
  20618828.4904   -1372595.15947  -1050762.55263
  21368145.5684  -12748893.19847  -9850703.07362
  23222837.467    -4462634.468 5  -3329454.42421
 91  3 21 23 21 59.9980000  0  6G18G16G11G19G 2G 6
  21845137.670     7311496.492 7   5673870.06922
  23548997.7484   -2266634.94645  -1669758.67361
  22460032.9594   -5105982.34446  -3920399.02962
  20619435.0844   -1369419.58446  -1048288.08863
  21362026.256   -12781046.376 7  -9875757.41322
  23215763.686    -4499805.263 5  -3358418.52521
 91  3 21 23 22 14.9980000  0  6G18G16G11G19G 2G 6
  21852708.748     7351289.000 7   5704877.10721
  23548356.2794   -2270020.72245  -1672396.96161
  22461014.0454   -5100835.11146  -3916388.19662
  20620046.2404   -1366188.31747  -1045770.22663
  21355923.272   -12813123.321 7  -9900752.35122
  23208691.0454   -4536973.79945  -3387380.88561
 91  3 21 23 22 29.9980000  0  6G18G16G11G19G 2G 6
  21860295.154     7391157.143 7   5735943.08221
  23547733.115    -2273279.755 5  -1674936.50621
  22462023.6624   -5095536.23646  -3912259.20662
  20620674.1934   -1362902.17846  -1043209.60663
  21349833.584   -12845125.107 7  -9925688.72722
  23201616.5534   -4574140.98645  -3416342.20161
 91  3 21 23 22 44.9980000  0  6G18G16G11G19G 2G 6
  21867896.865     7431103.609 7   5767070.09421
  23547139.115    -2276409.611 5  -1677375.39721
  22463057.0224   -5090083.23446  -3908010.11562
  20621309.0684   -1359558.66747  -1040604.27864
  21343759.2484  -12877049.15947  -9950564.52362
  23194544.7794   -4611304.42145  -3445300.57261
 91  3 21 23 22 59.9980000  0  6G18G16G11G19G 2G 6
  21875512.639     7471121.210 7   5798252.52821
  23546563.795    -2279417.778 5  -1679719.44021
  22464126.5144   -5084483.16146  -3903646.42262
  20621956.1474   -1356164.46846  -1037959.45264
  21337697.451   -12908902.447 7  -9975385.19322
  23187471.9044   -4648471.01545  -3474261.40761
 91  3 21 23 23 14.9980000  0  6G18G16G11G19G 2G 6
  21883142.0224    7511216.47147   5829495.47162
  23546016.584    -2282297.338 5  -1681963.30321
  22465220.2644   -5078729.41846  -3899162.98962
  20622612.4754   -1352712.75547  -1035269.81364
  21331650.037   -12940678.298 7 -10000145.51622
  23180398.647    -4685634.028 5  -3503219.45421
 91  3 21 23 23 29.9980000  0  6G18G16G11G19G 2G 6
  21890787.295     7551389.038 7   5860798.65221
  23545494.6624   -2285048.24045  -1684106.89361
  22466346.2564   -5072821.99446  -3894559.80762
  20623282.6544   -1349203.49646  -1032535.33663
  21325617.990   -12972376.611 7 -10024845.42122
  23173330.529    -4722793.390 5  -3532174.66221
 91  3 21 23 23 44.9980000  0  6G18G16G11G19G 2G 6
  21898446.100     7591640.637 7   5892163.42221
  23544995.6394   -2287669.02445  -1686149.11961
  22467496.8184   -5066759.12546  -3889835.49562
  20623959.0684   -1345634.74347  -1029754.49763
  21319600.811   -13003995.416 7 -10049483.37422
  23166258.6784   -4759947.28745  -3561125.61761
 91  3 21 23 23 59.9980000  0  6G18G16G11G19G 2G 6
  21906121.873     7631969.379 7   5923588.30022
  23544522.2174   -2290161.16945  -1688091.08561
  22468680.8034   -5060542.40146  -3884991.29862
  20624651.9514   -1342007.94846  -1026928.42463
  21313598.904   -13035536.360 7 -10074060.65822
  23159187.904    -4797097.280 5  -3590073.51121
 91  3 21 23 24 14.9980000  0  6G18G16G11G19G 2G 6
  21913809.975     7672371.410 7   5955070.29422
  23544070.193    -2292528.828 5  -1689936.06321
  22469893.8574   -5054175.59446  -3880030.15362
  20625347.2874   -1338326.74247  -1024059.96163
  21307610.334   -13067003.117 7 -10098580.13422
  23152119.303    -4834247.019 5  -3619021.22221
 91  3 21 23 24 29.9980000  0  6G18G16G11G19G 2G 6
  21921513.170     7712855.103 7   5986615.91721
  23543644.9984   -2294763.03545  -1691677.03861
  22471134.8734   -5047650.25946  -3874945.48462
  20626063.0614   -1334582.40746  -1021142.30264
  21301638.482   -13098387.077 7 -10123035.09722
  23145052.6004   -4871387.96045  -3647962.06861
 91  3 21 23 24 44.9980000  0  6G18G16G11G19G 2G 6
  21929233.865     7753417.871 7   6018223.15521
  23543245.9984   -2296866.86345  -1693316.43561
  22472405.9364   -5040968.91346  -3869739.25062
  20626785.139    -1330777.272 7  -1018177.27323
  21295682.1864  -13129690.69547 -10147427.45062
  23137984.686    -4908522.482 5  -3676897.92921
 91  3 21 23 24 59.9980000  0  6G18G16G11G19G 2G 6
  21936965.639     7794052.044 7   6049886.03421
  23542869.2874   -2298847.78545  -1694860.05261
  22473704.5684   -5034139.10746  -3864417.32662
  20627522.2564   -1326918.69746  -1015170.59663
  21289738.670   -13160921.428 7 -10171763.01222
  23130917.8894   -4945658.10545  -3705834.64461
 91  3 21 23 25 14.9980000  0  6G18G16G11G19G 2G 6
  21944710.4594    7834753.62747   6081601.43962
  23542514.7094   -2300709.48245  -1696310.78161
  22475032.264    -5027164.423 6  -3858982.52122
  20628264.0374   -1323010.15947  -1012124.98563
  21283809.748   -13192082.682 7 -10196044.43622
  23123851.2874   -4982798.35245  -3734774.94261
 91  3 21 23 25 29.9980000  0  6G18G16G11G19G 2G 6
  21952471.389     7875532.935 7   6113377.41421
  23542183.811    -2302441.248 5  -1697660.25921
  22476388.8974   -5020034.29646  -3853426.58762
  20629023.1784   -1319040.83846  -1009032.01363
  21277894.920   -13223163.881 7 -10220263.47822
  23116784.1394   -5019932.62345  -3763710.59661
 91  3 21 23 25 44.9980000  0  6G18G16G11G19G 2G 6
  21960245.873     7916393.998 7   6145217.08321
  23541881.334    -2304038.801 5  -1698905.14621
  22477778.0064   -5012744.45346  -3847746.20362
  20629786.2404   -1315006.16447  -1005888.11763
  21271995.9824  -13254160.57847 -10244416.68062
  23109720.0224   -5057056.37445  -3792638.07061
 91  3 21 23 25 59.9980000  0  6G18G16G11G19G 2G 6
  21968033.826     7957320.969 7   6177108.11822
  23541599.420    -2305517.813 5  -1700057.67421
  22479193.2324   -5005310.55746  -3841953.56562
  20630564.9044   -1310921.78146  -1002705.48863
  21266110.350   -13285088.595 7 -10268516.36022
  23102654.959    -5094185.409 5  -3821569.64621
 91  3 21 23 26 14.9980000  0  6G18G16G11G19G 2G 6
  21975838.756     7998322.815 7   6209057.49422
  23541341.1474   -2306869.52745  -1701111.01761
  22480636.2724   -4997723.61647  -3836041.67262
  20631352.4984   -1306778.53547   -999476.99063
  21260239.8184  -13315938.76347 -10292555.38263
  23095588.568    -5131310.449 5  -3850498.11521
 91  3 21 23 26 29.9980000  0  6G18G16G11G19G 2G 6
  21983655.365     8039406.545 7   6241070.67921
  23541111.0844   -2308086.73545  -1702059.54161
  22482108.889    -4989976.497 6  -3830004.96622
  20632156.3424   -1302569.19146   -996196.99063
  21254385.701   -13346703.723 7 -10316528.00623
  23088526.3344   -5168424.47245  -3879417.98361
 91  3 21 23 26 44.9980000  0  6G18G16G11G19G 2G 6
  21991487.7324    8080567.22047   6273143.81761
  23540901.959    -2309174.590 5  -1702907.29621
  22483614.443    -4982074.175 6  -3823847.32922
  20632965.0144   -1298298.41447   -992869.11763
  21248547.0924  -13377388.37547 -10340438.05763
  23081464.2564   -5205532.22045  -3908332.99061
 91  3 21 23 26 59.9980000  0  6G18G16G11G19G 2G 6
  21999334.225     8121796.909 7   6305270.73021
  23540721.795    -2310140.562 5  -1703660.04021
  22485144.5144   -4974024.07846  -3817574.54162
  20633791.9434   -1293973.55546   -989499.10163
  21242720.5144  -13408000.25447 -10364291.39963
  23074405.5294   -5242641.08545  -3937248.83961
 91  3 21 23 27 14.9980000  0  6G18G16G11G19G 2G 6
  22007192.1234    8163093.96047   6337450.12361
  23540558.9124   -2310986.23245  -1704319.06661
  22486704.975    -4965827.801 6  -3811187.84122
  20634621.7324   -1289596.08347   -986088.09163
  21236908.8814  -13438540.68747 -10388089.07263
  23067342.6704   -5279752.53645  -3966166.70861
 91  3 21 23 27 29.9980000  0  6G18G16G11G19G 2G 6
  22015064.7874    8204463.63647   6369686.11961
  23540423.1624   -2311706.31045  -1704880.21961
  22488293.928    -4957479.968 6  -3804683.05122
  20635469.1074   -1285160.11746   -982631.49963
  21231112.4364  -13469003.91747 -10411826.58463
  23060278.0534   -5316860.98645  -3995082.26861
 91  3 21 23 27 44.9980000  0  6G18G16G11G19G 2G 6
  22022950.842     8245908.847 6   6401980.97521
  23540309.748    -2312297.688 5  -1705341.09421
  22489913.006    -4948977.548 6  -3798057.80922
  20636321.7254   -1280662.58747   -979126.93963
  21225330.1394  -13499387.06747 -10435501.70363
  23053219.9284   -5353963.32845  -4023993.05261
 91  3 21 23 27 59.9980000  0  6G18G16G11G19G 2G 6
  22030853.436     8287435.089 6   6434338.96521
  23540223.795    -2312754.821 5  -1705697.36321
  22491558.342    -4940314.736 6  -3791307.58622
  20637196.2644   -1276097.61046   -975569.82063
  21219565.8114  -13529684.39247 -10459109.94263
  23046161.670    -5391053.772 5  -4052894.56521
 91  3 21 23 28 14.9980000  0  6G18G16G11G19G 2G 6
  22038768.381     8329026.802 6   6466747.98621
  23540160.740    -2313093.315 5  -1705961.17021
  22493236.0684   -4931506.99246  -3784444.41562
  20638070.2794   -1271480.48247   -971972.05663
  21213811.8424  -13559911.32347 -10482663.32163
  23039103.3974   -5428147.71245  -4081798.79661
 91  3 21 23 28 29.9980000  0  6G18G16G11G19G 2G 6
  22046696.4904    8370688.10946   6499211.21861
  23540117.2724   -2313308.72245  -1706129.05861
  22494941.295    -4922549.960 6  -3777464.92822
  20638959.2794   -1266806.50546   -968330.00663
  21208074.7794  -13590063.31347 -10506158.31563
  23032042.647    -5465240.632 5  -4110702.23221
 91  3 21 23 28 44.9980000  0  6G18G16G11G19G 2G 6
  22054637.8814    8412417.43146   6531727.45561
  23540100.1624   -2313402.54345
  22496674.170    -4913445.195 6  -3770370.31822
  20639858.1864   -1262076.91047   -964644.61563
  21202350.8344  -13620141.52147 -10529595.81563
  23024986.857    -5502333.897 5  -4139605.92921
 91  3 21 23 28 59.9980000  0  6G18G16G11G19G 2G 6
  22062590.8974    8454213.37446   6564295.60361
  23540103.6074   -2313375.99845
  22498434.842    -4904194.093 6  -3763161.68822
  20640774.9124   -1257292.85946   -960916.78863
  21196640.4984  -13650147.35047 -10552976.91663
  23017927.397    -5539428.664 5  -4168510.80021
 91  3 21 23 29 14.9980000  0  6G18G16G11G19G 2G 6
  22070557.6314    8496077.64046   6596916.99061
  23540133.3344   -2313227.54345
  22500221.5534   -4894794.92146  -3755837.67162
  20641690.9984   -1252452.37447   -957144.98463
  21190944.9204  -13680078.90847 -10576300.14463
  23010870.4044   -5576523.09545  -4197415.42261
 91  3 21 23 29 29.9980000  0  6G18G16G11G19G 2G 6
  22078535.7324    8538003.77946   6629586.58861
  23540180.740    -2312963.266 5
  22502037.920    -4885253.607 6  -3748402.90022
  20642625.2014   -1247561.52446   -953333.93663
  21185262.4904  -13709941.99047 -10599570.01163
  23003807.818    -5613623.213 5  -4226324.47221
 91  3 21 23 29 44.9980000  0  6G18G16G11G19G 2G 6
  22086528.0614    8580001.92546   6662312.29461
  23540258.365    -2312572.590 5  -1705555.69721
  22503883.412    -4875559.541 6  -3740849.10122
  20643562.3894   -1242609.64547   -949475.33663
  21179595.3114  -13739726.06347 -10622778.32063
  22996748.0534   -5650718.20745  -4255229.51961
 91  3 21 23 29 59.9980000  0  6G18G16G11G19G 2G 6
  22094533.7324    8622073.03346   6695094.85361
  23540354.365    -2312054.960 5  -1705152.40821
  22505757.904    -4865711.971 6  -3733175.68922
  20644520.2564   -1237595.64246   -945568.32463
  21173941.8264  -13769430.30047 -10645924.41263
  22989690.272    -5687807.249 5  -4284129.93021
 91  3 21 23 30 14.9980000  0  6G18G16G11G19G 2G 6
  22102551.9674    8664208.47946   6727927.54161
  23540474.9904   -2311419.00545  -1704656.90261
  22507658.865    -4855719.532 6  -3725389.39722
  20645482.0844   -1232527.63647   -941619.23163
  21168302.1544  -13799062.95947 -10669014.73663
  22982632.0764   -5724898.79045  -4313032.30361
 91  3 21 23 30 29.9980000  0  6G18G16G11G19G 2G 6
  22110583.2724    8706417.05646   6760817.21961
  23540622.357    -2310655.696 5  -1704062.15821
  22509587.779    -4845573.395 6  -3717483.33322
  20646461.9204   -1227396.62346   -937621.04563
  21162679.3034  -13828615.24747 -10692042.43163
  22975575.0064   -5761983.86545  -4341929.62161
 91  3 21 23 30 44.9980000  0  6G18G16G11G19G 2G 6
  22118628.8894    8748694.08046   6793760.23261
  23540791.0454   -2309769.38245  -1703371.56461
  22511547.834    -4835277.797 6  -3709460.80722
  20647445.5614   -1222206.69947   -933576.95463
  21157070.2094  -13858091.32947 -10715010.74462
  22968518.014    -5799066.541 5  -4370825.07021
 91  3 21 23 30 59.9980000  0  6G18G16G11G19G 2G 6
  22126687.3264    8791036.62046   6826754.29461
  23540983.4364   -2308762.87345  -1702587.32361
  22513536.115    -4824835.473 6  -3701323.95422
  20648445.9824   -1216960.33746   -929488.88763
  21151473.8894  -13887493.75747 -10737921.66263
  22961462.1704   -5836149.41045  -4399720.66961
 91  3 21 23 31 14.9980000  0  6G18G16G11G19G 2G 6
  22134757.6704    8833450.32746   6859803.81761
  23541195.920    -2307631.010 5  -1701705.37721
  22515549.279    -4814241.074 6  -3693068.59522
  20649454.8344   -1211651.93247   -925352.47263
  21145895.2954  -13916817.11147 -10760770.96662
  22954405.8504   -5873226.98045  -4428612.15161
 91  3 21 23 31 29.9980000  0  6G18G16G11G19G 2G 6
  22142841.2404    8875926.81746   6892902.25961
  23541437.342    -2306381.613 5  -1700731.87621
  22517596.600    -4803502.483 6  -3684700.87722
  20650481.1074   -1206289.19846   -921173.72463
  21140328.4204  -13946069.20647 -10783564.74362
  22947350.998    -5910307.133 5  -4457505.63921
 91  3 21 23 31 44.9980000  0  6G18G16G11G19G 2G 6
  22150936.3574    8918473.33646   6926055.26661
  23541699.678    -2305007.361 5  -1699661.07621
  22519667.326    -4792612.431 6  -3676215.14622
  20651507.3894   -1200864.80347   -916946.93663
  21134776.3264  -13975242.60947 -10806297.20662
  22940296.772    -5947382.364 5  -4486395.28421
 91  3 21 23 31 59.9980000  0  6G18G16G11G19G 2G 6
  22159047.7564    8961087.72746   6959261.16961
  23541981.514    -2303510.117 5  -1698494.43521
  22521769.084    -4781572.807 6  -3667612.85522
  20652553.2014   -1195380.47846   -912673.44063
  21129239.5224  -14004339.15747 -10828969.77863
  22933240.3114   -5984454.48745  -4515282.51461
 91  3 21 23 32 14.9980000  0  6G18G16G11G19G 2G 6
  22167167.1544    9003764.71046   6992515.82561
  23542291.459    -2301895.295 5  -1697236.17921
  22523897.154    -4770388.769 6  -3658898.04022
  20653603.4984   -1189841.06847   -908357.02663
  21123716.2484  -14033363.89047 -10851586.38962
  22926186.279    -6021528.456 5  -4544171.17621
 91  3 21 23 32 29.9980000  0  6G18G16G11G19G 2G 6
  22175301.6074    9046510.81546   7025824.36061
  23542621.131    -2300156.581 5  -1695881.38321
  22526052.256    -4759053.909 6  -3650065.70422
  20654677.1074   -1184239.81146   -903992.41864
  21118207.8734  -14062310.12747 -10874141.83962
  22919131.498    -6058597.711 5  -4573056.16421
 91  3 21 23 32 44.9980000  0  6G18G16G11G19G 2G 6
  22183449.2014    9089322.71646   7059184.16561
  23542976.1544   -2298296.87345  -1694432.33061
  22528237.404    -4747571.260 6  -3641118.20322
  20655747.4364   -1178579.44446   -899581.74763
  21112714.3424  -14091180.75947 -10896638.37362
  22912077.1784   -6095665.10145  -4601939.68961
 91  3 21 23 32 59.9980000  0  6G18G16G11G19G 2G 6
  22191606.2954    9132196.10046   7092591.87761
  23543352.0844   -2296320.35345  -1692892.24561
  22530451.943    -4735944.859 6  -3632058.68722
  20656837.9204   -1172864.01646   -895128.17863
  21107234.5294  -14119979.81047 -10919079.13462
  22905023.272    -6132734.582 5  -4630824.84921
 91  3 21 23 33 14.9980000  0  6G18G16G11G19G 2G 6
  22199778.1234    9175127.12446   7126044.49261
  23543748.0224   -2294230.61345  -1691263.91761
  22532690.740    -4724178.303 6  -3622889.96922
  20657931.5684   -1167096.88446   -890634.31463
  21101767.1704  -14148710.76147 -10941466.82662
  22897966.7644   -6169809.64145  -4659714.35361
 91  3 21 23 33 29.9980000  0  6G18G16G11G19G 2G 6
  22207960.0374    9218125.26546   7159549.41361
  23544170.272    -2292018.511 5  -1689540.26221
  22534958.717    -4712262.352 6  -3613604.83722
  20659043.6704   -1161268.30046   -886092.57163
  21096314.5844  -14177364.07547 -10963794.02363
  22890912.568    -6206880.811 5  -4688600.84521
 91  3 21 23 33 44.9980000  0  6G18G16G11G19G 2G 6
  22216154.7014    9261185.63246   7193102.82061
  23544612.2724   -2289688.48945  -1687724.71661
  22537254.022    -4700201.569 6  -3604206.84622
  20660161.4594   -1155382.72246   -881506.41263
  21090875.7954  -14205944.19647 -10986064.18363
  22883858.748    -6243952.403 5  -4717487.66021
 91  3 21 23 33 59.9980000  0  6G18G16G11G19G 2G 6
  22224361.818     9304312.563 6   7226708.09521
  23545081.5534   -2287236.13145  -1685813.85261
  22539576.7644   -4687991.62046  -3594692.62462
  20661296.0224   -1149435.72646   -876872.39463
  21085451.6544  -14234446.86247 -11008273.98963
  22876803.5454   -6281020.06145  -4746371.39761
 91  3 21 23 34 14.9980000  0  6G18G16G11G19G 2G 6
  22232581.8034    9347507.81546   7260366.60561
  23545571.857    -2284659.696 5  -1683806.28921
  22541928.311    -4675630.561 6  -3585060.65822
  20662436.9904   -1143425.12746   -872188.82863
  21080043.1234  -14262869.87947 -11030421.73562
  22869751.029    -6318081.695 5  -4775250.45721
 91  3 21 23 34 29.9980000  0  6G18G16G11G19G 2G 6
  22240816.0844    9390778.90346   7294084.20661
  23546087.576    -2281951.455 5  -1681696.02921
  22544308.881    -4663110.614 6  -3575304.87822
  20663597.7644   -1137342.92446   -867449.45563
  21074650.1704  -14291205.56047 -11052501.42962
  22862700.295    -6355129.421 5  -4804118.66021
 91  3 21 23 34 44.9980000  0  6G18G16G11G19G 2G 6
  22249059.990     9434109.642 6   7327848.28921
  23546622.5844   -2279127.79645  -1679495.83261
  22546720.397    -4650447.991 6  -3565437.92022
  20664762.8814   -1131204.89046   -862666.58363
  21069272.3814  -14319469.88547 -11074525.51463
  22855651.3574   -6392179.21445  -4832988.47461
 91  3 21 23 34 59.9980000  0  6G18G16G11G19G 2G 6
  22257318.3344    9477502.53446   7361660.80661
  23547183.592    -2276186.294 5  -1677203.80921
  22549159.365    -4637640.148 6  -3555457.80722
  20665945.6154   -1125008.36346   -857838.12963
  21063908.1784  -14347659.95247 -11096491.73863
  22848602.818    -6429228.289 5  -4861857.74121
 91  3 21 23 35 14.9980000  0  6G18G16G11G19G 2G 6
  22265588.4594    9520959.58146   7395523.31661
  23547765.068    -2273124.473 5  -1674818.02021
  22551622.7564   -4624684.78446  -3545362.74661
  20667133.1314   -1118750.71347   -852962.04563
  21058557.3184  -14375773.48347 -11118398.32463
  22841552.2254   -6466274.27045  -4890724.57961
 91  3 21 23 35 29.9980000  0  6G18G16G11G19G 2G 6
  22273870.920     9564478.564 6   7429434.08121
  23548370.943    -2269944.520 5  -1672340.21421
  22554115.748    -4611584.049 6  -3535154.40722
  20668338.1474   -1112433.90746   -848039.86463
  21053222.7644  -14403812.54047 -11140246.87963
  22834502.4904   -6503319.11245  -4919590.54361
 91  3 21 23 35 44.9980000  0  6G18G16G11G19G 2G 6
  22282163.8424    9608060.82346   7463394.15761
  23548999.7324   -2266645.26845  -1669769.40661
  22556637.029    -4598336.638 6  -3524831.77622
  20669548.1544   -1106056.54647   -843070.49963
  21047900.5844  -14431775.65347 -11162036.25363
  22827453.0374   -6540361.33745  -4948454.47061
 91  3 21 23 35 59.9980000  0  6G18G16G11G19G 2G 6
  22290468.6864    9651705.41246   7497402.80361
  23549648.303    -2263227.188 5  -1667106.01221
  22559186.5224   -4584943.32046  -3514395.44862
  20670779.7014   -1099619.04346   -838054.26763
  21042593.8814  -14459663.32747 -11183766.84563
  22820403.686    -6577401.570 5  -4977316.84621
 91  3 21 23 36 14.9980000  0  6G18G16G11G19G 2G 6
  22298785.912     9695411.497 6   7531459.35821
  23550320.209    -2259691.143 5  -1664350.68221
  22561761.8114   -4571404.79646  -3503845.98461
  20672009.9434   -1093121.72947   -832991.43163
  21037301.2484  -14487476.17047 -11205439.13063
  22813354.6004   -6614440.12645  -5006177.90861
 91  3 21 23 36 29.9980000  0  6G18G16G11G19G 2G 6
  22307112.3654    9739173.35946   7565559.39561
  23551014.2954   -2256042.65745  -1661507.77061
  22564364.4984   -4557726.52246  -3493187.61861
  20673259.0144   -1086569.75446   -827886.00663
  21032022.1704  -14515219.57847 -11227057.30563
  22806306.154    -6651482.406 5  -5035041.87521
 91  3 21 23 36 44.9980000  0  6G18G16G11G19G 2G 6
  22315452.881     9782995.137 6   7599706.09621
  23551734.295    -2252277.822 5  -1658574.16321
  22566993.7794   -4543904.28746  -3482417.08062
  20674515.5684   -1079958.93047   -822734.72263
  21026756.4984  -14542889.18947 -11248617.98063
  22799257.459    -6688524.127 5  -5063905.42821
 91  3 21 23 36 59.9980000  0  6G18G16G11G19G 2G 6
  22323805.037     9826881.392 6   7633903.04621
  23552471.5844   -2248392.02445  -1655546.33561
  22569652.5144   -4529933.54146  -3471530.81361
  20675788.4984   -1073284.48046   -817533.85963
  21021505.7324  -14570480.25147 -11270117.44963
  22792211.3974   -6725560.50346  -5092764.78261
 91  3 21 23 37 14.9980000  0  6G18G16G11G19G 2G 6
  22332166.686     9870824.221 6   7668144.08021
  23553233.584    -2244392.981 5  -1652430.24921
  22572339.7324   -4515822.11946  -3460534.93161
  20677065.4984   -1066553.54347   -812288.98163
  21016268.2324  -14598000.48147 -11291561.72463
  22785162.162    -6762599.036 5  -5121625.84221
 91  3 21 23 37 29.9980000  0  6G18G16G11G19G 2G 6
  22340538.865     9914825.732 6   7702430.83421
  23554014.4754   -2240278.62045  -1649224.32761
  22575052.5764   -4501567.77546  -3449427.68562
  20678360.8114   -1059763.82146   -806998.29763
  21011045.9124  -14625447.54847 -11312948.99463
  22778115.279    -6799637.449 5  -5150486.80821
 91  3 21 23 37 44.9980000  0  6G18G16G11G19G 2G 6
  22348923.2874    9958887.01746   7736764.15661
  23554821.772    -2236047.514 5  -1645927.42821
  22577792.373    -4487169.144 6  -3438208.02522
  20679660.131    -1052913.851 7   -801660.67123
  21005836.936   -14652819.911 7 -11334278.05723
  22771065.568    -6836674.220 5  -5179346.51821
 91  3 21 23 37 59.9980000  0  6G18G16G11G19G 2G 6
  22357319.459    10003008.777 6   7771144.58321
  23555651.4824   -2231698.66145  -1642538.82061
  22580558.6864   -4472625.27646  -3426875.20561
  20680980.834    -1046002.379 6   -796275.13723
  21000642.7014  -14680116.42547 -11355548.03263
  22764018.279    -6873708.097 5  -5208203.97921
 91  3 21 23 38 14.9980000  0  6G18G16G11G19G 2G 6
  22365728.607    10047189.900 6   7805571.26521
  23556499.0454   -2227233.36145  -1639059.49361
  22583354.5064   -4457937.34146  -3415430.12261
  20682303.928    -1039030.218 7   -790842.30623
  20995463.0534  -14707338.07347 -11376759.67163
  22756971.3424   -6910740.08245  -5237059.97861
 91  3 21 23 38 29.9980000  0  6G18G16G11G19G 2G 6
  22374146.3974   10091422.90646   7840038.38561
  23557368.420    -2222659.006 5  -1635495.17821
  22586175.545    -4443112.752 6  -3403878.55521
  20683642.428    -1032004.662 6   -785367.86923
  20990295.428   -14734492.125 7 -11397918.63223
  22749923.1314   -6947777.36345  -5265920.09561
 91  3 21 23 38 44.9980000  0  6G18G16G11G19G 2G 6
  22382572.2014   10135708.79846   7874546.71761
  23558260.4984   -2217974.47445  -1631844.95961
  22589023.9044   -4428150.51046  -3392219.71561
  20684987.420    -1024924.489 7   -779850.86223
  20985140.693   -14761577.452 7 -11419024.02623
  22742874.0064   -6984818.79145  -5294783.42561
 91  3 21 23 38 59.9980000  0  6G18G16G11G19G 2G 6
  22391012.7794   10180056.32946   7909103.08861
  23559174.607    -2213171.134 5  -1628102.19121
  22591897.295    -4413041.541 6  -3380446.52721
  20686349.397    -1017780.225 6   -774283.91823
  20980002.326   -14788584.819 7 -11440068.67723
  22735825.186    -7021855.090 5  -5323642.76121
 91  3 21 23 39 14.9980000  0  6G18G16G11G19G 2G 6
  22399459.443    10224456.340 6   7943700.33121
  23560108.857    -2208257.928 5  -1624273.83721
  22594797.2954   -4397795.06346  -3368566.22961
  20687717.9514   -1010580.63746   -768673.87563
  20974874.9824  -14815523.37447 -11461059.72563
  22728776.772    -7058895.243 5  -5352505.13421
 91  3 21 23 39 29.9980000  0  6G18G16G11G19G 2G 6
  22407920.568    10268914.757 6   7978343.07721
  23561069.2954   -2203229.25545  -1620355.51961
  22597727.0294   -4382405.20246  -3356574.19861
  20689102.7174   -1003319.77946   -763016.09863
  20969763.5924  -14842387.09447 -11481992.46163
  22721728.990    -7095933.242 5  -5381365.82321
 91  3 21 23 39 44.9980000  0  6G18G16G11G19G 2G 6
  22416391.0764   10313426.33146   8013027.22861
  23562043.9904   -2198090.12745  -1616351.16661
  22600682.748    -4366877.047 6  -3344474.42121
  20690491.4904    -996002.49646   -757314.35963
  20964665.147   -14869180.888 7 -11502870.73123
  22714678.0064   -7132974.02245  -5410228.71261
 91  3 21 23 39 59.9980000  0  6G18G16G11G19G 2G 6
  22424873.342    10357997.679 6   8047757.99121
  23563048.107    -2192833.650 5  -1612255.30721
  22603665.1864   -4351203.74946  -3332261.51661
  20691899.873     -988621.741 6   -751563.13823
  20959580.8654  -14895897.75647 -11523689.01863
  22707633.350    -7170010.363 5  -5439088.08421
 91  3 21 23 40 14.9980000  0  6G18G16G11G19G 2G 6
  22433361.3504   10402618.99746   8082527.66361
  23564067.7324   -2187469.69645  -1608075.74061
  22606673.467    -4335395.080 6  -3319943.14821
  20693309.8424    -981186.97946   -745769.85063
  20954509.8504  -14922547.40047 -11544454.95463
  22700583.436    -7207051.993 5  -5467951.63021
 91  3 21 23 40 29.9980000  0  6G18G16G11G19G 2G 6
  22441866.404    10447299.143 6   8117343.20521
  23565108.8654   -2181989.11245  -1603805.24661
  22609708.975    -4319441.700 6  -3307511.99821
  20694740.920     -973688.651 6   -739927.01023
  20949452.865   -14949120.356 7 -11565161.11023
  22693536.670    -7244089.288 6  -5496811.74921
 91  3 21 23 40 44.9980000  0  6G18G16G11G19G 2G 6
  22450379.373    10492032.273 6   8152200.03421
  23566174.209    -2176397.935 5  -1599448.58321
  22612772.100    -4303349.742 6  -3294972.86021
  20696175.217     -966132.441 6   -734039.06923
  20944409.811   -14975622.405 7 -11585812.01623
  22686487.5844   -7281128.11845  -5525673.07261
 91  3 21 23 40 59.9980000  0  6G18G16G11G19G 2G 6
  22458902.7324   10536821.54746   8187100.60561
  23567261.436    -2170692.824 5  -1595003.13521
  22615861.678    -4287115.876 6  -3282323.14521
  20697627.670     -958515.027 6   -728103.43823
  20939381.193   -15002050.159 7 -11606405.02123
  22679438.615    -7318165.008 5  -5554532.88521
 91  3 21 23 41 14.9980000  0  6G18G16G11G19G 2G 6
  22467435.8574   10581666.72346   8222044.75161
  23568368.1864   -2164873.73745  -1590468.89461
  22618977.709    -4270740.075 6  -3269562.83421
  20699085.607     -950835.992 6   -722119.78823
  20934366.522   -15028403.535 7 -11626940.07623
  22672390.8424   -7355199.71445  -5583391.00061
 91  3 21 23 41 29.9980000  0  6G18G16G11G19G 2G 6
  22475984.084    10626572.427 6   8257036.04421
  23569494.451    -2158936.218 5  -1585842.35721
  22622121.240    -4254217.864 6  -3256688.43021
  20700564.967     -943090.343 6   -716084.23423
  20929364.490   -15054677.650 7 -11647413.36023
  22665344.686    -7392227.478 6  -5612243.69321
 91  3 21 23 41 44.9980000  0  6G18G16G11G19G 2G 6
  22484537.7014   10671533.92546   8292070.81861
  23570645.9594   -2152885.00945  -1581127.19361
  22625291.607    -4237553.905 6  -3243703.57421
  20702045.803     -935282.641 6   -710000.32523
  20924380.092   -15080877.129 7 -11667828.49723
  22658301.5064   -7429252.74846  -5641094.47261
 91  3 21 23 41 59.9980000  0  6G18G16G11G19G 2G 6
  22493103.0534   10716543.37446   8327142.96361
  23571816.561    -2146728.135 5  -1576329.71621
  22628488.709    -4220755.987 6  -3230614.34421
  20703545.115     -927420.418 6   -703873.93123
  20919407.084   -15107009.650 7 -11688191.44823
  22651253.459    -7466283.121 6  -5669949.18521
 91  3 21 23 42 14.9980000  0  6G18G16G11G19G 2G 6
  22501678.537    10761602.345 6   8362253.69221
  23573010.459    -2140463.347 5  -1571448.12321
  22631710.7644   -4203822.16846  -3217419.19561
  20705048.615     -919501.493 6   -697703.35223
  20914448.279   -15133073.097 7 -11708500.57723
  22644206.482    -7503316.357 6  -5698806.14421
 91  3 21 23 42 29.9980000  0  6G18G16G11G19G 2G 6
  22510263.6624   10806717.88846   8397408.51861
  23574225.248    -2134083.949 5  -1566477.25421
  22634960.6704   -4186745.69946  -3204112.89661
  20706571.3424    -911518.94546   -691483.19763
  20909501.795   -15159060.396 7 -11728750.36923
  22637159.154    -7540345.577 6  -5727659.97621
 91  3 21 23 42 44.9980000  0  6G18G16G11G19G 2G 6
  22518858.2324   10851881.94846   8432601.13161
  23575460.7484   -2127597.63245  -1561423.07261
  22638236.8654   -4169534.06646  -3190701.27361
  20708097.5144    -903480.02646   -685219.11663
  20904569.186   -15184979.246 7 -11748946.82823
  22630111.8814   -7577378.09346  -5756516.38961
 91  3 21 23 42 59.9980000  0  6G18G16G11G19G 2G 6
  22527461.9204   10897092.28346   8467829.80761
  23576714.7724   -2121006.90345  -1556287.52461
  22641536.897    -4152189.793 6  -3177186.29921
  20709640.4904    -895386.73246   -678912.66463
  20899649.897   -15210831.595 7 -11769091.46823
  22623064.1784   -7614416.02646  -5785377.03161
 91  3 21 23 43 14.9980000  0  6G18G16G11G19G 2G 6
  22536074.4514   10942354.99546   8503099.29561
  23577990.1864   -2114305.45745  -1551065.69661
  22644863.3974   -4134706.56946  -3163563.04361
  20711189.561     -887232.587 7   -672558.79323
  20894745.865   -15236611.102 7 -11789179.34323
  22616012.9824   -7651452.88445  -5814236.82761
 91  3 21 23 43 29.9980000  0  6G18G16G11G19G 2G 6
  22544698.0144   10987669.77146   8538409.36061
  23579285.1154   -2107493.38645  -1545757.66161
  22648217.897    -4117084.508 6  -3149831.61121
  20712755.553     -879017.319 6   -666157.30023
  20889852.779   -15262317.756 7 -11809210.45323
  22608969.373    -7688488.627 6  -5843095.75821
 91  3 21 23 43 44.9980000  0  6G18G16G11G19G 2G 6
  22553331.467    11033034.109 6   8573758.04221
  23580603.9754   -2100573.27345  -1540365.43761
  22651596.6934   -4099326.19346  -3135994.00261
  20714327.4674    -870743.05346   -659709.83363
  20884975.162   -15287954.032 7 -11829186.72123
  22601921.3114   -7725525.51646  -5871955.57661
 91  3 21 23 43 59.9980000  0  6G18G16G11G19G 2G 6
  22561974.3894   11078452.80146   8609149.07561
  23581940.1704   -2093540.24745  -1534885.24661
  22655002.6544   -4081426.73446  -3122046.41261
  20715921.2174    -862404.69446   -653212.41663
  20880110.201   -15313514.689 7 -11849104.06823
  22594873.9434   -7762558.43846  -5900812.30761
 91  3 21 23 44 14.9980000  0  6G18G16G11G19G 2G 6
  22570626.1474   11123927.76846   8644583.96461
  23583302.623    -2086392.493 5  -1529315.66021
  22658436.4124   -4063384.18246  -3107987.31561
  20717514.397     -854000.078 7   -646663.38123
  20875261.107   -15338997.750 7 -11868960.94523
  22587825.256    -7799585.181 6  -5929664.20421
 91  3 21 23 44 29.9980000  0  6G18G16G11G19G 2G 6
  22579289.803    11169451.400 6   8680056.75421
  23584682.1154   -2079137.66845  -1523662.63561
  22661896.4984   -4045206.23546  -3093822.72261
  20719126.1864    -845536.49846   -640068.39763
  20870425.326   -15364410.513 7 -11888763.04123
  22580782.1004   -7836613.22646  -5958517.13161
 91  3 21 23 44 44.9980000  0  6G18G16G11G19G 2G 6
  22587962.967    11215026.139 6   8715569.40221
  23586082.412    -2071773.012 5  -1517924.02421
  22665381.600    -4026890.099 6  -3079550.44921
  20720747.287     -837011.062 7   -633425.21323
  20865602.920   -15389750.097 7 -11908508.12023
  22573735.553    -7873639.479 6  -5987368.66221
 91  3 21 23 44 59.9980000  0  6G18G16G11G19G 2G 6
  22596644.943    11260647.968 6   8751118.71721
  23587504.631    -2064302.427 5  -1512102.86921
  22668892.1784   -4008439.55546  -3065173.43861
  20722385.6474    -828427.28246   -626736.56263
  20860794.389   -15415020.226 7 -11928199.07923
  22566690.7724   -7910667.60646  -6016221.63261
 91  3 21 23 45 14.9980000  0  6G18G16G11G19G 2G 6
  22605336.0294   11306325.20946   8786711.22461
  23588948.8814   -2056717.39645  -1506192.51961
  22672429.9594   -3989846.25846  -3050685.19261
  20724026.9434    -819776.46347   -619995.67463
  20856000.3504  -15440212.34047 -11947829.24063
  22559645.9904   -7947688.94946  -6045069.33661
 91  3 21 23 45 29.9980000  0  6G18G16G11G19G 2G 6
  22614039.4984   11352056.26446   8822345.66361
  23590415.4514   -2049019.81245  -1500194.49061
  22675996.0684   -3971111.83046  -3036086.97061
  20725686.443     -811059.932 6   -613203.58623
  20851221.232   -15465327.966 7 -11967399.80523
  22552600.162    -7984704.885 6  -6073912.83521
 91  3 21 23 45 44.9980000  0  6G18G16G11G19G 2G 6
  22622751.3504   11397840.02346   8858021.17461
  23591899.436    -2041210.946 5  -1494109.73121
  22679587.1704   -3952237.44546  -3021379.69561
  20727356.100     -802278.531 6   -606360.95323
  20846456.076   -15490368.108 7 -11986911.55423
  22545556.0454   -8021716.30646  -6102752.81261
 91  3 21 23 45 59.9980000  0  6G18G16G11G19G 2G 6
  22631472.670    11443666.851 6   8893730.23121
  23593407.232    -2033300.384 5  -1487945.72421
  22683204.443    -3933232.848 6  -3006570.96021
  20729040.592     -793441.596 6   -599475.03823
  20841704.131   -15515342.151 7 -12006371.79323
  22538513.803    -8058732.663 6  -6131596.61221
 91  3 21 23 46 14.9980000  0  6G18G16G11G19G 2G 6
  22640202.4204   11489541.70946   8929476.71961
  23594929.678    -2025282.902 5  -1481698.41121
  22686846.4044   -3914092.87946  -2991656.73561
  20730730.920     -784543.797 6   -592541.70423
  20836964.647   -15540244.941 7 -12025776.51323
  22531469.162    -8095748.585 6  -6160440.07721
 91  3 21 23 46 29.9980000  0  6G18G16G11G19G 2G 6
  22648940.404    11535465.696 6   8965261.51221
  23596478.6074   -2017157.10045  -1475366.69761
  22690513.2564   -3894816.04946  -2976635.86261
  20732439.131     -775583.300 6   -585559.51223
  20832239.818   -15565074.731 7 -12045124.35023
  22524426.334    -8132762.262 6  -6189281.80321
 91  3 21 23 46 44.9980000  0  6G18G16G11G19G 2G 6
  22657690.451    11581442.887 6   9001087.73421
  23598045.076    -2008919.082 5  -1468947.53221
  22694210.1154   -3875398.32546  -2961505.20562
  20734155.0614    -766555.91147   -578525.18963
  20827529.623   -15589827.377 7 -12064412.07123
  22517385.873    -8169769.575 6  -6218118.56221
 91  3 21 23 46 59.9980000  0  6G18G16G11G19G 2G 6
  22666448.522    11627465.369 6   9036949.26521
  23599632.4674   -2000577.06645  -1462447.32661
  22697930.8974   -3855847.79146  -2946271.05861
  20735886.2404    -757469.14546   -571444.60063
  20822831.436   -15614510.725 7 -12083645.79323
  22510341.8504   -8206778.26746  -6246956.40461
 91  3 21 23 47 14.9980000  0  6G18G16G11G19G 2G 6
  22675216.2724   11673536.79346   9072848.93761
  23601238.318    -1992126.879 5  -1455862.83421
  22701675.7254   -3836160.61346  -2930930.43761
  20737624.154     -748318.949 6   -564314.59123
  20818149.248   -15639120.717 7 -12102822.35623
  22503299.311    -8243784.171 6  -6275792.07221
 91  3 21 23 47 29.9980000  0  6G18G16G11G19G 2G 6
  22683992.3264   11719652.76646   9108783.29461
  23602870.6004   -1983572.91045  -1449197.51761
  22705447.0844   -3816341.09746  -2915486.69461
  20739380.037     -739109.411 6   -557138.34023
  20813478.9754  -15663661.57247 -12121945.04063
  22496256.232    -8280791.384 6  -6304628.75721
 91  3 21 23 47 44.9980000  0  6G18G16G11G19G 2G 6
  22692776.795    11765818.723 6   9144756.62721
  23604516.904    -1974909.711 5  -1442447.01321
  22709244.5764   -3796383.42846  -2899935.29261
  20741142.3034    -729834.54146   -549911.17563
  20808823.6864  -15688127.43047 -12141009.29363
  22489215.756    -8317793.963 6  -6333461.82421
 91  3 21 23 47 59.9980000  0  6G18G16G11G19G 2G 6
  22701572.6624   11812040.61046   9180773.53361
  23606187.4594   -1966131.35345  -1435606.83461
  22713070.8574   -3776281.82646  -2884271.74261
  20742922.9364    -720488.18446   -542628.31063
  20804183.482   -15712512.049 7 -12160010.23723
  22482175.381    -8354785.741 6  -6362286.48321
 91  3 21 23 48 14.9980000  0  6G18G16G11G19G 2G 6
  22710376.6544   11858306.16046   9216824.45461
  23607877.5844   -1957249.94945  -1428686.33361
  22716920.467    -3756048.630 6  -2868505.64621
  20744710.4984    -711082.33346   -535299.08363
  20799556.147   -15736827.632 7 -12178957.39123
  22475133.881    -8391778.663 6  -6391112.01721
 91  3 21 23 48 29.9980000  0  6G18G16G11G19G 2G 6
  22719187.9284   11904613.69246   9252908.09161
  23609587.850    -1948267.354 5  -1421686.98021
  22720797.3894   -3735685.39446  -2852638.22361
  20746515.2564    -701618.20246   -527924.45163
  20794941.6704  -15761075.59747 -12197851.85163
  22468096.818    -8428774.111 6  -6419939.53221
 91  3 21 23 48 44.9980000  0  6G18G16G11G19G 2G 6
  22728008.061    11950964.978 6   9289025.82321
  23611320.1704   -1939181.61145  -1414607.28961
  22724696.2404   -3715190.21946  -2836667.99461
  20748323.826     -692093.621 6   -520502.71123
  20790340.6624  -15785253.80547 -12216691.95663
  22461054.342    -8465769.892 6  -6448767.31221
 91  3 21 23 48 59.9980000  0  6G18G16G11G19G 2G 6
  22736838.6864   11997362.30646   9325179.43861
  23613067.0064   -1929990.05245  -1407445.10661
  22728622.3654   -3694560.72946  -2820593.10161
  20750151.9124    -682505.65646   -513031.58363
  20785753.350   -15809359.652 7 -12235475.67823
  22454015.842    -8502763.292 6  -6477593.23021
 91  3 21 23 49 14.9980000  0  6G18G16G11G19G 2G 6
  22745674.959    12043806.605 6   9361369.63121
  23614836.256    -1920692.057 5  -1400199.96721
  22732572.9984   -3673796.12246  -2804412.92461
  20751986.193     -672853.251 7   -505510.24223
  20781180.467   -15833392.221 7 -12254202.29523
  22446976.717    -8539753.321 6  -6506416.52421
 91  3 21 23 49 29.9980000  0  6G18G16G11G19G 2G 6
  22754522.264    12090293.960 6   9397593.40721
  23616622.9674   -1911291.62145  -1392875.02561
  22736550.2644   -3652900.31246  -2788130.50961
  20753836.467     -663140.364 6   -497941.77323
  20776619.5764  -15857355.29347 -12272874.76863
  22439937.443    -8576743.578 6  -6535239.98921
 91  3 21 23 49 44.9980000  0  6G18G16G11G19G 2G 6
  22763375.9124   12136826.37646   9433852.28461
  23618432.162    -1901786.591 5  -1385468.57921
  22740552.1934   -3631871.01746  -2771744.07861
  20755694.4824    -653364.32146   -490324.08863
  20772073.2954  -15881246.48047 -12291491.21563
  22432899.8574   -8613731.52146  -6564061.65261
 91  3 21 23 49 59.9980000  0  6G18G16G11G19G 2G 6
  22772242.2954   12183405.55646   9470147.59161
  23620261.154    -1892175.720 5  -1377979.67621
  22744580.0064   -3610706.70946  -2755252.44661
  20757568.1934    -643523.06446   -482655.58563
  20767540.4284  -15905063.92647 -12310050.21063
  22425862.647    -8650715.330 6  -6592880.09321
 91  3 21 23 50 14.9980000  0  6G18G16G11G19G 2G 6
  22781113.600    12230027.435 6   9506476.18621
  23622112.412    -1882462.388 5  -1370410.91321
  22748631.029    -3589411.062 6  -2738658.45821
  20759449.9434    -633620.09546   -474938.99463
  20763022.9594  -15928811.23947 -12328554.54763
  22418824.475    -8687698.400 6  -6621697.96821
 91  3 21 23 50 29.9980000  0  6G18G16G11G19G 2G 6
  22789994.9594   12276691.32846   9542837.51061
  23623982.1544   -1872647.40445  -1362762.96561
  22752709.3974   -3567984.73346  -2721962.65261
  20761350.6004    -623655.63746   -467174.49663
  20758516.389   -15952488.743 7 -12347004.50023
  22411786.811    -8724681.203 6  -6650515.62821
 91  3 21 23 50 44.9980000  0  6G18G16G11G19G 2G 6
  22798883.3894   12323397.55546   9579231.81661
  23625868.2404   -1862730.43845
  22756810.3504   -3546427.46146  -2705164.81761
  20763254.717     -613629.167 6
  20754024.6314  -15976095.99547 -12365399.70363
  22404749.092    -8761663.078 6  -6679332.56221
 91  3 21 23 50 59.9980000  0  6G18G16G11G19G 2G 6
  22807780.076    12370157.516 6   9615668.00321
  23627775.2874   -1852700.35845
  22760938.9514   -3524727.94346  -2688256.12761
  20765180.490     -603529.199 6   -451491.57923
  20749547.443   -15999621.432 7 -12383731.15623
  22397712.3264   -8798632.45446  -6708139.74761
 91  3 21 23 51 14.9980000  0  6G18G16G11G19G 2G 6
  22816688.9754   12416963.35846   9652139.92761
  23629703.5294   -1842564.71245
  22765094.1544   -3502893.79946  -2671242.54561
  20767111.982     -593362.916 6   -443569.81323
  20745084.240   -16023072.570 7 -12402004.71923
  22390679.982    -8835596.643 6  -6736942.90721
 91  3 21 23 51 29.9980000  0  5G18G11G19G 2G 6
  22825600.123    12463801.645 6   9688637.13921
  22769273.1234   -3480938.31446  -2654134.41461
  20769059.9514    -583143.27246   -435606.46463
  20740634.420   -16046462.634 7 -12420230.68823
  22383642.8894   -8872568.71846  -6765752.19661
 91  3 21 23 51 44.9980000  0  5G18G11G19G 2G 6
  22834519.014    12510676.608 6   9725162.92621
  22773474.7254   -3458857.47946  -2636928.60561
  20771011.842     -572865.858 6   -427598.10223
  20736195.287   -16069787.304 7 -12438405.70223
  22376609.0454   -8909544.25846  -6794564.20061
 91  3 21 23 51 59.9980000  0  5G18G11G19G 2G 6
  22843447.9594   12557589.38046   9761718.17761
  22777700.6394   -3436649.93946  -2619624.06761
  20772982.9044    -562528.94446   -419543.37163
  20731770.2014  -16093044.79147 -12456528.36263
  22369571.217    -8946521.524 6  -6823377.54021
 91  3 21 23 52 14.9980000  0  5G18G11G19G 2G 6
  22852382.9044   12604542.71446   9798305.04361
  22781951.6154   -3414312.91046  -2602218.62561
  20774958.264     -552129.570 7   -411439.97523
  20727357.1544  -16116232.42047 -12474596.59063
  22362534.9364   -8983497.52946  -6852189.89661
 91  3 21 23 52 29.9980000  0  5G18G11G19G 2G 6
  22861327.428    12651539.555 6   9834925.78321
  22786226.9284   -3391843.72546  -2584710.21461
  20776952.787     -541664.741 6   -403285.57623
  20722958.693   -16139347.213 7 -12492608.06423
  22355498.3974   -9020469.28246  -6880998.93261
 91  3 21 23 52 44.9980000  0  5G18G11G19G 2G 6
  22870278.8424   12698581.98646   9871582.08761
  22790528.647    -3369240.094 6  -2567097.04622
  20778954.311     -531131.866 7   -395078.15623
  20718574.334   -16162386.915 7 -12510561.02523
  22348463.5454   -9057434.26846  -6909802.71561
 91  3 21 23 52 59.9980000  0  5G18G11G19G 2G 6
  22879238.693    12745667.518 6   9908271.94621
  22794855.7644   -3346504.29246  -2549380.88061
  20780974.3734    -520532.80646   -386819.15963
  20714202.686   -16185353.444 7 -12528456.96923
  22341430.381    -9094394.438 6  -6938602.72221
 91  3 21 23 53 14.9980000  0  5G18G11G19G 2G 6
  22888205.857    12792789.709 6   9944990.37121
  22799205.725    -3323642.691 6  -2531566.69021
  20782999.764     -509873.640 7   -378513.32923
  20709845.584   -16208252.871 7 -12546300.62323
  22334397.9364   -9131355.73746  -6967403.62261
 91  3 21 23 53 29.9980000  0  5G18G11G19G 2G 6
  22897180.5844   12839951.28546   9981739.49661
  22803579.3114   -3300652.73346  -2513652.48061
  20785042.850     -499151.495 6   -370158.42323
  20705502.654   -16231082.367 7 -12564089.79323
  22327365.7404   -9168315.39146  -6996203.23761
 91  3 21 23 53 44.9980000  0  5G18G11G19G 2G 6
  22906161.232    12887149.782 6  10018517.39021
  22807979.0144   -3277536.84946  -2495640.14961
  20787091.779     -488368.444 6   -361756.06123
  20701170.5764  -16253844.24847 -12581826.26263
  22320332.2014   -9205275.58546  -7025003.26861
 91  3 21 23 53 59.9980000  0  5G18G11G19G 2G 6
  22915149.9904   12934382.55246  10055321.98261
  22812401.295    -3254297.372 6  -2477531.50821
  20789159.0144    -477526.49946   -353307.80063
  20696850.576   -16276540.735 7 -12599511.78523
  22313297.8264   -9242238.24946  -7053805.22661
 91  3 21 23 54 14.9980000  0  5G18G11G19G 2G 6
  22924143.8894   12981647.79046  10092151.88661
  22816847.6314   -3230936.14946  -2459327.99261
  20791229.232     -466627.176 7   -344814.83623
  20692543.443   -16299173.412 7 -12617147.58323
  22306264.397    -9279204.975 6  -7082610.34521
 91  3 21 23 54 29.9980000  0  5G18G11G19G 2G 6
  22933146.326    13028955.419 6  10129014.81521
  22821318.037    -3207443.243 6  -2441021.87621
  20793318.0454    -455660.22346   -336269.16663
  20688251.1544  -16321732.13647 -12634725.75363
  22299229.1934   -9316165.45746  -7111410.60461
 91  3 21 23 54 44.9980000  0  5G18G11G19G 2G 6
  22942156.834    13076301.164 6  10165907.44821
  22825812.2564   -3183822.98846  -2422616.51561
  20795414.920     -444629.613 7   -327673.89623
  20683971.498   -16344221.061 7 -12652249.54223
  22292196.2324   -9353123.77246  -7140209.16461
 91  3 21 23 54 59.9980000  0  5G18G11G19G 2G 6
  22951175.186    13123694.283 6  10202836.98921
  22830334.8034   -3160066.17246  -2404104.75661
  20797531.818     -433525.634 6   -319021.45623
  20679707.022   -16366630.664 7 -12669711.51523
  22285163.1394   -9390070.29546  -7168998.54861
 91  3 21 23 55 14.9980000  0  5G18G11G19G 2G 6
  22960200.467    13171121.955 6  10239793.44721
  22834880.076    -3136185.422 6  -2385496.42321
  20799653.303     -422360.793 7   -310321.59223
  20675455.865   -16388973.366 7 -12687121.36023
  22278133.3114   -9427017.40046  -7197788.37161
 91  3 21 23 55 29.9980000  0  5G18G11G19G 2G 6
  22969234.8814   13218589.01346  10276780.61561
  22839445.967    -3112175.957 6  -2366787.79821
  20801792.967     -411129.993 6   -301570.33523
  20671217.717   -16411244.180 7 -12704475.19423
  22271104.670    -9463959.884 6  -7226574.59621
 91  3 21 23 55 44.9980000  0  5G18G11G19G 2G 6
  22978273.467    13266087.567 5  10313792.31721
  22844038.8184   -3088045.58046  -2347984.94161
  20803938.061     -399840.635 7   -292773.44523
  20666991.561   -16433450.844 7 -12721779.03123
  22264074.9364   -9500905.32746  -7255363.12661
 91  3 21 23 55 59.9980000  0  5G18G11G19G 2G 6
  22987319.584    13313626.493 6  10350835.46021
  22848654.764    -3063785.657 6  -2329081.14721
  20806101.7874    -388483.63446   -283923.84363
  20662780.342   -16455584.202 7 -12739025.75423
  22257044.6004   -9537844.62846  -7284146.86661
 91  3 21 23 56 14.9980000  0  5G18G11G19G 2G 6
  22996373.2324   13361205.66346  10387909.98961
  22853296.162    -3039395.965 6  -2310076.24121
  20808273.537     -377058.500 7   -275021.15523
  20658582.522   -16477644.056 7 -12756215.19923
  22250016.732    -9574777.310 6  -7312925.44921
 91  3 21 23 56 29.9980000  0  5G18G11G19G 2G 6
  23005432.1154   13408821.27745  10425012.90761
  22857962.772    -3014880.468 6  -2290973.29821
  20810467.2014    -365569.00046   -266068.31163
  20654397.623   -16499634.110 7 -12773350.25723
  22242989.7174   -9611706.98546  -7341701.69561
 91  3 21 23 56 44.9980000  0  5G18G11G19G 2G 6
  23014501.568    13456467.268 6  10462139.47721
  22862650.209    -2990244.927 6  -2271776.81821
  20812658.8814    -354020.43647   -257069.43963
  20650224.904   -16521559.955 7 -12790435.28323
  22235960.8974   -9648639.18446  -7370479.90961
 91  3 21 23 56 59.9980000  0  5G18G11G19G 2G 6
  23023575.803    13504150.557 6  10499295.13121
  22867362.0534   -2965482.59746  -2252481.53861
  20814870.8264    -342405.62446   -248018.94663
  20646066.459   -16543414.476 7 -12807464.73323
  22228933.936    -9685566.732 6  -7399254.50121
 91  3 21 23 57 14.9980000  0  5G18G11G19G 2G 6
  23032656.2954   13551869.33545  10536478.44261
  22872097.772    -2940594.928 6  -2233088.59821
  20817090.318     -330725.862 6   -238917.84723
  20641921.936   -16565199.184 7 -12824439.78323
  22221907.7484   -9722490.91246  -7428026.47061
 91  3 21 23 57 29.9980000  0  5G18G11G19G 2G 6
  23041741.990    13599624.347 6  10573689.97321
  22876857.990    -2915581.626 6  -2213597.76321
  20819331.5684    -318980.45746   -229765.59663
  20637787.990   -16586913.578 7 -12841360.04123
  22214880.6394   -9759410.99546  -7456795.24361
 91  3 21 23 57 44.9980000  0  5G18G11G19G 2G 6
  23050837.6544   13647413.65546  10610928.24661
  22881641.826    -2890444.290 6  -2194010.26521
  20821572.8574    -307170.63946   -220563.14563
  20633668.803   -16608559.022 7 -12858226.56423
  22207855.4984   -9796328.17246  -7485561.74761
 91  3 21 23 57 59.9980000  0  5G18G11G19G 2G 6
  23059937.186    13695234.226 5  10648190.85921
  22886447.5374   -2865186.08546  -2174328.58761
  20823833.318     -295299.230 6   -211312.70923
  20629562.982   -16630138.352 7 -12875041.58123
  22200829.7094   -9833245.33246  -7514328.24561
 91  3 21 23 58 14.9980000  0  5G18G11G19G 2G 6
  23069043.7794   13743091.51046  10685482.08961
  22891278.115    -2839801.573 6  -2154548.49321
  20826103.4204    -283360.48246   -202009.79763
  20625470.131   -16651645.868 7 -12891800.63923
  22193805.8974   -9870156.64846  -7543090.18561
 91  3 21 23 58 29.9980000  0  5G18G11G19G 2G 6
  23078156.701    13790981.729 6  10722798.98321
  22896132.0924   -2814294.50246  -2134672.89161
  20828390.670     -271357.747 6   -192657.03223
  20621390.967   -16673085.193 7 -12908506.56023
  22186783.0144   -9907065.53146  -7571850.23161
 91  3 21 23 58 44.9980000  0  5G18G11G19G 2G 6
  23087277.998    13838907.840 6  10760143.84221
  22901009.0924   -2788661.95146  -2114699.51561
  20830683.951     -259287.724 6   -183251.83323
  20617323.818   -16694453.256 7 -12925156.95023
  22179761.6784   -9943968.71546  -7600605.83461
 91  3 21 23 58 59.9980000  0  5G18G11G19G 2G 6
  23096405.459    13886866.421 6  10797513.99421
  22905911.357    -2762907.070 6  -2094630.82521
  20832995.600     -247153.273 6   -173796.43323
  20613270.053   -16715752.780 7 -12941753.93623
  22172738.6474   -9980869.06646  -7629359.23961
 91  3 21 23 59 14.9980000  0  5G18G11G19G 2G 6
  23105537.7874   13934860.47046  10834911.79461
  22910836.053    -2737026.825 6  -2074464.44121
  20835315.389     -234950.899 6   -164288.09923
  20609230.857   -16736980.517 7 -12958294.98423
  22165717.5534  -10017763.10046  -7658107.70461
 91  3 21 23 59 29.9980000  0  5G18G11G19G 2G 6
  23114677.3184   13982891.10746  10872338.11561
  22915783.397    -2711020.362 6  -2054199.71421
  20837652.857     -222679.599 6   -154726.06323
  20605205.451   -16758135.432 8 -12974779.28423
  22158697.8344  -10054649.63046  -7686850.34161
 91  3 21 23 59 44.9980000  0  5G18G11G19G 2G 6
  23123824.1934   14030954.59446  10909790.00161
  22920756.412    -2684891.143 6  -2033839.33021
  20839998.373     -210342.529 6   -145112.77623
  20601192.779   -16779220.694 7 -12991209.31123
  22151678.3894  -10091531.85146  -7715589.61261
 91  3 21 23 59 59.9980000  0  5G18G11G19G 2G 6
  23132975.7254   14079051.97646  10947268.31761
  22925751.5534   -2658638.17946  -2013382.51161
  20842361.029     -197938.147 6   -135447.04023
  20597193.795   -16800235.099 7 -13007584.12123
  22144661.045   -10128408.324 6  -7744324.40421
 91  3 22  0  0 14.9980000  0  5G18G11G19G 2G 6
  23142134.068    14127181.465 6  10984771.65921
  22930771.100    -2632263.754 6  -1992831.05621
  20844733.139     -185468.385 6   -125730.35423
  20593207.389   -16821180.824 7 -13023905.41423
  22137645.342   -10165280.995 6  -7773056.22421
 91  3 22  0  0 29.9980000  0  5G18G11G19G 2G 6
  23151298.389    14175340.710 5  11022298.17421
  22935812.881    -2605769.828 6  -1972186.48721
  20847118.3814    -172934.99846   -115964.08963
  20589234.389   -16842059.748 7 -13040174.65323
  22130630.4044  -10202151.58146  -7801786.43261
 91  3 22  0  0 44.9980000  0  5G18G11G19G 2G 6
  23160468.0064   14223531.00945  11059848.89561
  22940877.240    -2579154.678 6  -1951447.45921
  20849514.756     -160335.855 6   -106146.58923
  20585275.107   -16862869.735 7 -13056390.17623
  22123611.498   -10239017.876 6  -7830513.29721
 91  3 22  0  0 59.9980000  0  5G18G11G19G 2G 6
  23169643.811    14271747.534 5  11097420.05421
  22945966.123    -2552423.616 6  -1930618.10321
  20851929.037     -147675.862 6    -96281.67123
  20581327.326   -16883615.828 7 -13072555.90723
  22116596.5064  -10275884.90246  -7859240.73661
 91  3 22  0  1 14.9980000  0  5G18G11G19G 2G 6
  23178825.6154   14319993.56745  11135014.19361
  22951074.475    -2525573.210 6  -1909695.75621
  20854347.264     -134951.368 6    -86366.49523
  20577391.287   -16904294.534 7 -13088669.13323
  22109583.139   -10312748.899 6  -7887965.80521
 91  3 22  0  1 29.9980000  0  5G18G11G19G 2G 6
  23188012.475    14368267.331 5  11172629.95221
  22956206.459    -2498605.083 6  -1888681.68021
  20856780.2404    -122163.61846    -76402.02863
  20573469.037   -16924907.278 7 -13104730.96023
  22102569.498   -10349611.080 6  -7916689.47621
 91  3 22  0  1 44.9980000  0  5G18G11G19G 2G 6
  23197203.678    14416565.937 5  11210265.05721
  22961360.178    -2471522.285 6  -1867578.24521
  20859224.748     -109315.107 6    -66390.21423
  20569559.076   -16945456.804 7 -13120743.53123
  22095553.6704  -10386474.03046  -7945413.72861
 91  3 22  0  1 59.9980000  0  5G18G11G19G 2G 6
  23206400.0534   14464893.98845  11247923.11761
  22966537.451    -2444320.146 6  -1846381.81821
  20861683.5454     -96400.93746    -56327.23063
  20565661.295   -16965938.375 7 -13136703.14723
  22088541.100   -10423332.874 6  -7974134.79121
 91  3 22  0  2 14.9980000  0  5G18G11G19G 2G 6
  23215602.2174   14513241.12345  11285596.03861
  22971733.131    -2417009.028 6  -1825100.47721
  20864149.0064     -83430.93646    -46220.74463
  20561775.076   -16986361.741 7 -13152617.41023
  22081523.5924  -10460197.42646  -8002860.29661
 91  3 22  0  2 29.9980000  0  5G18G11G19G 2G 6
  23224806.3344   14561613.46645  11323288.62161
  22976951.607    -2389582.692 6  -1803729.35421
  20866631.7324     -70398.74646    -36065.80663
  20557900.811   -17006720.731 7 -13168481.50623
  22074509.4824  -10497061.23946  -8031585.22661
 91  3 22  0  2 44.9980000  0  5G18G11G19G 2G 6
  23234016.506    14610013.621 5  11361002.87021
  22982194.928    -2362038.746 6  -1782266.58721
  20869121.334      -57301.546 6    -25860.21123
  20554039.506   -17027012.601 7 -13184293.30623
  22067494.139   -10533921.442 6  -8060307.34721
 91  3 22  0  2 59.9980000  0  5G18G11G19G 2G 6
  23243232.6074   14658443.43445  11398740.20161
  22987457.975    -2334375.280 6  -1760710.69321
  20871630.748      -44137.099 6    -15602.20523
  20550191.029   -17047235.364 8 -13200051.25523
  22060481.8114  -10570775.81246  -8089024.92061
 91  3 22  0  3 14.9980000  0  5G18G11G19G 2G 6
  23252454.5924   14706907.04645  11436503.89861
  22992747.436    -2306588.065 6  -1739058.36121
  20874146.5224     -30900.69546     -5288.14363
  20546356.709   -17067384.357 7 -13215751.71723
  22053470.8114  -10607619.71446  -8117734.33961
 91  3 22  0  3 29.9980000  0  5G18G11G19G 2G 6
  23261682.8574   14755400.63245  11474290.93861
  22998057.404    -2278681.105 6  -1717312.72221
  20876680.5764     -17596.04546      5079.10663
  20542535.326   -17087463.521 8 -13231397.76823
  22046460.5064  -10644456.79346  -8146438.43661
 91  3 22  0  3 44.9980000  0  5G18G11G19G 2G 6
  23270916.068    14803917.959 5  11512096.47421
  23003388.303    -2250660.667 6  -1695478.67221
  20879221.334       -4229.234 6     15494.78923
  20538727.162   -17107478.720 8 -13246993.97523
  22039449.670   -10681292.937 6  -8175141.81721
 91  3 22  0  3 59.9980000  0  5G18G11G19G 2G 6
  23280154.350    14852462.888 5  11549923.51821
  23008743.334    -2222522.550 6  -1673552.91421
  20881780.459        9204.553 6     25962.65723
  20534930.975   -17127425.629 8 -13262536.97023
  22032441.834   -10718123.615 6  -8203840.94021
 91  3 22  0  4 14.9980000  0  5G18G11G19G 2G 6
  23289399.0924   14901038.65045  11587774.59761
  23014120.772    -2194263.832 6  -1651533.18421
  20884348.342       22708.526 6     36485.21923
  20531149.248   -17147301.165 8 -13278024.35523
  22025434.303   -10754945.395 6  -8232533.11721
 91  3 22  0  4 29.9980000  0  5G18G11G19G 2G 6
  23298647.279    14949638.870 5  11625644.73421
  23019517.811    -2165890.537 6  -1629424.16821
  20886931.264       36277.017 6     47058.04823
  20527379.881   -17167111.075 8 -13293460.60023
  22018429.232   -10791764.043 6  -8261222.87021
 91  3 22  0  4 44.9980000  0  5G18G11G19G 2G 6
  23307897.506    14998263.596 5  11663533.95821
  23024940.928    -2137402.870 6  -1607226.04221
  20889523.654       49910.230 6     57681.31623
  20523622.279   -17186855.149 8 -13308845.54223
  22011422.5844  -10828579.35946  -8289910.00861
 91  3 22  0  4 59.9980000  0  5G18G11G19G 2G 6
  23317155.647    15046913.891 5  11701443.11421
  23030384.404    -2108799.473 6  -1584937.72421
  20892132.701       63609.730 6     68356.23323
  20519876.990   -17206531.926 8 -13324178.04623
  22004418.670   -10865389.517 6  -8318593.13921
 91  3 22  0  5 14.9980000  0  5G18G11G19G 2G 6
  23326420.506    15095589.649 5  11739372.11121
  23035847.772    -2080080.873 6  -1562559.64821
  20894751.3734      77375.24746     79082.60163
  20516146.131   -17226141.788 8 -13339458.40823
  21997413.412   -10902194.803 6  -8347272.47621
 91  3 22  0  5 29.9980000  0  5G18G11G19G 2G 6
  23335687.2404   15144293.37845  11777322.88261
  23041334.670    -2051244.214 6  -1540089.58221
  20897385.5454      91210.03246     89862.94763
  20512427.389   -17245681.752 8 -13354684.30323
  21990410.006   -10938992.005 6  -8375945.51021
 91  3 22  0  5 44.9980000  0  5G18G11G19G 2G 6
  23344961.818    15193024.551 5  11815295.06221
  23046845.897    -2022290.423 6  -1517528.23721
  20900029.615      105113.710 6    100696.96523
  20508722.670   -17265152.212 8 -13369856.04023
  21983409.334   -10975781.438 6  -8404612.49021
 91  3 22  0  5 59.9980000  0  5G18G11G19G 2G 6
  23354238.342    15241776.061 5  11853283.08221
  23052377.443    -1993226.502 6  -1494881.08421
  20902687.225      119079.632 6    111579.48123
  20505029.006   -17284560.026 8 -13384978.96023
  21976409.678   -11012569.735 6  -8433278.58021
 91  3 22  0  6 14.9980000  0  5G18G11G19G 2G 6
  23363521.1314   15290550.10545  11891288.64761
  23057927.889    -1964050.193 6  -1472146.34421
  20905357.240      133110.434 6    122512.55323
  20501348.584   -17303902.734 8 -13400051.14923
  21969409.725   -11049354.396 6  -8461941.84521
 91  3 22  0  6 29.9980000  0  5G18G11G19G 2G 6
  23372806.639    15339353.746 5  11929317.29121
  23063502.1314   -1934754.35846  -1449318.48761
  20908044.107      147213.648 6    133502.04223
  20497681.326   -17323172.967 8 -13415066.86223
  21962411.389   -11086127.849 6  -8490596.37221
 91  3 22  0  6 44.9980000  0  5G18G11G19G 2G 6
  23382099.490    15388182.972 5  11967365.86821
  23069100.568    -1905342.947 6  -1426400.55421
  20910737.459      161385.464 6    144544.99623
  20494026.881   -17342374.574 8 -13430029.10023
  21955415.3974  -11122893.66246  -8519244.93761
 91  3 22  0  6 59.9980000  0  5G18G11G19G 2G 6
  23391395.3574   15437037.23745  12005433.96861
  23074718.6704   -1875816.49446  -1403392.98861
  20913448.045      175625.920 6    155641.43523
  20490386.475   -17361507.831 8 -13444938.08023
  21948419.506   -11159651.936 6  -8547887.63621
 91  3 22  0  7 14.9980000  0  5G18G11G19G 2G 6
  23400697.842    15485917.902 5  12043522.61421
  23080359.928    -1846173.882 6  -1380294.89121
  20916170.412      189936.623 6    166792.61423
  20486759.045   -17380571.235 8 -13459792.63123
  21941427.717   -11196401.119 6  -8576523.24621
 91  3 22  0  7 29.9980000  0  5G18G11G19G 2G 6
  23410004.576    15534822.302 5  12081629.76821
  23086023.3264   -1816417.67246  -1357108.30161
  20918908.193      204315.129 6    177996.63323
  20483143.811   -17399567.011 8 -13474594.48623
  21934434.568   -11233143.441 6  -8605153.51821
 91  3 22  0  7 44.9980000  0  5G18G11G19G 2G 6
  23419314.5534   15583746.48745  12119752.34361
  23091705.967    -1786552.037 6  -1333836.42421
  20921654.256      218757.810 6    189250.65523
  20479540.350   -17418499.033 8 -13489346.66323
  21927443.662   -11269882.601 6  -8633781.32921
 91  3 22  0  7 59.9980000  0  5G18G11G19G 2G 6
  23428627.639    15632693.087 5  12157892.38721
  23097410.2404   -1756574.25046  -1310477.16861
  20924417.318      233267.851 6    200557.16523
  20475951.545   -17437364.508 8 -13504046.98923
  21920452.4594  -11306615.45946  -8662404.23561
 91  3 22  0  8 14.9980000  0  5G18G11G19G 2G 6
  23437947.553    15681669.311 5  12196055.51521
  23103137.529    -1726477.001 6  -1287024.82121
  20927191.350      247852.732 6    211921.99623
  20472375.092   -17456155.918 8 -13518689.59723
  21913467.037   -11343334.368 6  -8691016.26421
 91  3 22  0  8 29.9980000  0  5G18G11G19G 2G 6
  23447272.357    15730664.955 6  12234233.78321
  23108886.350    -1696270.571 6  -1263487.39021
  20929980.5064     262502.49546    223337.38663
  20468810.686   -17474883.304 8 -13533282.31523
  21906480.545   -11380049.245 6  -8719625.15921
 91  3 22  0  8 44.9980000  0  5G18G11G19G 2G 6
  23456600.045    15779682.506 5  12272429.09921
  23114653.998    -1665952.296 6  -1239862.80921
  20932781.1394     277220.29546    234805.79463
  20465260.967   -17493543.615 8 -13547822.76723
  21899493.670   -11416756.968 6  -8748228.47821
 91  3 22  0  8 59.9980000  0  5G18G11G19G 2G 6
  23465931.3114   15828719.14045  12310639.31961
  23120445.4514   -1635525.07846  -1216153.34261
  20935598.920      292003.402 6    246325.08123
  20461722.334   -17512139.482 8 -13562313.00723
  21892509.443   -11453459.884 6  -8776828.04321
 91  3 22  0  9 14.9980000  0  5G18G11G19G 2G 6
  23475265.857    15877768.334 5  12348859.31921
  23126256.467    -1604995.752 6  -1192364.31121
  20938418.045      306845.623 6    257890.43223
  20458193.717   -17530677.613 8 -13576758.25723
  21885525.0614  -11490164.41446  -8805428.88161
 91  3 22  0  9 29.9980000  0  5G18G11G19G 2G 6
  23484603.967    15926843.997 5  12387099.94321
  23132085.873    -1574350.289 6  -1168484.77921
  20941257.295      321761.243 6    269512.97723
  20454679.811   -17549143.648 8 -13591147.32823
  21878543.850   -11526856.199 6  -8834019.78221
 91  3 22  0  9 44.9980000  0  5G18G11G19G 2G 6
  23493948.600    15975946.377 5  12425361.34321
  23137939.8974   -1543588.48346  -1144514.59261
  20944107.545      336750.643 6    281193.01223
  20451179.600   -17567537.080 8 -13605479.82823
  21871563.193   -11563534.689 6  -8862600.31121
 91  3 22  0  9 59.9980000  0  5G18G11G19G 2G 6
  23503296.5064   16025068.61845  12463638.24261
  23143814.764    -1512717.020 6  -1120458.97121
  20946976.9514     351807.68346    292925.75963
  20447692.178   -17585864.520 8 -13619760.90423
  21864586.115   -11600206.068 6  -8891175.30221
 91  3 22  0 10 14.9980000  0  5G18G11G19G 2G 6
  23512647.3344   16074209.86545  12501929.94161
  23149711.350    -1481736.896 6  -1096318.66821
  20949852.350      366931.734 6    304710.72023
  20444217.131   -17604126.645 8 -13633991.08723
  21857608.490   -11636871.007 6  -8919745.26721
 91  3 22  0 10 29.9970000  0  5G18G11G19G 2G 6
  23522002.517    16123374.392 5  12540239.80221
  23155627.243    -1450642.662 6  -1072089.44221
  20952744.532      382129.731 6    316553.30023
  20440755.728   -17622314.618 8 -13648163.48923
  21850634.173   -11673519.082 6  -8948302.09921
 91  3 22  0 10 44.9970000  0  5G18G11G19G 2G 6
  23531360.2984   16172551.61745  12578559.54661
  23161564.2904   -1419447.18546  -1047781.33361
  20955646.689      397387.056 6    328442.11223
  20437305.165   -17640447.378 8 -13662292.87123
  21843659.1964  -11710171.75446  -8976862.52461
 91  3 22  0 10 59.9970000  0  5G18G11G19G 2G 6
  23540724.282    16221746.781 5  12616893.26721
  23167522.3994   -1388144.42946  -1023389.62661
  20958564.149      412711.224 6    340383.00623
  20433866.9624  -17658515.57648 -13676371.94763
  21836685.579   -11746818.017 6  -9005417.94921
 91  3 22  0 11 14.9970000  0  5G18G11G19G 2G 6
  23550088.103    16270970.316 5  12655249.06221
  23173499.360    -1356723.636 6   -998905.94321
  20961494.368      428113.233 6    352384.55723
  20430443.2984  -17676508.32948 -13690392.23363
  21829715.196   -11783446.794 6  -9033959.74421
 91  3 22  0 11 29.9970000  0  5G18G11G19G 2G 6
  23559461.251    16320218.979 5  12693624.48421
  23179500.689    -1325187.929 6   -974332.71521
  20964440.9234     443590.46246    364444.72863
  20427033.3534  -17694428.38348 -13704355.87563
  21822747.798   -11820060.737 6  -9062489.97921
 91  3 22  0 11 44.9970000  0  5G18G11G19G 2G 6
  23568836.6654   16369477.04145  12732007.22361
  23185520.4464   -1293553.44046   -949682.52761
  20967396.001      459127.118 6    376551.20323
  20423633.5954  -17712291.42048 -13718275.08563
  21815779.6814  -11856675.62246  -9091020.96561
 91  3 22  0 11 59.9970000  0  5G18G11G19G 2G 6
  23578211.634    16418747.426 5  12770399.54921
  23191560.126    -1261816.993 6   -924952.88421
  20970365.267      474726.754 6    388706.74723
  20420245.5244  -17730094.22748 -13732147.36463
  21808811.6264  -11893287.77946  -9119549.81961
 91  3 22  0 12 14.9970000  0  5G18G11G19G 2G 6
  23587589.0954   16468028.21445  12808799.98061
  23197618.853    -1229980.783 6   -900145.49721
  20973344.1494     490387.46446    400909.88963
  20416868.587   -17747838.560 8 -13745974.07423
  21801845.0014  -11929898.95546  -9148077.90461
 91  3 22  0 12 29.9970000  0  5G18G11G19G 2G 6
  23596970.0014   16517316.65045  12847206.37461
  23203694.884    -1198047.559 6   -875262.53221
  20976337.689      506106.770 6    413158.68723
  20413503.392   -17765527.043 8 -13759757.26023
  21794877.8214  -11966511.53046  -9176607.08761
 91  3 22  0 12 44.9970000  0  5G18G11G19G 2G 6
  23606353.017    16566622.065 5  12885625.99321
  23209792.157    -1166007.865 6   -850296.59121
  20979340.5644     521894.61346    425460.89363
  20410149.6574  -17783149.73248 -13773489.18863
  21787911.899   -12003115.466 6  -9205129.53421
 91  3 22  0 12 59.9970000  0  5G18G11G19G 2G 6
  23615738.8534   16615952.08445  12924064.81361
  23215911.5874   -1133854.44146   -825242.02761
  20982360.353      537758.747 6    437822.53623
  20406810.860   -17800699.198 8 -13787164.05123
  21780949.3844  -12039703.10646  -9233639.28261
 91  3 22  0 13 14.9970000  0  5G18G11G19G 2G 6
  23625127.767    16665296.320 5  12962514.69521
  23222049.118    -1101597.477 6   -800106.78621
  20985390.751      553689.555 6    450236.13723
  20403482.9854  -17818185.60248 -13800789.78163
  21773989.134   -12076284.163 6  -9262143.89621
 91  3 22  0 13 29.9970000  0  5G18G11G19G 2G 6
  23634519.345    16714650.770 5  13000972.56321
  23228206.595    -1069240.881 6   -774893.89921
  20988437.587      569683.343 6    462698.80623
  20400166.946   -17835612.658 8 -13814369.26523
  21767028.0714  -12112862.23046  -9290646.19161
 91  3 22  0 13 44.9970000  0  5G18G11G19G 2G 6
  23643915.306    16764021.379 5  13039442.98221
  23234384.3454   -1036778.63946   -749598.70761
  20991491.392      585746.346 6    475215.41123
  20396861.6734  -17852973.96548 -13827897.52163
  21760070.431   -12149430.925 6  -9319141.17121
 91  3 22  0 13 59.9970000  0  5G18G11G19G 2G 6
  23653311.9934   16813405.31545  13077923.80861
  23240580.884    -1004213.690 6   -724223.47421
  20994562.095      601876.045 6    487783.98423
  20393571.0794  -17870272.33548 -13841376.73263
  21753113.009   -12185992.712 6  -9347630.77621
 91  3 22  0 14 14.9970000  0  5G18G11G19G 2G 6
  23662715.3454   16862805.22945  13116417.07761
  23246797.243     -971543.756 6   -698766.44221
  20997642.149      618075.118 6    500406.61623
  20390291.5174  -17887504.93548 -13854804.69563
  21746156.618   -12222544.719 6  -9376112.75821
 91  3 22  0 14 29.9970000  0  5G18G11G19G 2G 6
  23672122.0484   16912227.28745  13154927.60561
  23253035.7674    -938762.52646   -673222.68861
  21000742.001      634350.277 6    513088.54023
  20387025.9464  -17904665.25548 -13868176.34063
  21739202.970   -12259080.312 6  -9404581.94021
 91  3 22  0 14 44.9970000  0  5G18G11G19G 2G 6
  23681524.899    16961651.585 5  13193439.88421
  23259289.915     -905890.069 6   -647607.83721
  21003848.446      650681.817 6    525814.39923
  20383769.8214  -17921773.12048 -13881507.11363
  21732251.2204  -12295619.03446  -9433053.56461
 91  3 22  0 14 59.9970000  0  5G18G11G19G 2G 6
  23690929.5404   17011090.35445  13231963.44361
  23265565.548     -872914.043 6   -621912.28121
  21006969.814      667082.366 6    538594.03123
  20380527.1104  -17938816.09248 -13894787.31263
  21725298.220   -12332148.289 6  -9461517.81221
 91  3 22  0 15 14.9970000  0  5G18G11G19G 2G 6
  23700344.0564   17060546.60245  13270500.60761
  23271863.298     -839831.194 6   -596133.49321
  21010103.829      683555.647 6    551430.33423
  20377296.6814  -17955790.68448 -13908014.22963
  21718350.642   -12368664.222 6  -9489971.68721
 91  3 22  0 15 29.9970000  0  4G11G19G 2G 6
  23278179.243     -806634.451 6   -570265.95621
  21013255.399      700108.996 6    564329.02923
  20374081.2514  -17972689.55748 -13921182.14663
  21711405.3454  -12405159.53946  -9518409.48761
 91  3 22  0 15 44.9970000  0  4G11G19G 2G 6
  23284515.485     -773331.851 6   -544315.92921
  21016416.767      716734.776 6    577284.15923
  20370878.814   -17989520.623 8 -13934297.22123
  21704463.423   -12441641.630 6  -9546836.98821
 91  3 22  0 15 59.9970000  0  4G11G19G 2G 6
  23290875.431     -739921.197 6   -518281.70421
  21019596.5244     733435.74646    590297.87463
  20367688.2904  -18006281.03648 -13947357.24363
  21697524.9704  -12478107.89646  -9575252.16461
 91  3 22  0 16 14.9970000  0  4G11G19G 2G 6
  23297248.4934    -706418.95846   -492176.12461
  21022784.540      750195.658 6    603357.52223
  20364508.915   -18022987.033 8 -13960374.85823
  21690583.759   -12514574.266 6  -9603667.41221
 91  3 22  0 16 29.9970000  0  4G11G19G 2G 6
  23303643.228     -672821.241 6   -465996.13721
  21025988.618      767018.615 6    616466.29923
  20361342.431   -18039634.685 8 -13973347.01023
  21683644.860   -12551036.533 6  -9632079.46821
 91  3 22  0 16 44.9970000  0  4G11G19G 2G 6
  23310055.720     -639122.708 6   -439737.59421
  21029200.032      783910.529 6    629628.80423
  20358186.126   -18056218.319 8 -13986269.28223
  21676708.4314  -12587488.84346  -9660483.76861
 91  3 22  0 16 59.9970000  0  4G11G19G 2G 6
  23316488.134     -605316.758 6   -413395.34821
  21032432.032      800878.351 6    642850.46323
  20355044.0404  -18072731.03948 -13999136.29463
  21669774.962   -12623924.141 6  -9688874.80821
 91  3 22  0 17 14.9970000  0  4G11G19G 2G 6
  23322943.9154    -571402.01146   -386968.33661
  21035673.321      817923.963 6    656132.73822
  20351914.4074  -18089171.33648 -14011946.88063
  21662844.290   -12660340.645 6  -9717251.19621
 91  3 22  0 17 29.9970000  0  4G11G19G 2G 6
  23329416.360     -537377.556 6   -360455.82421
  21038932.306      835048.486 6    669476.50123
  20348800.1184  -18105538.11748 -14024700.17763
  21655918.501   -12696736.872 6  -9745611.78821
 91  3 22  0 17 44.9970000  0  4G11G19G 2G 6
  23335913.345     -503243.559 6   -333857.96021
  21042204.353      852252.176 6    682881.95622
  20345701.3454  -18121830.97248 -14037395.87563
  21648996.5244  -12733112.68346  -9773956.47561
 91  3 22  0 17 59.9970000  0  4G11G19G 2G 6
  23342427.173     -469019.618 6   -307190.01321
  21045491.243      869515.905 6    696334.19723
  20342609.7824  -18138069.25348 -14050049.03963
  21642075.853   -12769487.042 6  -9802300.03121
 91  3 22  0 18 14.9970000  0  4G11G19G 2G 6
  23348954.0324    -434706.69646   -280452.72861
  21048787.446      886839.156 6    709832.81423
  20339531.5244  -18154253.76348 -14062660.30763
  21635153.0174  -12805860.54346  -9830642.91661
 91  3 22  0 18 29.9970000  0  4G11G19G 2G 6
  23355503.0404    -400304.46346   -253645.85461
  21052096.767      904222.584 6    723378.31923
  20336461.329   -18170383.833 8 -14075229.15723
  21628231.0794  -12842232.40946  -9858984.52961
 91  3 22  0 18 44.9970000  0  4G11G19G 2G 6
  23362066.454     -365804.487 6   -226762.81021
  21055416.407      921675.134 6    736977.68223
  20333403.298   -18186450.843 8 -14087748.85823
  21621313.5794  -12878593.58046  -9887317.81461
 91  3 22  0 18 59.9970000  0  4G11G19G 2G 6
  23368651.0794    -331203.55946   -199801.10761
  21058755.110      939200.250 6    750633.59523
  20330358.532   -18202451.372 8 -14100216.76123
  21614396.2124  -12914940.58646  -9915640.06661
 91  3 22  0 19 14.9970000  0  4G11G19G 2G 6
  23375252.8604    -296512.80946   -172769.42161
  21062098.056      956787.151 6    764337.65323
  20327324.134   -18218396.437 8 -14112641.44523
  21607479.735   -12951283.931 6  -9943959.45421
 91  3 22  0 19 29.9970000  0  4G11G19G 2G 6
  23381869.587     -261742.244 6   -145675.52621
  21065456.118      974426.039 6    778082.22023
  20324299.0094  -18234295.56048 -14125030.33464
  21600563.087   -12987633.452 6  -9972283.65121
 91  3 22  0 19 44.9970000  0  4G11G19G 2G 6
  23388507.032     -226868.965 6   -118501.59521
  21068825.634      992140.319 6    791885.53323
  20321286.4784  -18250125.56048 -14137365.35763
  21593649.4234  -13023965.55246 -10000594.28161
 91  3 22  0 19 59.9970000  0  4G11G19G 2G 6
  23395157.985     -191914.824 6    -91264.66721
  21072208.642     1009908.608 6    805730.93023
  20318282.8214  -18265908.03548 -14149663.35363
  21586735.2514  -13060301.59946 -10028907.99361
 91  3 22  0 20 14.9970000  0  4G11G19G 2G 6
  23401828.1034    -156862.76546    -63951.43461
  21075601.454     1027748.137 6    819631.84423
  20315291.8684  -18281625.92748 -14161911.02263
  21579822.3374  -13096624.25846 -10057211.25661
 91  3 22  0 20 29.9970000  0  4G11G19G 2G 6
  23408516.4934    -121721.60246    -36568.77061
  21079008.814     1045650.531 6    833581.74223
  20312312.1184  -18297287.71448 -14174114.97463
  21572911.431   -13132941.825 6 -10085510.55921
 91  3 22  0 20 44.9970000  0  4G11G19G 2G 6
  23415221.2434     -86485.02746     -9111.76261
  21082428.399     1063622.649 6    847585.97123
  20309344.3214  -18312886.64748 -14186269.95063
  21566002.2514  -13169247.46146 -10113800.56861
 91  3 22  0 20 59.9970000  0  4G11G19G 2G 6
  23421946.2124     -51144.17046     18426.50561
  21085863.970     1081673.569 6    861651.59323
  20306388.7284  -18328413.77548 -14198368.97363
  21559097.9934  -13205531.76846 -10142073.97261
 91  3 22  0 21 14.9970000  0  4G11G19G 2G 6
  23428689.5714     -15696.09246     46048.32461
  21089312.985     1099806.729 6    875781.30323
  20303447.9154  -18343865.78748 -14210409.45963
  21552197.7124  -13241791.48046 -10170328.19561
 91  3 22  0 21 29.9970000  0  4G11G19G 2G 6
  23435450.931       19828.519 6     73729.78021
  21092779.478     1117991.806 6    889951.47523
  20300516.3844  -18359273.11048 -14222415.12663
  21545297.3144  -13278056.65446 -10198586.67961
 91  3 22  0 21 44.9970000  0  4G11G19G 2G 6
  23442228.7204      55443.04546    101481.30261
  21096247.6424    1136242.61446    904172.86163
  20297595.0324  -18374621.82648 -14234375.12863
  21538396.4704  -13314313.34746 -10226838.54861
 91  3 22  0 21 59.9970000  0  4G11G19G 2G 6
  23449023.8214      91148.95046    129304.02961
  21099735.462     1154561.031 6    918446.92523
  20294685.3844  -18389910.40148 -14246288.26463
  21531499.8604  -13350559.76946 -10255082.41361
 91  3 22  0 22 14.9970000  0  4G11G19G 2G 6
  23455835.5954     126942.53146    157195.06261
  21103230.8294    1172943.71846    932771.07063
  20291786.6894  -18405142.42448 -14258157.33563
  21524603.1494  -13386799.08446 -10283320.74461
 91  3 22  0 22 29.9970000  0  4G11G19G 2G 6
  23462663.595      162833.631 6    185162.09221
  21106748.2284    1191400.79246    947153.17663
  20288901.7354  -18420307.64648 -14269974.35764
  21517711.1654  -13423021.03646 -10311545.54461
 91  3 22  0 22 44.9970000  0  4G11G19G 2G 6
  23469510.196      198811.681 6    213196.87821
  21110267.728     1209921.988 6    961585.25823
  20286026.5324  -18435416.35148 -14281747.34164
  21510819.0014  -13459235.70246 -10339764.67461
 91  3 22  0 22 59.9970000  0  4G11G19G 2G 6
  23476376.149      234890.302 6    241310.01421
  21113807.7124    1228521.36946    976078.25863
  20283164.1184  -18450454.75248 -14293465.53864
  21503932.2514  -13495428.91646 -10367967.08961
 91  3 22  0 23 14.9970000  0  4G11G19G 2G 6
  23483263.0094     271076.42346    269506.92561
  21117362.9704    1247206.25246    990637.87863
  20280316.9854  -18465415.62048 -14305123.31863
  21497050.9234  -13531593.37846 -10396147.09461
 91  3 22  0 23 29.9970000  0  4G11G19G 2G 6
  23490162.5714     307338.21646    297762.80861
  21120930.4074    1265945.31946   1005239.72063
  20277479.2204  -18480330.35048 -14316745.14563
  21490167.8064  -13567760.28146 -10424328.99962
 91  3 22  0 23 44.9970000  0  4G11G19G 2G 6
  23497078.735      343685.153 6    326085.03621
  21124507.1814    1284748.41446   1019891.44962
  20274652.5324  -18495189.33148 -14328323.53663
  21483285.7904  -13603919.79946 -10452505.15261
 91  3 22  0 23 59.9970000  0  4G11G19G 2G 6
  23504012.993      380123.254 6    354478.29021
  21128099.274     1303621.718 6   1034597.89322
  20271836.1034  -18509986.25048 -14339853.56963
  21476407.2904  -13640065.37646 -10480670.43661
 91  3 22  0 24 14.9970000  0  4G11G19G 2G 6
  23510964.7984     416656.13146    382945.40761
  21131702.9154    1322569.25346   1049362.17862
  20269032.8684  -18524717.29348 -14351332.26663
  21469532.6184  -13676192.90946 -10508821.66561
 91  3 22  0 24 29.9970000  0  4G11G19G 2G 6
  23517933.4464     453272.12846    411477.29061
  21135321.853     1341579.672 6   1064175.46722
  20266239.9784  -18539393.97848 -14362768.60864
  21462659.5874  -13712313.70146 -10536967.63961
 91  3 22  0 24 44.9970000  0  4G11G19G 2G 6
  23524920.0714     489977.99546    440079.20461
  21138951.8844    1360660.39646   1079043.53862
  20263458.7984  -18554009.07848 -14374156.96163
  21455789.2044  -13748420.40646 -10565102.63761
 91  3 22  0 24 59.9970000  0  4G11G19G 2G 6
  23531921.0404     526778.29046    468754.68761
  21142599.2824    1379816.48746   1093970.33062
  20260690.2124  -18568557.71148 -14385493.52663
  21448922.5484  -13784507.87146 -10593222.64662
 91  3 22  0 25 14.9970000  0  4G11G19G 2G 6
  23538939.5874     563664.47746    497497.10361
  21146256.4624    1399039.52546   1108949.29362
  20257931.8144  -18583048.07648 -14396784.68263
  21442056.8214  -13820584.15446 -10621333.94461
 91  3 22  0 25 29.9970000  0  4G11G19G 2G 6
  23545974.1264     600638.85846    526308.24861
  21149929.1574    1418332.16346   1123982.48762
  20255186.7824  -18597477.72448 -14408028.53163
  21435193.0174  -13856646.57946 -10649434.44261
 91  3 22  0 25 44.9970000  0  4G11G19G 2G 6
  23553029.3844     637707.64846    555192.94561
  21153612.0404    1437701.09246   1139075.13362
  20252454.0094  -18611840.19548 -14419220.03064
  21428335.5794  -13892688.39647 -10677518.87861
 91  3 22  0 25 59.9970000  0  4G11G19G 2G 6
  23560101.3144     674865.91146    584147.36961
  21157316.3844    1457141.76346   1154223.67262
  20249732.5484  -18626140.10648 -14430362.79363
  21421480.3214  -13928713.94847 -10705590.64161
 91  3 22  0 26 14.9970000  0  4G11G19G 2G 6
  23567190.110      712116.758 6    613173.94221
  21161026.6574    1476657.71946   1169430.88262
  20247024.7044  -18640374.10948 -14441454.18764
  21414628.7354  -13964719.76347 -10733647.03561
 91  3 22  0 26 29.9970000  0  4G11G19G 2G 6
  23574296.790      749453.171 6    642267.17721
  21164754.9074    1496242.21146   1184691.49162
  20244327.0324  -18654548.88848 -14452499.43763
  21407777.8764  -14000712.14746 -10761692.94562
 91  3 22  0 26 44.9970000  0  4G11G19G 2G 6
  23581416.4934     786870.92846    671423.80661
  21168491.8294    1515891.34146   1200002.47662
  20241640.3214  -18668668.48348 -14463501.68364
  21400932.6104  -14036695.06646 -10789731.48761
 91  3 22  0 26 59.9970000  0  4G11G19G 2G 6
  23588550.5954     824361.39946    700637.09361
  21172242.8064    1535596.92546   1215357.44462
  20238961.7594  -18682741.30648 -14474467.47964
  21394084.2674  -14072676.59447 -10817768.95161
 91  3 22  0 27 14.9970000  0  4G11G19G 2G 6
  23595698.5714     861938.41246    729917.81661
  21176005.7204    1555373.11646   1230767.43062
  20236295.2514  -18696753.16348 -14485385.77164
  21387239.3064  -14108642.44647 -10845794.19361
 91  3 22  0 27 29.9970000  0  4G11G19G 2G 6
  23602868.110      899606.071 6    759269.17921
  21179784.228     1575224.526 6   1246236.03422
  20233641.4934  -18710699.65048 -14496253.12864
  21380399.6814  -14144587.94247 -10873803.58461
 91  3 22  0 27 44.9970000  0  4G11G19G 2G 6
  23610052.4854     937366.90746    788693.14761
  21183575.321     1595154.168 6   1261765.60922
  20230999.5874  -18724578.17048 -14507067.52364
  21373563.8924  -14180510.04347 -10901794.73761
 91  3 22  0 27 59.9970000  0  4G11G19G 2G 6
  23617256.5014     975213.84246    818184.18461
  21187385.821     1615155.202 6   1277350.80822
  20228371.4544  -18738395.28048 -14517834.06464
  21366732.1264  -14216415.29447 -10929772.75961
 91  3 22  0 28 14.9970000  0  4G11G19G 2G 6
  23624474.1104    1013145.08346    847740.93461
  21191199.9074    1635226.07146   1292990.41562
  20225752.7354  -18752152.54948 -14528553.97464
  21359901.7124  -14252305.07447 -10957738.72761
 91  3 22  0 28 29.9970000  0  4G11G19G 2G 6
  23631706.8994    1051159.64746    877362.60761
  21195034.8064    1655366.33746   1308684.09962
  20223146.1344  -18765850.62448 -14539227.75964
  21353075.3064  -14288179.84647 -10985693.00561
 91  3 22  0 28 44.9970000  0  4G11G19G 2G 6
  23638956.876     1089257.879 5    907049.48021
  21198879.6964    1675576.62446   1324432.34462
  20220550.8064  -18779488.97148 -14549855.00564
  21346251.0714  -14324038.77647 -11013634.93861
 91  3 22  0 28 59.9970000  0  4G11G19G 2G 6
  23646223.0794    1127441.17646    936802.63361
  21202740.4784    1695858.74046   1340236.55362
  20217966.9934  -18793065.94648 -14560434.42464
  21339431.4234  -14359879.87047 -11041562.97561
 91  3 22  0 29 14.9970000  0  4G11G19G 2G 6
  23653508.1344    1165711.28446    966623.43161
  21206613.0954    1716214.82346   1356098.40662
  20215395.5244  -18806579.46248 -14570964.40163
  21332613.4934  -14395700.90347 -11069475.37861
 91  3 22  0 29 29.9970000  0  4G11G19G 2G 6
  23660806.5714    1204061.45746    996506.61761
  21210500.782     1736638.379 6   1372012.84522
  20212834.7434  -18820036.04648 -14581450.01163
  21325800.3064  -14431508.16447 -11097377.05461
 91  3 22  0 29 44.9970000  0  4G11G19G 2G 6
  23668117.064     1242492.213 6   1026452.60221
  21214398.892     1757130.521 6   1387980.72422
  20210285.720   -18833434.873 8 -14591890.61224
  21318988.6344  -14467300.51247 -11125267.10361
 91  3 22  0 29 59.9970000  0  4G11G19G 2G 6
  23675446.5174    1281005.84745   1056463.16961
  21218312.306     1777693.945 6   1404004.14522
  20207746.8214  -18846773.46448 -14602284.27864
  21312181.9784  -14503075.26747 -11153143.44362
 91  3 22  0 30 14.9970000  0  4G11G19G 2G 6
  23682789.6894    1319595.04645   1086532.61461
  21222237.9704    1798321.66946   1420077.66362
  20205218.6654  -18860058.66048 -14612636.33864
  21305375.4464  -14538839.21347 -11181011.35461
 91  3 22  0 30 29.9970000  0  4G11G19G 2G 6
  23690148.0244    1358259.32745   1116660.56261
  21226176.524     1819013.662 6   1436201.27122
  20202701.024   -18873290.677 8 -14622946.95824
  21298570.9934  -14574592.13247 -11208870.68662
 91  3 22  0 30 44.9970000  0  4G11G19G 2G 6
  23697521.0794    1397003.57745   1146850.82161
  21230125.9234    1839774.99246   1452378.89962
  20200194.649   -18886464.396 8 -14633212.14624
  21291771.0244  -14610328.86147 -11236717.39961
 91  3 22  0 30 59.9970000  0  4G11G19G 2G 6
  23704909.204     1435827.564 5   1177103.22721
  21234089.5644    1860605.87346   1468610.72562
  20197698.384   -18899579.881 8 -14643431.96224
  21284973.7204  -14646049.03847 -11264551.21461
 91  3 22  0 31 14.9970000  0  4G11G19G 2G 6
  23712311.3214    1474730.33045   1207417.01261
  21238066.423     1881505.702 6   1484896.28222
  20195213.368   -18912637.718 8 -14653606.85424
  21278179.454   -14681753.081 7 -11292372.46421
 91  3 22  0 31 29.9970000  0  4G11G19G 2G 6
  23719730.1574    1513716.49645   1237795.78361
  21242061.524     1902479.342 6   1501239.35722
  20192739.735   -18925633.201 8 -14663733.15824
  21271389.6894  -14717435.98347 -11320177.22861
 91  3 22  0 31 44.9970000  0  4G11G19G 2G 6
  23727167.001     1552790.172 5   1268242.72921
  21246064.0794    1923531.27046   1517643.42862
  20190279.915   -18938561.829 8 -14673807.36624
  21264603.8684  -14753093.04247 -11347961.85661
 91  3 22  0 31 59.9970000  0  4G11G19G 2G 6
  23734612.853     1591941.178 5   1298749.95721
  21250083.399     1944651.859 6   1534100.99922
  20187830.923   -18951433.481 8 -14683837.18324
  21257820.6654  -14788733.87447 -11375733.84261
 91  3 22  0 32 14.9970000  0  3G19G 2G 6
  21254115.790     1965841.865 6   1550612.66822
  20185392.462   -18964247.263 8 -14693821.90124
  21251042.899   -14824357.399 7 -11403492.34621
 91  3 22  0 32 29.9970000  0  3G19G 2G 6
  21258162.798     1987102.671 6   1567179.50422
  20182965.298   -18977002.080 8 -14703760.67424
  21244267.181   -14859962.257 7 -11431236.31222
 91  3 22  0 32 44.9970000  0  3G19G 2G 6
  21262219.689     2008428.751 6   1583797.20022
  20180548.126   -18989703.687 8 -14713657.98624
  21237494.5324  -14895553.97247 -11458970.02562
 91  3 22  0 32 59.9970000  0  3G19G 2G 6
  21266292.204     2029824.417 6   1600469.12622
  20178141.681   -19002347.811 8 -14723510.50224
  21230725.2514  -14931127.85747 -11486689.85162
 91  3 22  0 33 14.9970000  0  3G19G 2G 6
  21270376.829     2051289.534 6   1617195.17022
  20175746.157   -19014934.571 8 -14733318.31924
  21223958.618   -14966683.947 7 -11514395.80721
 91  3 22  0 33 29.9970000  0  3G19G 2G 6
  21274474.040     2072825.973 6   1633976.78322
  20173362.728   -19027462.259 8 -14743080.10824
  21217196.845   -15002220.231 7 -11542086.33422
 91  3 22  0 33 44.9970000  0  3G19G 2G 6
  21278585.899     2094432.008 6   1650812.63222
  20170989.728   -19039932.573 8 -14752797.19124
  21210436.923   -15037738.128 7 -11569762.53622
 91  3 22  0 33 59.9970000  0  3G19G 2G 6
  21282713.587     2116105.769 6   1667701.25422
  20168627.243   -19052347.466 8 -14762471.08824
  21203681.782   -15073239.647 7 -11597425.97922
 91  3 22  0 34 14.9970000  0  3G19G 2G 6
  21286846.6104    2137847.99146   1684643.21562
  20166275.407   -19064706.455 8 -14772101.42224
  21196929.2434  -15108723.71447 -11625075.81162
 91  3 22  0 34 29.9970000  0  3G19G 2G 6
  21290999.079     2159658.306 6   1701638.24122
  20163933.517   -19077009.884 8 -14781688.46924
  21190180.399   -15144190.609 7 -11652712.27222
 91  3 22  0 34 44.9970000  0  3G19G 2G 6
  21295160.970     2181537.289 6   1718686.77322
  20161602.689   -19089257.248 8 -14791231.82724
  21183434.1734  -15179639.60947 -11680334.78261
 91  3 22  0 34 59.9970000  0  3G19G 2G 6
  21299342.517     2203488.625 6   1735791.69022
  20159283.5644  -19101444.85748 -14800728.62664
  21176693.0874  -15215066.65247 -11707940.17962
 91  3 22  0 35 14.9970000  0  3G19G 2G 6
  21303527.798     2225503.951 6   1752946.46622
  20156974.2124  -19113581.38448 -14810185.61964
  21169953.1424  -15250480.24447 -11735535.10162
 91  3 22  0 35 29.9970000  0  3G19G 2G 6
  21307731.4934    2247590.50146   1770156.74362
  20154676.3144  -19125659.78248 -14819597.32164
  21163216.8844  -15285872.98147 -11763113.76462
 91  3 22  0 35 44.9970000  0  3G19G 2G 6
  21311946.290     2269745.931 6   1787420.69022
  20152388.243   -19137682.331 8 -14828965.49824
  21156486.735   -15321246.930 7 -11790677.80022
 91  3 22  0 35 59.9970000  0  3G19G 2G 6
  21316177.556     2291971.651 6   1804739.41022
  20150111.0244  -19149647.59848 -14838289.04664
  21149759.6264  -15356600.51747 -11818225.96362
 91  3 22  0 36 14.9970000  0  4G15G19G 2G 6
  23478517.2284         -0.62254
  21320418.8994    2314263.81946   1822109.90862
  20147844.2824  -19161559.67548 -14847571.14864
  21143034.634   -15391937.372 7 -11845761.09222
 91  3 22  0 36 29.9970000  0  4G15G19G 2G 6
  23472237.7354     -33001.41244
  21324674.0094    2336626.62046   1839535.43162
  20145588.7984  -19173414.62548 -14856808.73464
  21136314.0484  -15427253.34647 -11873279.94262
 91  3 22  0 36 44.9970000  0  4G15G19G 2G 6
  23465973.415      -65925.621 5
  21328943.946     2359061.385 6   1857017.04222
  20143344.0174  -19185211.10948 -14866000.76464
  21129596.3994  -15462547.01847 -11900781.42162
 91  3 22  0 36 59.9970000  0  4G15G19G 2G 6
  23459722.556      -98775.935 5
  21333226.345     2381564.990 6   1874552.29322
  20141110.0794  -19196952.08848 -14875149.54664
  21122883.8294  -15497820.96747 -11928267.52662
 91  3 22  0 37 14.9970000  0  4G15G19G 2G 6
  23453482.821     -131554.390 5        -0.28331
  21337519.9314    2404135.01746   1892139.29762
  20138884.4704  -19208640.06348 -14884257.02464
  21116176.337   -15533077.562 7 -11955740.11322
 91  3 22  0 37 29.9970000  0  4G15G19G 2G 6
  23447261.165     -164267.195 4    -25490.63621
  21341829.7594    2426765.22246   1909773.19762
  20136669.6814  -19220281.51148 -14893328.24864
  21109469.6424  -15568322.85647 -11983203.89362
 91  3 22  0 37 44.9970000  0  4G15G19G 2G 6
  23441048.634     -196898.153 4    -50917.22421
  21346147.5324    2449471.02946   1927466.00162
  20134467.0954  -19231861.09048 -14902351.26464
  21102767.0714  -15603541.30847 -12010646.74762
 91  3 22  0 37 59.9970000  0  4G15G19G 2G 6
  23434854.431     -229452.102 5    -76283.80721
  21350483.2284    2472247.44046   1945213.82762
  20132273.3844  -19243383.91448 -14911330.05564
  21096070.1184  -15638737.55347 -12038072.30262
 91  3 22  0 38 14.9970000  0  4G15G19G 2G 6
  23428676.767     -261927.482 5   -101589.16321
  21354829.5484    2495095.90946   1963017.79762
  20130091.3454  -19254848.55348 -14920263.51063
  21089376.243   -15673910.277 7 -12065479.53222
 91  3 22  0 38 29.9970000  0  4G15G19G 2G 6
  23422511.579     -294322.984 5   -126832.28921
  21359193.6184    2518017.27046   1980878.56462
  20127921.235   -19266254.222 8 -14929151.01924
  21082687.485   -15709058.370 7 -12092867.57522
 91  3 22  0 38 44.9970000  0  4G15G19G 2G 6
  23416361.1814    -326643.10945   -152016.67261
  21363565.9624    2541006.38946   1998792.13662
  20125760.7354  -19277606.05048 -14937996.57164
  21076003.228   -15744186.776 7 -12120240.27922
 91  3 22  0 38 59.9970000  0  4G15G19G 2G 6
  23410222.384     -358888.345 5   -177142.72221
  21367953.0644    2564062.68946   2016758.05462
  20123611.3294  -19288904.88448 -14946800.82164
  21069322.6734  -15779295.85147 -12147597.90862
 91  3 22  0 39 14.9970000  0  4G15G19G 2G 6
  23404100.360     -391057.855 5   -202209.74921
  21372354.7984    2587186.66746   2034776.70862
  20121471.235   -19300150.479 8 -14955563.59824
  21062645.228   -15814385.003 7 -12174940.01922
 91  3 22  0 39 29.9970000  0  4G15G19G 2G 6
  23397997.657     -423145.886 5   -227213.27621
  21376766.3144    2610383.75046   2052852.32462
  20119342.1894  -19311337.20748 -14964280.50464
  21055972.8374  -15849448.62847 -12202262.23462
 91  3 22  0 39 44.9970000  0  4G15G19G 2G 6
  23391902.8764    -455156.69145   -252156.63461
  21381194.5014    2633649.34246   2070981.33062
  20117224.0174  -19322469.59148 -14972955.06064
  21049305.126   -15884491.055 7 -12229567.94322
 91  3 22  0 39 59.9970000  0  4G15G19G 2G 6
  23385825.8214    -487089.38045   -277039.11261
  21385636.6964    2656983.69146   2089163.90562
  20115116.2284  -19333547.58348 -14981587.23064
  21042640.3144  -15919511.89247 -12256856.82062
 91  3 22  0 40 14.9970000  0  4G15G19G 2G 6
  23379765.954     -518938.990 5   -301856.89521
  21390089.4314    2680391.81646   2107403.97162
  20113019.7824  -19344566.40848 -14990173.29564
  21035980.6894  -15954505.98147 -12284124.84462
 91  3 22  0 40 29.9970000  0  4G15G19G 2G 6
  23373723.3604    -550701.08545   -326606.44861
  21394562.6104    2703877.63746   2125704.58362
  20110933.7824  -19355522.14748 -14998710.20764
  21029326.2824  -15989469.28047 -12311368.88262
 91  3 22  0 40 44.9970000  0  4G15G19G 2G 6
  23367692.939     -582389.074 5   -351298.29421
  21399040.2434    2727426.94446   2144054.66162
  20108859.0174  -19366428.95348 -15007208.98364
  21022676.2904  -16024415.60847 -12338599.69462
 91  3 22  0 40 59.9970000  0  4G15G19G 2G 6
  23361680.0014    -613995.28745   -375926.38461
  21403537.3374    2751047.61046   2162460.34662
  20106793.7674  -19377279.08748 -15015663.60864
  21016030.3534  -16059336.93947 -12365811.03662
 91  3 22  0 41 14.9970000  0  4G15G19G 2G 6
  23355678.407     -645521.824 5   -400492.39521
  21408043.7744    2774737.14346   2180919.69262
  20104739.0174  -19388075.16548 -15024076.10864
  21009389.931   -16094235.572 7 -12393004.69222
 91  3 22  0 41 29.9970000  0  4G15G19G 2G 6
  23349694.1344    -676971.12345   -424998.21561
  21412565.7594    2798492.80546   2199430.56362
  20102694.8924  -19398820.01748 -15032448.68564
  21002752.7674  -16129114.15647 -12420182.71862
 91  3 22  0 41 44.9970000  0  4G15G19G 2G 6
  23343721.7284    -708344.35745   -449444.78261
  21417096.9544    2822312.84046   2217991.58962
  20100659.0324  -19409515.51448 -15040782.80664
  20996120.2284  -16163974.20647 -12447346.29862
 91  3 22  0 41 59.9970000  0  4G15G19G 2G 6
  23337770.3454    -739636.08245   -473827.80861
  21421645.3534    2846202.25746   2236606.69162
  20098634.4544  -19420156.72948 -15049074.63564
  20989489.0954  -16198810.53647 -12474491.40562
 91  3 22  0 42 14.9970000  0  4G15G19G 2G 6
  23331830.064     -770845.291 5   -498146.53921
  21426203.8924    2870161.90146   2255276.50562
  20096619.4544  -19430742.84848 -15057323.52764
  20982865.2984  -16233622.12447 -12501617.22962
 91  3 22  0 42 29.9970000  0  4G15G19G 2G 6
  23325903.7354    -801974.26845   -522402.75661
  21430776.1104    2894189.25246   2273999.09862
  20094616.0174  -19441276.44048 -15065531.49364
  20976245.4544  -16268411.15247 -12528725.47462
 91  3 22  0 42 44.9970000  0  4G15G19G 2G 6
  23320000.7824    -833021.84945   -546595.54261
  21435358.7434    2918285.04646   2292775.00762
  20092621.2674  -19451756.97948 -15073698.12264
  20969630.4544  -16303177.08447 -12555815.71462
 91  3 22  0 42 59.9970000  0  5G15G13G19G 2G 6
  23314103.368     -863989.929 5   -570726.38821
  23254913.4624         -0.94355
  21439959.1494    2942446.94746   2311602.43662
  20090636.8294  -19462186.75748 -15081825.19264
  20963017.970   -16337921.695 7 -12582889.33722
 91  3 22  0 43 14.9970000  0  5G15G13G19G 2G 6
  23308228.9854    -894870.46245   -594789.00461
  23242413.3994     -65678.10445
  21444569.7514    2966682.79646   2330487.48362
  20088662.9544  -19472557.91248 -15089906.58464
  20956411.3374  -16372636.95547 -12609940.09262
 91  3 22  0 43 29.9970000  0  5G15G13G19G 2G 6
  23302367.2904    -925664.31245   -618784.09361
  23229922.5244    -131325.07845
  21449197.8994    2990991.05246   2349428.95662
  20086700.1184  -19482872.00548 -15097943.50964
  20949810.9544  -16407324.25447 -12636969.06762
 91  3 22  0 43 44.9970000  0  5G15G13G19G 2G 6
  23296527.915     -956371.316 5   -642711.49321
  23217437.5874    -196941.89945
  21453834.5094    3015371.43846   2368426.62962
  20084748.7044  -19493129.40048 -15105936.25564
  20943215.0244  -16441983.50747 -12663976.18862
 91  3 22  0 43 59.9970000  0  5G15G13G19G 2G 6
  23290696.439     -986997.559 5   -666575.96821
  23204953.7984    -262534.64745
  21458490.5644    3039817.80646   2387475.71062
  20082805.8604  -19503336.41748 -15113889.74764
  20936625.4464  -16476620.96447 -12690966.32662
 91  3 22  0 44 14.9970000  0  5G15G13G19G 2G 6
  23284883.4394   -1017538.84145   -690374.24861
  23192476.9154    -328098.75745        -0.46271
  21463151.8844    3064334.12146   2406579.29962
  20080873.3064  -19513489.19348 -15121800.97364
  20930038.6184  -16511232.39147 -12717936.17762
 91  3 22  0 44 29.9970000  0  5G15G13G19G 2G 6
  23279087.642    -1047999.451 5   -714109.66721
  23180004.696     -393638.566 4    -51070.05021
  21467830.8994    3088915.86346   2425733.87162
  20078951.3924  -19523592.45348 -15129673.61264
  20923455.392   -16545822.230 7 -12744889.22122
 91  3 22  0 44 44.9970000  0  5G15G13G19G 2G 6
  23273309.064    -1078376.294 5   -737779.79821
  23167538.478     -459150.975 5   -102118.33221
  21472521.2904    3113565.49746   2444941.34362
  20077039.1344  -19533643.43648 -15137505.51764
  20916877.8454  -16580387.53747 -12771823.13162
 91  3 22  0 44 59.9970000  0  5G15G13G19G 2G 6
  23267542.126    -1108667.173 5   -761382.95221
  23155077.8144    -524633.45645   -153143.28461
  21477227.9544    3138285.02146   2464203.27262
  20075136.1264  -19543640.29848 -15145295.24364
  20910305.6424  -16614926.21547 -12798736.29662
 91  3 22  0 45 14.9970000  0  5G15G13G19G 2G 6
  23261794.993    -1138873.503 5   -784920.20221
  23142620.892     -590087.375 4   -204145.96021
  21481942.4154    3163072.79846   2483518.39562
  20073243.5484  -19553584.94648 -15153044.28464
  20903737.493   -16649439.689 7 -12825629.82922
 91  3 22  0 45 29.9970000  0  5G15G13G19G 2G 6
  23256064.2284   -1168991.26645   -808388.47461
  23130170.798     -655509.104 4   -255123.56521
  21486675.157     3187932.325 6   2502889.41622
  20071362.2204  -19563473.89748 -15160749.92664
  20897175.7354  -16683924.37547 -12852500.92662
 91  3 22  0 45 44.9970000  0  5G15G13G19G 2G 6
  23250344.3684   -1199034.31245   -831798.49861
  23117725.673     -720912.280 5   -306086.74521
  21491414.274     3212849.302 6   2522305.19722
  20069488.2434  -19573321.68648 -15168423.49464
  20890615.892   -16718394.255 7 -12879360.49422
 91  3 22  0 45 59.9970000  0  5G15G13G19G 2G 6
  23244646.853    -1228991.228 5   -855141.40921
  23105286.5244    -786285.25345   -357026.37961
  21496170.0174    3237834.97846   2541774.52262
  20067623.4464  -19583116.95348 -15176056.13364
  20884061.1344  -16752837.93847 -12906199.64162
 91  3 22  0 46 14.9970000  0  5G15G13G19G 2G 6
  23238964.290    -1258849.595 5   -878407.54221
  23092852.853     -851615.995 4   -407933.12121
  21500939.5244    3262901.20746   2561306.61562
  20065772.3994  -19592847.86048 -15183638.62764
  20877513.985   -16787243.192 7 -12933008.84422
 91  3 22  0 46 29.9970000  0  5G15G13G19G 2G 6
  23233298.2674   -1288629.64545   -901612.64861
  23080427.071     -916924.625 5   -458822.58221
  21505725.6184    3288027.28146   2580885.33662
  20063929.103   -19602535.094 8 -15191187.09724
  20870970.439   -16821630.528 7 -12959804.09622
 91  3 22  0 46 44.9970000  0  5G15G13G19G 2G 6
  23227647.462    -1318327.158 5   -924753.42821
  23068003.5714    -982206.81745   -509691.48561
  21510514.5794    3313217.25246   2600513.85262
  20062095.0014  -19612174.70348 -15198698.45264
  20864431.298   -16855995.751 7 -12986582.11722
 91  3 22  0 46 59.9970000  0  5G15G13G19G 2G 6
  23222011.6104   -1347937.19945   -947826.05561
  23055585.9854   -1047457.39345   -560535.76861
  21515321.399     3338475.856 6   2620195.83122
  20060269.7904  -19621762.18648 -15206169.18964
  20857897.509   -16890333.958 7 -13013339.07922
 91  3 22  0 47 14.9970000  0  5G15G13G19G 2G 6
  23216394.837    -1377457.425 5   -970828.69521
  23043176.017    -1112673.976 5   -611353.54521
  21520140.220     3363804.896 6   2639932.70322
  20058455.9314  -19631295.69448 -15213597.86564
  20851367.923   -16924643.037 7 -13040073.35022
 91  3 22  0 47 29.9970000  0  5G15G13G19G 2G 6
  23210793.587    -1406886.583 5   -993760.39021
  23030772.142    -1177855.267 5   -662143.81321
  21524978.829     3389205.459 6   2659725.30322
  20056652.3534  -19640774.20048 -15220983.68664
  20844845.399   -16958921.826 7 -13066784.02322
 91  3 22  0 47 44.9970000  0  5G15G13G19G 2G 6
  23205209.024    -1436228.422 5  -1016624.03021
  23018373.110    -1243004.873 5   -712909.41921
  21529818.892     3414673.317 6   2679570.34422
  20054858.4314  -19650201.91748 -15228329.92664
  20838327.439   -16993174.146 7 -13093474.06122
 91  3 22  0 47 59.9970000  0  5G15G13G19G 2G 6
  23199642.368    -1465483.414 5  -1039419.99821
  23005982.360    -1308123.292 5   -763650.71621
  21534678.4624    3440207.50346   2699467.07162
  20053074.2744  -19659579.82448 -15235637.35564
  20831814.314   -17027400.624 7 -13120143.97022
 91  3 22  0 48 14.9970000  0  5G15G13G19G 2G 6
  23194094.6104   -1494640.81545  -1062139.92761
  22993596.548    -1373200.000 5   -814359.51621
  21539552.8144    3465818.73646   2719423.83862
  20051300.7744  -19668897.56448 -15242897.90064
  20825307.610   -17061590.636 7 -13146785.46222
 91  3 22  0 48 29.9970000  0  5G15G13G19G 2G 6
  23188562.8604   -1523707.92345  -1084789.49861
  22981218.392    -1438242.219 5   -865041.42821
  21544440.774     3491499.108 6   2739434.47322
  20049537.2824  -19678162.72448 -15250117.47664
  20818806.9074  -17095751.62847 -13173404.34762
 91  3 22  0 48 44.9970000  0  5G15G13G19G 2G 6
  23183047.7284   -1552689.12645  -1107372.13761
  22968848.774    -1503254.016 5   -915699.61921
  21549339.079     3517243.898 6   2759495.30422
  20047783.3994  -19687380.11948 -15257299.83364
  20812311.1034  -17129888.16947 -13200004.17862
 91  3 22  0 48 59.9970000  0  5G15G13G19G 2G 6
  23177550.3684   -1581587.03745  -1129889.84561
  22956482.876    -1568238.139 5   -966336.29921
  21554250.9074    3543050.21046   2779604.08161
  20046038.1344  -19696552.93648 -15264447.45364
  20805819.3294  -17164003.07547 -13226587.16262
 91  3 22  0 49 14.9970000  0  5G15G13G19G 2G 6
  23172063.868    -1610399.424 5  -1152340.93421
  22944122.6574   -1633192.44845  -1016949.72561
  21559172.931     3568919.809 6   2799762.16822
  20044301.095   -19705679.384 8 -15271558.94524
  20799331.9074  -17198094.24047 -13253151.63862
 91  3 22  0 49 29.9970000  0  5G15G13G19G 2G 6
  23166601.0564   -1639118.16345  -1174719.04061
  22931766.9624   -1698108.50845  -1067533.36561
  21564112.8374    3594860.52746   2819975.67562
  20042574.759   -19714751.590 8 -15278628.17424
  20792849.3144  -17232153.51947 -13279691.26262
 91  3 22  0 49 44.9970000  0  5G15G13G19G 2G 6
  23161151.446    -1667747.534 5  -1197027.51421
  22919421.5484   -1762990.33445  -1118090.31761
  21569058.5014    3620867.88746   2840241.10862
  20040857.1894  -19723773.95148 -15285658.55264
  20786373.4784  -17266185.07747 -13306209.28962
 91  3 22  0 49 59.9970000  0  5G15G13G19G 2G 6
  23155723.993    -1696282.890 5  -1219262.72221
  22907081.845    -1827833.489 5  -1168617.10721
  21574023.6814    3646946.35446   2860561.94762
  20039151.5094  -19732742.50848 -15292647.00264
  20779903.5324  -17300184.67547 -13332702.41262
 91  3 22  0 50 14.9970000  0  5G15G13G19G 2G 6
  23150307.2824   -1724724.76845  -1241425.09461
  22894749.548    -1892638.540 5  -1219114.21021
  21578997.837     3673094.697 6   2880937.23922
  20037454.3534  -19741658.57548 -15299594.55464
  20773441.0644  -17334153.00147 -13359171.17462
 91  3 22  0 50 29.9970000  0  5G15G13G19G 2G 6
  23144916.149    -1753074.045 5  -1263515.30621
  22882423.954    -1957406.005 5  -1269582.03621
  21583986.985     3699312.039 6   2901366.29422
  20035766.9074  -19750522.71548 -15306501.64864
  20766981.8064  -17368090.73847 -13385616.08962
 91  3 22  0 50 44.9970000  0  5G15G13G19G 2G 6
  23139537.267    -1781328.763 5  -1285531.83821
  22870105.8604   -2022134.00245  -1320019.12761
  21588987.454     3725599.843 6   2921850.24922
  20034091.649   -19759333.604 8 -15313367.25024
  20760529.8374  -17401996.18547 -13412035.84862
 91  3 22  0 50 59.9970000  0  5G15G13G19G 2G 6
  23134178.884    -1809487.464 5  -1307473.55721
  22857798.2744   -2086821.13645  -1370424.36261
  21594008.0564    3751959.10746   2942389.90062
  20032424.501   -19768090.280 8 -15320190.60824
  20754084.9784  -17435868.17047 -13438429.53762
 91  3 22  0 51 14.9970000  0  5G15G13G19G 2G 6
  23128841.0644   -1837546.45145  -1329337.57461
  22845496.4234   -2151463.55145  -1420794.77361
  21599034.5644    3778393.09746   2962987.77562
  20030769.5874  -19776789.31048 -15326969.04064
  20747646.0244  -17469702.92247 -13464794.21662
 91  3 22  0 51 29.9970000  0  5G15G13G19G 2G 6
  23123517.931    -1865511.245 5  -1351128.18821
  22833202.735    -2216066.809 5  -1471134.66921
  21604079.9154    3804896.10346   2983639.42962
  20029123.7824  -19785436.64348 -15333707.18764
  20741212.4314  -17503506.15247 -13491134.32962
 91  3 22  0 51 44.9970000  0  5G15G13G19G 2G 6
  23118216.939    -1893379.524 5  -1372843.60221
  22820914.704    -2280628.683 5  -1521442.28221
  21609136.282     3831469.765 6   3004346.14122
  20027487.7594  -19794030.58648 -15340403.73764
  20734786.5484  -17537275.90247 -13517448.34662
 91  3 22  0 51 59.9970000  0  5G15G13G19G 2G 6
  23112927.8604   -1921155.96745  -1394487.45461
  22808634.9624   -2345153.48245  -1571721.00061
  21614205.5174    3858109.35246   3025104.22062
  20025861.8994  -19802575.96048 -15347062.44064
  20728366.1574  -17571016.66747 -13543739.79462
 91  3 22  0 52 14.9970000  0  5G15G13G19G 2G 6
  23107662.2124   -1948838.56445  -1416058.18861
  22796366.3294   -2409639.19045  -1621969.29561
  21619286.9074    3884816.77546   3045915.16762
  20024244.970   -19811071.034 8 -15353681.95424
  20721951.0094  -17604726.39547 -13570007.04862
 91  3 22  0 52 29.9970000  0  5G15G13G19G 2G 6
  23102409.1034   -1976427.93145  -1437556.27261
  22784102.2204   -2474086.29845  -1672187.49661
  21624382.9934    3911590.89846   3066778.08362
  20022638.2124  -19819517.13648 -15360263.30364
  20715541.853   -17638405.995 7 -13596250.81222
 91  3 22  0 52 44.9970000  0  5G15G13G19G 2G 6
  23097179.2984   -2003920.09045  -1458978.62461
  22771844.7044   -2538491.05645  -1722372.70561
  21629487.8604    3938435.15946   3087695.65762
  20021040.587   -19827910.924 8 -15366803.89024
  20709139.939   -17672051.729 7 -13622468.19522
 91  3 22  0 52 59.9970000  0  5G15G13G19G 2G 6
  23091964.970    -2031320.436 5  -1480329.40221
  22759595.212    -2602858.636 5  -1772528.96721
  21634612.9544    3965344.00046   3108663.55061
  20019452.5174  -19836257.75448 -15373307.88964
  20702742.8534  -17705669.00747 -13648663.40763
 91  3 22  0 53 14.9970000  0  5G15G13G19G 2G 6
  23086769.1034   -2058626.13146  -1501606.45661
  22747356.4234   -2667185.95745  -1822653.80261
  21639745.259     3992319.968 6   3129683.74421
  20017873.0564  -19844555.12348 -15379773.34064
  20696351.8144  -17739254.82147 -13674834.10363
 91  3 22  0 53 29.9970000  0  5G15G13G19G 2G 6
  23081592.2434   -2085834.86445  -1522807.93461
  22735122.3214   -2731470.79645  -1872745.57761
  21644890.837     4019364.772 6   3150757.57022
  20016304.3454  -19852801.22548 -15386198.84464
  20689966.6034  -17772807.16347 -13700978.72163
 91  3 22  0 53 44.9970000  0  5G15G13G19G 2G 6
  23076433.8294   -2112950.26145  -1543936.69861
  22722896.0174   -2795716.72545  -1922807.04661
  21650048.626     4046474.563 6   3171882.03922
  20014743.7904  -19861000.13848 -15392587.57964
  20683587.040   -17806329.851 7 -13727100.22723
 91  3 22  0 53 59.9970000  0  5G15G13G19G 2G 6
  23071289.4234   -2139971.21845  -1564991.87561
  22710677.1264   -2859922.78345  -1972837.43061
  21655222.1654    4073649.90146   3193057.58962
  20013192.735   -19869151.310 8 -15398939.11624
  20677213.212   -17839821.878 7 -13753197.83023
 91  3 22  0 54 14.9970000  0  5G15G13G19G 2G 6
  23066166.2514   -2166894.30645  -1585970.80261
  22698468.9464   -2924085.15845  -2022833.73861
  21660404.4704    4100894.13746   3214286.82862
  20011651.626   -19877251.505 8 -15405250.93224
  20670847.220   -17873279.847 7 -13779268.89223
 91  3 22  0 54 29.9970000  0  5G15G13G19G 2G 6
  23061062.5014   -2193717.83645  -1606872.12861
  22686265.9394   -2988201.91045  -2072794.55461
  21665603.1734    4128208.64946   3235570.82862
  20010120.134   -19885299.233 8 -15411521.86424
  20664486.9464  -17906701.93847 -13805312.00963
 91  3 22  0 54 44.9970000  0  5G15G13G19G 2G 6
  23055976.6814   -2220445.08145  -1627698.43961
  22674074.001    -3052276.447 5  -2122722.48021
  21670814.2594    4155589.72546   3256906.70262
  20008597.7744  -19893298.28648 -15417754.86664
  20658132.7124  -17940091.63847 -13831329.89263
 91  3 22  0 54 59.9970000  0  5G15G13G19G 2G 6
  23050908.517    -2247074.688 5  -1648448.66321
  22661887.9314   -3116307.70045  -2172616.64661
  21676037.0644    4183038.28946   3278295.15162
  20007085.2984  -19901247.88648 -15423949.33064
  20651784.9154  -17973447.82147 -13857321.65563
 91  3 22  0 55 14.9970000  0  5G15G13G19G 2G 6
  23045859.009    -2273606.914 5  -1669123.02321
  22649713.1104   -3180295.57045  -2222477.02161
  21681273.009     4210553.977 6   3299735.89722
  20005581.509   -19909148.249 8 -15430105.43024
  20645444.384   -18006770.642 7 -13883287.41523
 91  3 22  0 55 29.9970000  0  5G15G13G19G 2G 6
  23040827.368    -2300041.754 5  -1689721.48521
  22637543.6964   -3244239.85445  -2272303.46561
  21686523.040     4238136.520 6   3321228.73722
  20004088.0794  -19916999.72448 -15436223.43264
  20639108.7204  -18040060.28047 -13909227.32563
 91  3 22  0 55 44.9970000  0  5G15G13G19G 2G 6
  23035818.399    -2326374.516 5  -1710240.41521
  22625385.931    -3308135.851 5  -2322092.25421
  21691782.501     4265789.827 6   3342776.72122
  20002603.8374  -19924798.43248 -15442300.32064
  20632781.892   -18073312.136 7 -13935137.79123
 91  3 22  0 55 59.9970000  0  5G15G13G19G 2G 6
  23030821.4624   -2352617.99245  -1730689.76861
  22613232.9854   -3371996.34745  -2371853.36261
  21697058.321     4293500.979 6   3364369.77221
  20001126.8144  -19932557.44548 -15448346.27564
  20626458.493   -18106539.120 7 -13961028.87423
 91  3 22  0 56 14.9970000  0  5G15G13G19G 2G 6
  23025849.962    -2378756.153 5  -1751057.05221
  22601087.6184   -3435805.07845  -2421574.17161
  21702344.157     4321285.816 6   3386020.25222
  19999661.5174  -19940260.82748 -15454348.87864
  20620143.689   -18139725.116 7 -13986888.01723
 91  3 22  0 56 29.9970000  0  5G15G13G19G 2G 6
  23020895.993    -2404786.234 5  -1771340.11621
  22588958.3764   -3499559.45946  -2471252.61461
  21707648.7984    4349146.51646   3407729.84761
  19998205.9784  -19947906.18948 -15460306.27664
  20613837.4784  -18172867.50147 -14012713.18463
 91  3 22  0 56 44.9970000  0  5G15G13G19G 2G 6
  23015960.540    -2430722.469 5  -1791550.06621
  22576834.126    -3563273.308 6  -2520899.50121
  21712960.470     4377068.724 6   3429487.36522
  19996758.509   -19955508.257 8 -15466229.94324
  20607536.0564  -18205980.48947 -14038515.44363
 91  3 22  0 56 59.9970000  0  5G15G13G19G 2G 6
  23011044.337    -2456559.452 5  -1811682.68121
  22564716.478    -3626941.485 5  -2570510.77321
  21718286.954     4405057.275 6   3451296.57622
  19995322.1104  -19963062.25248 -15472116.14464
  20601241.3684  -18239059.07347 -14064290.89463
 91  3 22  0 57 14.9970000  0  5G15G13G19G 2G 6
  23006144.532    -2482300.768 5  -1831740.73721
  22552610.1894   -3690567.50446  -2620089.19061
  21723624.884     4433108.451 6   3473154.59121
  19993893.001   -19970572.122 8 -15477967.96724
  20594952.5564  -18272106.75247 -14090042.26963
 91  3 22  0 57 29.9970000  0  5G15G13G19G 2G 6
  23001265.142    -2507938.787 5  -1851718.30021
  22540510.6574   -3754143.73146  -2669628.85361
  21728976.798     4461229.365 6   3495066.93622
  19992473.6814  -19978030.53048 -15483779.68364
  20588670.5644  -18305116.02047 -14115763.71263
 91  3 22  0 57 44.9970000  0  5G15G13G19G 2G 6
  22996406.024    -2533477.025 5  -1871618.12221
  22528420.5014   -3817673.45045  -2719132.27261
  21734338.017     4489416.208 6   3517030.66521
  19991063.8144  -19985441.36048 -15489554.32764
  20582395.470   -18338090.480 7 -14141458.02923
 91  3 22  0 57 59.9970000  0  5G15G13G19G 2G 6
  22991569.360    -2558906.103 5  -1891432.87921
  22516341.9464   -3881147.36645  -2768592.18461
  21739717.634     4517677.924 6   3539052.73322
  19989664.5794  -19992795.60448 -15495284.87964
  20576129.1894  -18371020.90847 -14167118.03263
 91  3 22  0 58 14.9970000  0  5G15G13G19G 2G 6
  22986750.3994   -2584229.78645  -1911165.50561
  22504272.3374   -3944568.86145  -2818011.27961
  21745109.017     4546010.739 6   3561130.20021
  19988274.7354  -20000096.92448 -15500974.18564
  20569870.3374  -18403910.76447 -14192746.42263
 91  3 22  0 58 29.9970000  0  5G15G13G19G 2G 6
  22981948.5014   -2609454.69545  -1930821.18061
  22492214.1184   -4007944.47345  -2867394.58661
  21750512.837     4574407.690 6   3583257.65022
  19986894.8144  -20007352.34848 -15506627.72964
  20563617.9234  -18436766.73947 -14218348.41263
 91  3 22  0 58 44.9970000  0  5G15G13G19G 2G 6
  22977168.321    -2634578.053 5  -1950397.71521
  22480163.2514   -4071271.46545  -2916740.00761
  21755928.829     4602871.070 6   3605436.84921
  19985522.6494  -20014559.93148 -15512243.99864
  20557372.4854  -18469586.36547 -14243922.08263
 91  3 22  0 58 59.9970000  0  5G15G13G19G 2G 6
  22972406.017    -2659598.388 5  -1969893.97421
  22468121.462    -4134548.243 5  -2966046.33321
  21761363.1184    4631402.05445   3627668.73861
  19984159.8144  -20021718.46048 -15517822.04364
  20551134.8844  -18502368.21547 -14269466.31363
 91  3 22  0 59 14.9970000  0  5G15G13G19G 2G 6
  22967665.126    -2684517.984 5  -1989311.73821
  22456088.2434   -4197777.00145  -3015315.24061
  21766800.001     4659998.127 6   3649951.35621
  19982806.5014  -20028830.39548 -15523363.78464
  20544902.6654  -18535114.55047 -14294982.87163
 91  3 22  0 59 29.9970000  0  5G15G13G19G 2G 6
  22962942.673    -2709332.397 5  -2008647.52721
  22444065.564    -4260953.015 5  -3064543.03021
  21772256.134     4688663.228 6   3672287.75521
  19981463.3534  -20035891.67348 -15528866.04864
  20538679.2044  -18567820.98047 -14320468.33863
 91  3 22  0 59 44.9970000  0  5G15G13G19G 2G 6
  22958237.454    -2734045.730 5  -2027904.56521
  22432051.821    -4324080.738 5  -3113733.19821
  21777721.493     4717392.699 6   3694674.30621
  19980127.759   -20042907.221 8 -15534332.68424
  20532461.9394  -18600491.95347 -14345926.17163
 91  3 22  0 59 59.9970000  0  5G15G13G19G 2G 6
  22953554.056    -2758662.933 5  -2047086.69021
  22420049.009    -4387164.919 5  -3162889.42721
  21783204.017     4746181.402 5   3717107.01721
  19978800.470   -20049881.904 8 -15539767.47824
  20526250.1894  -18633132.24347 -14371360.09563
 91  3 22  1  0 14.9970000  0  5G15G13G19G 2G 6
  22948889.478    -2783180.173 5  -2066190.92221
  22408052.954    -4450201.323 5  -3212008.45321
  21788689.665     4775033.018 6   3739588.74721
  19977481.939   -20056812.159 8 -15545167.65024
  20520045.6034  -18665738.05547 -14396767.15763
 91  3 22  1  0 29.9970000  0  5G15G13G19G 2G 6
  22944242.7904   -2807594.50545  -2085214.98461
  22396065.939    -4513187.305 5  -3261088.18021
  21794194.251     4803949.985 6   3762121.39521
  19976172.142   -20063695.859 8 -15550531.54824
  20513848.2434  -18698306.55447 -14422145.14463
 91  3 22  1  0 44.9970000  0  5G15G13G19G 2G 6
  22939616.5174   -2831905.93645  -2104158.82961
  22384090.392    -4576122.604 5  -3310128.38921
  21799708.009     4832931.984 6   3784704.72221
  19974870.1654  -20070533.13648 -15555859.26764
  20507658.1494  -18730837.80847 -14447494.10262
 91  3 22  1  0 59.9970000  0  5G15G13G19G 2G 6
  22935009.5404   -2856112.68345  -2123021.11261
  22372123.4934   -4639005.15545  -3359127.53561
  21805237.415     4861980.794 5   3807340.11321
  19973578.8534  -20077322.19048 -15561149.41164
  20501474.5174  -18763329.82847 -14472812.49363
 91  3 22  1  1 14.9970000  0  5G15G13G19G 2G 6
  22930422.306    -2880213.192 5  -2141800.61421
  22360168.9394   -4701833.83345  -3408084.68861
  21810777.157     4891096.992 6   3830028.01921
  19972296.1894  -20084062.48248 -15566401.55764
  20495298.790   -18795781.722 7 -14498099.61023
 91  3 22  1  1 29.9970000  0  5G15G13G19G 2G 6
  22925856.2824   -2904211.41345  -2160500.39661
  22348221.321    -4764612.197 5  -3457002.60521
  21816328.478     4920276.605 6   3852765.33321
  19971021.7284  -20090757.78848 -15571618.65064
  20489129.8294  -18828197.01047 -14523358.20563
 91  3 22  1  1 44.9970000  0  5G15G13G19G 2G 6
  22921311.204    -2928100.381 5  -2179115.06821
  22336286.009    -4827333.227 5  -3505875.85421
  21821895.4854    4949526.19746   3875557.18961
  19969757.7124  -20097401.80348 -15576795.77364
  20482969.7044  -18860568.93647 -14548583.01563
 91  3 22  1  1 59.9970000  0  5G15G13G19G 2G 6
  22916784.0484   -2951890.53945  -2197652.73061
  22324358.837    -4890007.371 5  -3554712.60621
  21827473.5794    4978835.08845   3898395.24761
  19968501.6184  -20104005.30948 -15581941.33364
  20476816.6654  -18892907.93347 -14573782.16463
 91  3 22  1  2 14.9970000  0  5G15G13G19G 2G 6
  22912274.1964   -2975571.77945  -2216105.52661
  22312444.3994   -4952624.20846  -3603504.67361
  21833063.267     5008212.913 5   3921287.01521
  19967254.243   -20110558.459 8 -15587047.65624
  20470670.4464  -18925203.98947 -14598947.85763
 91  3 22  1  2 29.9970000  0  5G15G13G19G 2G 6
  22907791.1034   -2999143.27245  -2234472.80661
  22300540.7594   -5015182.77446  -3652251.35961
  21838669.110     5037660.532 5   3944233.16121
  19966016.5404  -20117060.61048 -15592114.24064
  20464532.2824  -18957456.08147 -14624079.28963
 91  3 22  1  2 44.9970000  0  5G15G13G19G 2G 6
  22903323.9704   -3022611.62345  -2252759.71361
  22288643.0324   -5077689.60246  -3700957.71161
  21844282.564     5067170.888 5   3967228.19621
  19964787.821   -20123518.777 8 -15597146.55824
  20458403.4704  -18989670.93547 -14649181.70363
 91  3 22  1  2 59.9970000  0  5G15G13G19G 2G 6
  22898879.3454   -3045967.88145  -2270959.27961
  22276760.860    -5140135.905 6  -3749616.94021
  21849913.6424    5096752.59745   3990278.81661
  19963569.5244  -20129924.60348 -15602138.08364
  20452281.6424  -19021839.85847 -14674248.32763
 91  3 22  1  3 14.9970000  0  5G15G13G19G 2G 6
  22894452.954    -3069221.184 5  -2289078.61921
  22264887.0174   -5202530.70546  -3798235.99461
  21855553.071     5126396.312 6   4013377.76621
  19962358.2434  -20136287.27848 -15607095.98364
  20446166.087   -19053971.851 7 -14699286.17323
 91  3 22  1  3 29.9970000  0  5G15G13G19G 2G 6
  22890050.962    -3092368.978 5  -2307115.75221
  22253024.829    -5264871.313 6  -3846812.82521
  21861209.228     5156104.006 5   4036526.58021
  19961156.087   -20142604.584 8 -15612018.53224
  20440059.3214  -19086064.36847 -14724293.26063
 91  3 22  1  3 44.9970000  0  5G15G13G19G 2G 6
  22885666.689    -3115399.051 5  -2325061.14421
  22241173.556    -5327145.080 6  -3895337.59921
  21866873.728     5185887.604 5   4059734.52821
  19959964.446   -20148864.643 8 -15616896.47624
  20433962.3684  -19118105.25147 -14749260.11263
 91  3 22  1  3 59.9970000  0  5G15G13G19G 2G 6
  22881308.5564   -3138306.53145  -2342911.01761
  22229338.3374   -5389347.07946  -3943806.42661
  21872557.735     5215751.641 5   4083005.15921
  19958785.462   -20155062.947 8 -15621726.29724
  20427875.954   -19150089.673 7 -14774182.96023
 91  3 22  1  4 14.9970000  0  5G15G13G19G 2G 6
  22876972.009    -3161094.391 5  -2360667.68621
  22217511.6424   -5451480.39746  -3992221.73061
  21878254.017     5245692.552 5   4106335.69521
  19957617.196   -20161203.042 8 -15626510.76724
  20421799.689   -19182020.772 7 -14799064.26323
 91  3 22  1  4 29.9970000  0  5G15G13G19G 2G 6
  22872658.103    -3183768.605 5  -2378335.79521
  22205702.142    -5513551.032 6  -4040588.21121
  21883967.204     5275704.107 5   4129721.27621
  19956458.423   -20167291.123 8 -15631254.70424
  20415732.4854  -19213904.54447 -14823908.69363
 91  3 22  1  4 44.9970000  0  5G15G13G19G 2G 6
  22868360.423    -3206351.526 5  -2395932.77121
  22193898.673    -5575580.999 6  -4088922.99221
  21889685.220     5305763.982 5   4153144.50421
  19955305.673   -20173349.634 8 -15635975.59624
  20409669.6494  -19245763.15647 -14848733.51563
 91  3 22  1  4 59.9970000  0  5G15G13G19G 2G 6
  22864083.2204   -3228829.99045  -2413448.35861
  22182101.806    -5637557.450 6  -4137216.09021
  21895417.821     5335884.736 5   4176615.17221
  19954160.548   -20179366.106 8 -15640663.73824
  20403614.439   -19277583.788 7 -14873528.73923
 91  3 22  1  5 14.9970000  0  5G15G13G19G 2G 6
  22859824.524    -3251199.372 5  -2430878.94021
  22170320.0874   -5699475.61546  -4185463.75261
  21901162.142     5366070.687 5   4200136.64921
  19953024.790   -20185336.213 8 -15645315.74024
  20397566.032   -19309361.708 7 -14898290.67823
 91  3 22  1  5 29.9970000  0  5G15G13G19G 2G 6
  22855588.657    -3273459.543 5  -2448224.42321
  22158548.931    -5761334.866 6  -4233665.50921
  21906920.907     5396321.783 5   4223708.89521
  19951897.228   -20191260.101 8 -15649931.73624
  20391527.939   -19341096.844 7 -14923019.28523
 91  3 22  1  5 44.9970000  0  5G15G13G19G 2G 6
  22851373.8994   -3295612.18146  -2465486.11761
  22146787.8294   -5823137.02846  -4281822.80261
  21912685.712     5426635.713 5   4247330.09421
  19950777.7744  -20197139.84248 -15654513.32764
  20385497.2354  -19372790.94847 -14947715.92263
 91  3 22  1  5 59.9970000  0  5G15G13G19G 2G 6
  22847179.9154   -3317654.63846  -2482661.95061
  22135039.759    -5884879.198 6  -4329933.35421
  21918468.860     5457015.096 5   4271002.29421
  19949668.5404  -20202972.85048 -15659058.49964
  20379473.946   -19404441.182 7 -14972378.36823
 91  3 22  1  6 14.9970000  0  5G15G13G19G 2G 6
  22843007.2984   -3339582.72746  -2499748.68461
  22123300.767    -5946557.163 6  -4377993.83721
  21924261.095     5487463.924 5   4294728.60221
  19948567.110   -20208755.360 8 -15663564.32524
  20373460.290   -19436043.330 7 -14997003.34323
 91  3 22  1  6 29.9970000  0  5G15G13G19G 2G 6
  22838858.5484   -3361382.79246  -2516735.64561
  22111578.5484   -6008157.16646  -4425993.60961
  21930072.368     5517995.253 5   4318519.19421
  19947478.478   -20214474.039 8 -15668020.41524
  20367458.142   -19467583.925 7 -15021580.36123
 91  3 22  1  6 44.9970000  0  5G15G13G19G 2G 6
  22834732.665    -3383067.087 6  -2533632.41321
  22099869.9784   -6069691.20646  -4473941.98761
  21935894.626     5548596.844 5   4342364.54821
  19946401.353   -20220141.227 8 -15672436.38624
  20361465.6574  -19499074.97747 -15046118.76963
 91  3 22  1  6 59.9970000  0  5G15G13G19G 2G 6
  22830627.3064   -3404644.40146  -2550445.79361
  22088170.978    -6131168.146 6  -4521845.83521
  21941732.5244    5579259.24645   4366257.28861
  19945330.235   -20225766.403 8 -15676819.61624
  20355479.8844  -19530525.70347 -15070625.76163
 91  3 22  1  7 14.9970000  0  5G15G13G19G 2G 6
  22826540.3764   -3426109.62346  -2567171.85861
  22076482.439    -6192582.872 6  -4569701.23721
  21947576.9464    5609987.15745   4390201.07261
  19944269.282   -20231344.991 8 -15681166.54724
  20349504.556   -19561931.000 7 -15095097.35023
 91  3 22  1  7 29.9970000  0  5G15G13G19G 2G 6
  22822477.7044   -3447465.04346  -2583812.34061
  22064808.7044   -6253937.35346  -4617509.67461
  21953437.251     5640778.182 5   4414194.03121
  19943215.774   -20236879.263 8 -15685478.94324
  20343536.3604  -19593292.89547 -15119535.12763
 91  3 22  1  7 44.9970000  0  5G15G13G19G 2G 6
  22818433.6964   -3468712.30946  -2600368.56161
  22053142.782    -6315233.175 6  -4665272.42021
  21959307.134     5671630.154 5   4438234.48321
  19942169.993   -20242371.233 8 -15689758.37324
  20337576.3144  -19624613.30947 -15143940.57863
 91  3 22  1  7 59.9970000  0  5G15G13G19G 2G 6
  22814408.759    -3489869.836 6  -2616854.85921
  22041487.6574   -6376488.49646  -4713003.60161
  21965188.149     5702524.859 5   4462308.23121
  19941129.470   -20247839.518 8 -15694019.34824
  20331619.5404  -19655910.33547 -15168327.80563
 91  3 22  1  8 14.9970000  0  5G15G13G19G 2G 6
  22810401.782    -3510922.342 6  -2633259.31921
  22029840.0014   -6437688.08846  -4760691.36361
  21971075.845     5733476.881 5   4486426.63021
  19940097.110   -20253269.383 8 -15698250.38724
  20325672.5404  -19687168.77147 -15192684.96163
 91  3 22  1  8 29.9970000  0  5G15G13G19G 2G 6
  22806416.8534   -3531860.68046  -2649574.80961
  22018206.1734   -6498822.86446  -4808328.61861
  21976980.157     5764494.920 5   4510596.48721
  19939072.564   -20258651.976 8 -15702444.59724
  20319732.8064  -19718379.68147 -15217005.08663
 91  3 22  1  8 44.9970000  0  5G15G13G19G 2G 6
  22802451.673    -3552700.554 6  -2665813.58321
  22006582.3144   -6559908.23846  -4855927.37761
  21982891.962     5795563.013 5   4534805.33621
  19938054.845   -20264003.331 8 -15706614.46224
  20313800.0244  -19749558.71247 -15241300.36963
 91  3 22  1  8 59.9970000  0  5G15G13G19G 2G 6
  22798506.6734   -3573430.45346  -2681966.66261
  21994970.8684   -6620932.67146  -4903478.65261
  21988817.079     5826692.364 5   4559061.92721
  19937044.095   -20269312.261 8 -15710751.26524
  20307874.5484  -19780694.28347 -15265561.78863
 91  3 22  1  9 14.9970000  0  5G15G13G19G 2G 6
  22794582.4784   -3594047.51746  -2698031.82061
  21983370.017    -6681893.057 6  -4950980.00421
  21994750.993     5857885.665 5   4583368.34821
  19936042.6034  -20274576.01948 -15714852.86964
  20301959.4074  -19811783.50147 -15289787.08963
 91  3 22  1  9 29.9970000  0  5G15G13G19G 2G 6
  22790680.720    -3614553.002 6  -2714010.03121
  21971781.1654   -6742790.56346  -4998432.37061
  22000701.110     5889141.119 5   4607723.20221
  19935048.704   -20279796.214 8 -15718920.53024
  20296051.6034  -19842827.73447 -15313977.33863
 91  3 22  1  9 44.9970000  0  5G15G13G19G 2G 6
  22786801.1814   -3634944.13346  -2729899.14261
  21960203.8064   -6803622.23146  -5045833.45861
  22006659.056     5920461.277 5   4632128.45921
  19934063.610   -20284970.252 8 -15722952.22424
  20290152.9934  -19873824.14147 -15338130.31963
 91  3 22  1  9 59.9970000  0  5G15G13G19G 2G 6
  22782941.728    -3655223.099 6  -2745700.83321
  21948642.634    -6864390.132 6  -5093184.83121
  22012633.501     5951843.841 5   4656582.35821
  19933087.954   -20290100.630 8 -15726949.89824
  20284263.001   -19904774.726 7 -15362247.60323
 91  3 22  1 10 14.9970000  0  5G15G13G19G 2G 6
  22779104.3294   -3675389.73645  -2761414.99961
  21937089.095    -6925093.731 6  -5140486.11321
  22018616.228     5983288.788 5   4681084.85721
  19932119.282   -20295187.280 8 -15730913.49824
  20278382.8764  -19935679.21547 -15386328.96163
 91  3 22  1 10 29.9970000  0  5G15G13G19G 2G 6
  22775288.1494   -3695436.10445  -2777035.45561
  21925549.204    -6985725.271 6  -5187731.25221
  22024613.9074    6014803.30745   4705641.57061
  19931162.064   -20300222.849 8 -15734837.29624
  20272511.6104  -19966530.03047 -15410368.50063
 91  3 22  1 10 44.9970000  0  5G15G13G19G 2G 6
  22771494.2284   -3715368.06245  -2792566.76661
  21914026.9544   -7046290.52846  -5234924.71061
  22030621.8294    6046381.26245   4730247.71761
  19930212.267   -20305213.792 8 -15738726.31724
  20266649.9464  -19997333.07147 -15434370.81263
 91  3 22  1 10 59.9970000  0  5G15G13G19G 2G 6
  22767724.5094   -3735187.87445  -2808010.68061
  21902511.6814   -7106791.85846  -5282068.36461
  22036643.017     6078020.037 5   4754901.25621
  19929270.306   -20310162.594 8 -15742582.50824
  20260797.3294  -20028090.48747 -15458337.57263
 91  3 22  1 11 14.9970000  0  5G15G13G19G 2G 6
  22763973.1964   -3754892.80245  -2823365.07761
  21891012.571    -7167226.422 6  -5329160.01021
  22042674.306     6109722.068 5   4779604.09121
  19928336.985   -20315066.834 8 -15746403.96924
  20254953.5794  -20058799.71847 -15482266.78063
 91  3 22  1 11 29.9970000  0  5G15G13G19G 2G 6
  22760244.3994   -3774483.61645  -2838630.55161
  21879523.892    -7227594.349 6  -5376199.74921
  22048722.165     6141486.547 5   4804355.58021
  19927411.821   -20319927.319 8 -15750191.33624
  20249118.6964  -20089461.17647 -15506158.76063
 91  3 22  1 11 44.9970000  0  5G15G13G19G 2G 6
  22756540.587    -3793955.135 5  -2853803.06221
  21868050.2204   -7287890.61046  -5423183.63561
  22054777.306     6173318.228 5   4829159.43921
  19926496.626   -20324739.349 8 -15753940.94524
  20243294.2354  -20120069.70247 -15530009.50263
 91  3 22  1 11 59.9970000  0  5G15G13G19G 2G 6
  22752858.4934   -3813305.92645  -2868881.50161
  21856590.454    -7348113.586 6  -5470110.39221
  22060849.032     6205218.253 5   4854016.54921
  19925590.532   -20329501.582 8 -15757651.75424
  20237479.4234  -20150623.81547 -15553817.84363
 91  3 22  1 12 14.9970000  0  5G15G13G19G 2G 6
  22749194.2744   -3832548.81145  -2883875.86761
  21845141.3844   -7408276.18546  -5516990.12061
  22066928.353     6237173.269 5   4878916.51021
  19924690.845   -20334227.253 8 -15761334.06824
  20231673.5794  -20181136.44647 -15577593.86363
 91  3 22  1 12 29.9970000  0  5G15G13G19G 2G 6
  22745557.0794   -3851676.38445  -2898780.37861
  21833705.0874   -7468370.92046  -5563816.97361
  22073024.298     6269190.256 5   4903864.75021
  19923800.157   -20338909.350 8 -15764982.43124
  20225875.8604  -20211600.23847 -15601331.82363
 91  3 22  1 12 44.9970000  0  5G15G13G19G 2G 6
  22741936.4704   -3870695.99845  -2913600.77261
  21822281.360    -7528404.888 6  -5610596.47021
  22079124.290     6301261.654 5   4928855.39821
  19922915.774   -20343555.500 8 -15768602.78924
  20220086.7044  -20242022.61747 -15625037.51263
 91  3 22  1 12 59.9970000  0  5G15G13G19G 2G 6
  22738336.9074   -3889601.30545  -2928332.08561
  21810869.5564   -7588371.37246  -5657323.37961
  22085238.9234    6333393.92545   4953893.47761
  19922040.306   -20348159.386 8 -15772190.21024
  20214306.4784  -20272396.82547 -15648705.66463
 91  3 22  1 13 14.9970000  0  5G15G13G19G 2G 6
  22734763.0094   -3908392.92745  -2942974.81461
  21799471.9854   -7648270.94046  -5703998.15861
  22091365.798     6365586.060 5   4978978.20621
  19921171.493   -20352722.073 8 -15775745.52924
  20208535.7594  -20302723.54247 -15672336.81163
 91  3 22  1 13 29.9970000  0  5G15G13G19G 2G 6
  22731210.2354   -3927071.87045  -2957529.74061
  21788084.4464   -7708104.62546  -5750621.58661
  22097503.884     6397836.496 5   5004108.35721
  19920310.032   -20357244.958 8 -15779269.82924
  20202772.7984  -20333003.94547 -15695931.86863
 91  3 22  1 13 44.9970000  0  5G15G13G19G 2G 6
  22727676.954    -3945636.598 5  -2971995.66321
  21776711.0644   -7767870.86646  -5797192.48361
  22103650.610     6430146.505 5   5029284.94321
  19919457.915   -20361726.730 8 -15782762.09824
  20197020.1574  -20363236.48447 -15719489.63163
 91  3 22  1 13 59.9970000  0  5G15G13G19G 2G 6
  22724165.3144   -3964084.93845  -2986370.90161
  21765353.3064   -7827567.43446  -5843709.07261
  22109812.946     6462517.744 5   5054509.22821
  19918613.524   -20366165.493 8 -15786220.85224
  20191276.0714  -20393418.93647 -15743008.36063
 91  3 22  1 14 14.9970000  0  5G15G13G19G 2G 6
  22720675.3924   -3982420.08245  -3000657.93261
  21754004.2514   -7887197.18946  -5890173.60761
  22115983.220     6494946.993 5   5079778.72921
  19917776.1184  -20370564.70348 -15789648.77664
  20185541.9624  -20423554.38047 -15766490.46063
 91  3 22  1 14 29.9970000  0  5G15G13G19G 2G 6
  22717209.5714   -4000639.18545  -3014854.55061
  21742670.735    -7946757.448 6  -5936583.97221
  22122164.360     6527436.503 5   5105095.18121
  19916946.7594  -20374922.06148 -15793044.09264
  20179816.9934  -20453640.08547 -15789933.80763
 91  3 22  1 14 44.9970000  0  5G15G13G19G 2G 6
  22713763.9854   -4018745.07145  -3028962.94261
  21731348.9394   -8006250.82846  -5982942.24361
  22128357.407     6559983.412 5   5130456.35521
  19916124.9624  -20379240.43248 -15796409.02864
  20174099.9464  -20483678.73147 -15813340.48063
 91  3 22  1 14 59.9970000  0  5G15G13G19G 2G 6
  22710343.2514   -4036723.09746  -3042971.70261
  21720043.978    -8065661.999 6  -6029236.46021
  22134567.649     6592602.276 5   5155873.60521
  19915313.298   -20383504.942 8 -15799731.99724
  20168395.6574  -20513655.32247 -15836698.80163
 91  3 22  1 15 14.9970000  0  5G15G13G19G 2G 6
  22706945.345    -4054577.414 6  -3056884.06621
  21708751.985    -8124995.327 6  -6075470.00721
  22140785.3844    6625288.47245   5181343.32361
  19914511.7124  -20387720.40048 -15803016.73764
  20162703.0324  -20543574.16347 -15860012.12064
 91  3 22  1 15 29.9970000  0  5G15G13G19G 2G 6
  22703570.532    -4072311.017 6  -3070702.37321
  21697476.0644   -8184254.02346  -6121645.40761
  22147018.501     6658038.483 5   5206862.76021
  19913717.6104  -20391890.43448 -15806266.08764
  20157019.7984  -20573438.50547 -15883282.97263
 91  3 22  1 15 44.9970000  0  5G15G13G19G 2G 6
  22700218.251    -4089928.974 6  -3084430.57021
  21686213.9544   -8243442.43546  -6167766.03261
  22153258.415     6690847.253 5   5232427.98421
  19912932.4234  -20396020.01748 -15809483.91564
  20151346.4854  -20603253.01247 -15906514.99363
 91  3 22  1 15 59.9970000  0  5G15G13G19G 2G 6
  22696888.423    -4107426.871 6  -3098065.20921
  21674964.267    -8302556.191 6  -6213828.49121
  22159517.407     6723718.583 5   5258041.96121
  19912154.8844  -20400105.11748 -15812667.07964
  20145683.4234  -20633013.40847 -15929704.85464
 91  3 22  1 16 14.9970000  0  5G15G13G19G 2G 6
  22693581.181    -4124810.717 6  -3111610.98221
  21663725.509    -8361601.304 6  -6259837.48221
  22165781.3144    6756646.16545   5283699.76361
  19911385.1034  -20404152.03048 -15815820.48964
  20140028.4464  -20662725.76447 -15952857.27763
 91  3 22  1 16 29.9960000  0  5G15G13G19G 2G 6
  22690296.520    -4142070.212 6  -3125059.85921
  21652507.1914   -8420564.35146  -6305782.51161
  22172061.715     6789637.025 5   5309406.85921
  19910623.8094  -20408151.42548 -15818936.87164
  20134385.8094  -20692378.52147 -15975963.25464
 91  3 22  1 16 44.9960000  0  5G15G13G19G 2G 6
  22687033.988    -4159216.701 6  -3138420.67721
  21641299.621    -8479462.225 6  -6351676.77021
  22178347.7544    6822685.78945   5335159.08861
  19909868.6374  -20412113.17348 -15822023.91964
  20128751.3244  -20721984.93547 -15999033.12463
 91  3 22  1 16 59.9960000  0  5G15G13G19G 2G 6
  22683793.6214   -4176243.38846  -3151688.13661
  21630105.363    -8538285.235 6  -6397512.67921
  22184649.3094    6855795.61845   5360958.88961
  19909124.043   -20416031.901 8 -15825077.44724
  20123128.7234  -20751537.34047 -16022060.91263
 91  3 22  1 17 14.9960000  0  5G15G13G19G 2G 6
  22680575.168    -4193153.992 6  -3164865.15421
  21618923.121    -8597036.861 6  -6443292.96821
  22190960.8634    6888962.45845   5386803.12861
  19908385.9104  -20419911.51748 -15828100.49664
  20117513.9884  -20781039.58247 -16045049.60863
 91  3 22  1 17 29.9960000  0  5G15G13G19G 2G 6
  22677379.8324   -4209946.68946  -3177950.30761
  21607757.5824   -8655715.20346  -6489016.15961
  22197285.699     6922187.973 5   5412693.07521
  19907655.7544  -20423750.47948 -15831091.86164
  20111910.0274  -20810489.55247 -16067997.57763
 91  3 22  1 17 44.9960000  0  5G15G13G19G 2G 6
  22674208.316    -4226618.024 6  -3190940.87721
  21596606.863    -8714316.470 6  -6534679.28921
  22203617.598     6955475.625 5   5438631.45921
  19906933.1994  -20427545.23848 -15834048.78864
  20106315.5514  -20839883.45647 -16090901.85564
 91  3 22  1 17 59.9960000  0  5G15G13G19G 2G 6
  22671058.191    -4243165.887 6  -3203835.22621
  21585470.9494   -8772838.64146  -6580280.79961
  22209966.348     6988826.953 5   5464619.44921
  19906219.1294  -20431294.18248 -15836970.01364
  20100734.1524  -20869219.40347 -16113760.96463
 91  3 22  1 18 14.9960000  0  5G15G13G19G 2G 6
  22667933.106    -4259593.389 6  -3216635.80221
  21574348.7154   -8831284.93946  -6625823.15861
  22216321.2854    7022238.49845   5490654.35861
  19905514.0664  -20435000.93748 -15839858.36564
  20095161.4024  -20898500.62747 -16136577.43463
 91  3 22  1 18 29.9960000  0  5G15G13G19G 2G 6
  22664830.324    -4275890.493 6  -3229334.76821
  21563243.160    -8889645.086 6  -6671298.41221
  22222695.4574    7055719.99745   5516743.76961
  19904819.199   -20438655.489 8 -15842706.04224
  20089601.9574  -20927716.90047 -16159343.30163
 91  3 22  1 18 44.9960000  0  5G15G13G19G 2G 6
  22661751.395    -4292066.706 6  -3241939.52521
  21552150.840    -8947928.303 6  -6716713.71721
  22229075.5434    7089261.60245   5542880.03261
  19904131.2934  -20442267.71948 -15845520.73765
  20084052.5594  -20956877.75047 -16182065.97563
 91  3 22  1 18 59.9960000  0  5G15G13G19G 2G 6
  22658698.168    -4308121.332 6  -3254449.55221
  21541076.402    -9006133.538 6  -6762068.25621
  22235471.4654    7122863.72045   5569063.42961
  19903452.3714  -20445837.05748 -15848301.99764
  20078514.4734  -20985982.28547 -16204744.76863
 91  3 22  1 19 14.9960000  0  5G15G13G19G 2G 6
  22655664.3404   -4324049.98746  -3266861.40461
  21530014.6134   -9064256.43146  -6807358.63261
  22241876.402     7156530.646 5   5595297.35321
  19902782.0664  -20449359.34248 -15851046.60964
  20072987.3324  -21015026.01547 -16227376.18263
 91  3 22  1 19 29.9960000  0  5G15G13G19G 2G 6
  22652659.0354   -4339852.95846  -3279175.32361
  21518968.988    -9122297.165 6  -6852584.99121
  22248297.6524    7190261.68945   5621581.20861
  19902119.9814  -20452835.00848 -15853754.89064
  20067471.9184  -21044009.25547 -16249960.45563
 91  3 22  1 19 44.9960000  0  5G15G13G19G 2G 6
  22649674.918    -4355532.486 6  -3291393.05621
  21507939.2384   -9180257.76446  -6897748.90661
  22254725.4264    7224054.50945   5647913.22561
  19901466.6844  -20456266.49048 -15856428.74564
  20061968.5354  -21072934.05947 -16272499.19863
 91  3 22  1 19 59.9960000  0  5G15G13G19G 2G 6
  22646715.0434   -4371081.34146  -3303508.95761
  21496927.207    -9238130.742 6  -6942844.54021
  22261169.8714    7257916.05445   5674298.78061
  19900823.3244  -20459646.86248 -15859062.76964
  20056476.1914  -21101793.08647 -16294986.68763
 91  3 22  1 20 14.9960000  0  5G15G13G19G 2G 6
  22643780.0124   -4386513.08946  -3315533.59661
  21485927.9964   -9295929.57846  -6987882.41261
  22267624.191     7291832.383 5   5700727.04021
  19900187.0664  -20462990.04448 -15861667.81865
  20050994.9884  -21130599.81347 -16317433.42063
 91  3 22  1 20 29.9960000  0  5G15G13G19G 2G 6
  22640863.3874   -4401825.56546  -3327465.32461
  21474944.3014   -9353652.30046  -7032860.98761
  22274091.207     7325805.113 5   5727199.24421
  19899559.1914  -20466294.33848 -15864242.56364
  20045523.5824  -21159352.28047 -16339837.87763
 91  3 22  1 20 44.9960000  0  5G15G13G19G 2G 6
  22637973.816    -4417012.849 6  -3339299.47721
  21463976.848    -9411292.855 6  -7077775.51721
  22280564.066     7359839.722 5   5753719.66021
  19898938.9264  -20469553.85448 -15866782.41465
  20040062.4344  -21188044.41647 -16362195.31963
 91  3 22  1 20 59.9960000  0  5G15G13G19G 2G 6
  22635107.199    -4432075.914 5  -3351036.85421
  21453022.4814   -9468851.61346  -7122626.33161
  22287055.145     7393935.384 5   5780287.66321
  19898326.2464  -20472769.70448 -15869288.24064
  20034614.3794  -21216676.96547 -16384506.33363
 91  3 22  1 21 14.9960000  0  5G15G13G19G 2G 6
  22632265.3714   -4447013.68245  -3362676.58061
  21442085.332    -9526327.483 6  -7167412.54421
  22293554.8014    7428092.54045   5806903.57061
  19897723.2704  -20475941.11148 -15871759.43665
  20029177.8404  -21245248.89447 -16406770.10863
 91  3 22  1 21 29.9960000  0  5G15G13G19G 2G 6
  22629448.4344   -4461824.80046  -3374217.61661
  21431163.4344   -9583719.10346  -7212133.10261
  22300070.512     7462312.565 5   5833568.49021
  19897127.6684  -20479066.94448 -15874195.12264
  20023752.5354  -21273758.80047 -16428985.55663
 91  3 22  1 21 44.9960000  0  5G15G13G19G 2G 6
  22626650.7314   -4476513.95146  -3385663.60961
  21420257.7464   -9641030.73246  -7256791.34061
  22306589.254     7496590.624 5   5860278.60321
  19896541.332   -20482151.944 8 -15876598.99524
  20018338.3874  -21302211.06047 -16451156.08363
 91  3 22  1 21 59.9960000  0  5G15G13G19G 2G 6
  22623878.871    -4491072.663 6  -3397007.97321
  21409367.660    -9698254.027 6  -7301380.74421
  22313124.207     7530934.438 5   5887039.97721
  19895962.535   -20485188.233 8 -15878964.90824
  20012935.4264  -21330597.43347 -16473275.26963
 91  3 22  1 22 14.9960000  0  5G15G13G19G 2G 6
  22621133.3874   -4505509.52846  -3408257.39661
  21398494.1134   -9755397.26346  -7345907.77261
  22319669.613     7565335.616 5   5913846.03021
  19895392.7934  -20488184.42948 -15881299.57664
  20007545.3634  -21358926.12547 -16495349.51463
 91  3 22  1 22 29.9960000  0  5G15G13G19G 2G 6
  22618408.9104   -4519822.68946  -3419410.40161
  21387634.8484   -9812458.89546  -7390371.20861
  22326230.668     7599795.126 5   5940697.55021
  19894830.5204  -20491139.21648 -15883601.97664
  20002165.0434  -21387195.58947 -16517377.60763
 91  3 22  1 22 44.9960000  0  5G15G13G19G 2G 6
  22615710.762    -4534006.636 6  -3430462.75621
  21376792.4574   -9869432.41946  -7434765.99361
  22332797.6844    7634318.85045   5967599.09861
  19894277.4494  -20494046.84848 -15885867.63664
  19996797.7774  -21415399.73347 -16539354.79963
 91  3 22  1 22 59.9960000  0  5G15G13G19G 2G 6
  22613036.5354   -4548063.26746  -3441415.89461
  21365967.715    -9926319.876 6  -7479093.71121
  22339380.504     7668904.380 5   5994548.80821
  19893731.5824  -20496909.67648 -15888098.38164
  19991442.9344  -21443540.60347 -16561282.68963
 91  3 22  1 23 14.9960000  0  5G15G13G19G 2G 6
  22610383.1524   -4561996.59846  -3452272.94061
  21355158.434    -9983125.470 6  -7523357.63721
  22345970.910     7703547.154 5   6021543.12421
  19893195.4814  -20499732.11448 -15890297.65765
  19986099.5824  -21471622.33947 -16583164.49763
 91  3 22  1 23 29.9960000  0  5G15G13G19G 2G 6
  22607755.691    -4575798.041 6  -3463027.22521
  21344366.809   -10039840.253 6  -7567550.81521
  22352577.7234    7738255.69545   6048588.70161
  19892667.832   -20502505.654 8 -15892458.83125
  19980769.3564  -21499636.08947 -16604993.32963
 91  3 22  1 23 44.9960000  0  5G15G13G19G 2G 6
  22605153.9184   -4589482.34246  -3473690.24961
  21333586.949   -10096478.799 6  -7611684.57521
  22359191.738     7773014.906 5   6075673.74821
  19892147.418   -20505245.152 8 -15894593.48425
  19975447.9574  -21527596.46447 -16626780.57263
 91  3 22  1 23 59.9960000  0  5G15G13G19G 2G 6
  22602573.5664   -4603044.02846  -3484257.71261
  21322824.2854  -10153035.58946  -7655754.62761
  22365820.441     7807829.936 5   6102802.29121
  19891633.387   -20507945.420 8 -15896697.56525
  19970138.8244  -21555498.01647 -16648521.98563
 91  3 22  1 24 14.9960000  0  5G15G13G19G 2G 6
  22600014.488    -4616477.968 6  -3494725.62421
  21312078.1454  -10209505.21146  -7699756.77261
  22372451.832     7842705.703 5   6129978.17021
  19891127.215   -20510601.372 8 -15898767.11225
  19964840.9184  -21583335.39747 -16670213.39063
 91  3 22  1 24 29.9960000  0  5G15G13G19G 2G 6
  22597483.676    -4629782.224 6  -3505092.50221
  21301350.731   -10265885.284 6  -7743689.13121
  22379102.0824    7877644.08145   6157202.82861
  19890630.277   -20513211.228 8 -15900800.73925
  19959555.9654  -21611106.37047 -16691853.05263
 91  3 22  1 24 44.9960000  0  5G15G13G19G 2G 6
  22594979.3484   -4642950.89846  -3515353.71961
  21290637.582   -10322169.905 6  -7787547.11121
  22385764.1844    7912650.59845   6184480.59061
  19890143.777   -20515769.459 8 -15902794.14525
  19954286.1064  -21638804.97547 -16713436.32163
 91  3 22  1 24 59.9960000  0  5G15G13G19G 2G 6
  22592498.0274   -4655991.02846  -3525514.78061
  21279945.074   -10378366.049 6  -7831336.14921
  22392439.301     7947717.614 5   6211805.49321
  19889665.356   -20518283.408 8 -15904753.03925
  19949026.9494  -21666438.34547 -16734968.76363
 91  3 22  1 25 14.9960000  0  5G15G13G19G 2G 6
  22590040.996    -4668905.864 6  -3535578.19821
  21269267.059   -10434477.024 6  -7875058.81921
  22399119.559     7982841.740 5   6239174.88021
  19889194.012   -20520756.571 8 -15906680.15725
  19943779.7154  -21694009.73747 -16756452.90463
 91  3 22  1 25 29.9960000  0  5G15G13G19G 2G 6
  22587606.160    -4681698.145 6  -3545546.13021
  21258605.215   -10490505.329 6  -7918717.07621
  22405814.996     8018020.011 5   6266586.48021
  19888731.121   -20523191.741 8 -15908577.66625
  19938545.2384  -21721521.57247 -16777890.63763
 91  3 22  1 25 44.9960000  0  5G15G13G19G 2G 6
  22585193.824    -4694373.186 6  -3555422.70921
  21247958.6844  -10546456.03446  -7962314.85561
  22412518.4654    8053246.88945   6294035.94061
  19888273.8874  -20525594.59848 -15910449.99565
  19933320.051   -21748979.194 7 -16799286.13423
 91  3 22  1 25 59.9960000  0  5G15G13G19G 2G 6
  22582807.574    -4706917.398 6  -3565197.33621
  21237328.6684  -10602315.46846  -8005841.53061
  22419234.965     8088535.424 5   6321533.44721
  19887825.918   -20527951.988 8 -15912286.89625
  19928107.949   -21776369.041 7 -16820628.81623
 91  3 22  1 26 14.9960000  0  5G15G13G19G 2G 6
  22580443.481    -4719332.029 6  -3574870.99021
  21226715.660   -10658084.424 6  -8049297.69121
  22425958.582     8123884.438 5   6349078.08121
  19887385.801   -20530265.138 8 -15914089.32525
  19922908.293   -21803691.957 7 -16841919.34623
 91  3 22  1 26 29.9960000  0  5G15G13G19G 2G 6
  22578108.527    -4731609.234 6  -3584437.56921
  21216122.215   -10713754.824 6  -8092677.04721
  22432699.840     8159301.424 5   6376675.68421
  19886954.152   -20532526.199 8 -15915851.16625
  19917723.0514  -21830940.14547 -16863151.64763
 91  3 22  1 26 44.9960000  0  5G15G13G19G 2G 6
  22575793.691    -4743768.048 6  -3593911.89721
  21205542.004   -10769345.672 6  -8135994.43021
  22439448.090     8194767.260 5   6404311.35221
  19886530.4104  -20534754.50048 -15917587.48065
  19912549.2464  -21858132.38047 -16884340.34363
 91  3 22  1 26 59.9960000  0  5G15G13G19G 2G 6
  22573504.941    -4755802.792 6  -3603289.52821
  21194980.145   -10824851.241 6  -8179245.35821
  22446209.184     8230287.370 5   6431989.31721
  19886113.340   -20536944.466 8 -15919293.92225
  19907385.3324  -21885262.83947 -16905480.90663
 91  3 22  1 27 14.9960000  0  5G15G13G19G 2G 6
  22571239.981    -4767704.335 6  -3612563.39121
  21184436.6454  -10880262.33046  -8222422.66961
  22452977.0434    8265870.37045   6459716.29161
  19885705.863   -20539087.228 8 -15920963.58325
  19902235.637   -21912322.469 7 -16926566.27523
 91  3 22  1 27 29.9960000  0  5G15G13G19G 2G 6
  22568996.832    -4779484.005 6  -3621742.28121
  21173906.660   -10935590.032 6  -8265534.99921
  22459761.090     8301504.590 5   6487483.14821
  19885305.270   -20541194.409 8 -15922605.51925
  19897098.9964  -21939322.55247 -16947605.24263
 91  3 22  1 27 44.9960000  0  5G15G13G19G 2G 6
  22566780.684    -4791136.329 6  -3630821.93521
  21163395.856   -10990828.698 6  -8308577.95321
  22466551.418     8337195.319 5   6515294.05621
  19884911.996   -20543260.652 8 -15924215.55225
  19891973.4964  -21966257.30547 -16968593.30463
 91  3 22  1 27 59.9960000  0  5G15G13G19G 2G 6
  22564587.1844   -4802660.81046  -3639801.98361
  21152902.8404  -11045977.38346  -8351550.79561
  22473355.387     8372942.978 5   6543149.32721
  19884526.027   -20545285.530 8 -15925793.35725
  19886860.371   -21993125.965 7 -16989529.86623
 91  3 22  1 28 14.9960000  0  5G15G13G19G 2G 6
  22562417.8564   -4814057.87646  -3648682.74761
  21142423.363   -11101036.391 6  -8394453.75321
  22480165.0744    8408746.85745   6571048.39461
  19884148.535   -20547269.768 8 -15927339.49125
  19881760.512   -22019928.791 7 -17010415.13223
 91  3 22  1 28 29.9960000  0  5G15G13G19G 2G 6
  22560276.8404   -4825323.99346  -3657461.46761
  21131964.027   -11156002.302 6  -8437284.16621
  22486994.309     8444609.853 5   6598993.54121
  19883779.363   -20549210.376 8 -15928851.62525
  19876672.496   -22046662.604 7 -17031246.61724
 91  3 22  1 28 44.9960000  0  5G15G13G19G 2G 6
  22558156.871    -4836456.767 6  -3666136.28021
  21121522.8324  -11210872.65846  -8480040.12861
  22493828.1134    8480534.18445   6626986.47161
  19883418.887   -20551105.010 8 -15930327.94125
  19871598.535   -22073324.937 7 -17052022.40724
 91  3 22  1 28 59.9960000  0  5G15G13G19G 2G 6
  22556064.910    -4847460.866 6  -3674710.83521
  21111098.613   -11265652.003 6  -8522725.17121
  22500676.309     8516514.827 5   6655023.27621
  19883065.941   -20552958.349 8 -15931772.07825
  19866536.910   -22099920.010 7 -17072745.78724
 91  3 22  1 29 14.9960000  0  5G15G13G19G 2G 6
  22553995.160    -4858327.339 6  -3683178.14721
  21100693.2624  -11320330.91746  -8565331.95861
  22507534.8874    8552560.71645   6683110.93961
  19882723.113   -20554761.668 7 -15933177.23825
  19861491.191   -22126438.766 7 -17093409.69824
 91  3 22  1 29 29.9960000  0  5G15G13G19G 2G 6
  22551951.0664   -4869064.39746  -3691544.62061
  21090305.027   -11374917.392 6  -8607866.70821
  22514406.6064    8588663.63645   6711243.01161
  19882387.152   -20556523.083 7 -15934549.74725
  19856457.434   -22152889.061 7 -17114020.26424
 91  3 22  1 29 44.9960000  0  5G15G13G19G 2G 6
  22549930.9884   -4879671.24446  -3699809.62161
  21079936.145   -11429410.419 6  -8650328.64421
  22521284.215     8624823.897 5   6739419.80721
  19882060.918   -20558241.927 7 -15935889.08325
  19851436.996   -22179270.037 7 -17134576.81424
 91  3 22  1 29 59.9960000  0  5G15G13G19G 2G 6
  22547938.3634   -4890150.03446  -3707974.84761
  21069584.3094  -11483812.01846  -8692719.34461
  22528177.2934    8661039.22045   6767639.47661
  19881741.6374  -20559920.60347 -15937197.11765
  19846430.051   -22205583.761 7 -17155080.96224
 91  3 22  1 30 14.9960000  0  5G15G13G19G 2G 6
  22545969.6374   -4900499.74346  -3716039.49461
  21059248.1064  -11538121.11546  -8735037.96461
  22535080.4814    8697310.14645   6795902.49161
  19881429.3954  -20561558.58748 -15938473.43764
  19841436.121   -22231829.325 7 -17175531.99824
 91  3 22  1 30 29.9960000  0  5G15G13G19G 2G 6
  22544022.1914   -4910716.17746  -3724000.28561
  21048932.2704  -11592333.43346  -8777281.16561
  22541995.1684    8733640.57345   6824211.86861
  19881126.4024  -20563151.82447 -15939714.89165
  19836454.6454  -22258002.25547 -17195926.43364
 91  3 22  1 30 44.9960000  0  5G15G13G19G 2G 6
  22542107.0824   -4920802.42746  -3731859.63461
  21038635.051   -11646451.544 6  -8819450.96421
  22548917.9344    8770027.29145   6852565.09861
  19880830.5744  -20564703.42948 -15940923.90765
  19831487.6524  -22284105.38747 -17216266.47364
 91  3 22  1 30 59.9960000  0  5G15G13G19G 2G 6
  22540208.231    -4930758.139 6  -3739617.26421
  21028353.8954  -11700474.90147  -8861546.93261
  22555853.449     8806470.475 5   6880962.33721
  19880544.895   -20566213.196 8 -15942100.32525
  19826534.340   -22310138.165 7 -17236551.69824
 91  3 22  1 31 14.9960000  0  5G15G13G19G 2G 6
  22538341.9494   -4940581.00146  -3747271.37961
  21018091.309   -11754401.250 6  -8903567.30821
  22562799.1374    8842972.01745   6909405.04261
  19880264.715   -20567679.201 8 -15943242.64325
  19821593.965   -22336098.458 7 -17256780.44424
 91  3 22  1 31 29.9960000  0  5G15G13G19G 2G 6
  22536495.4024   -4950275.22646  -3754825.25461
  21007846.4264  -11808234.50446  -8945515.14261
  22569756.645     8879527.544 5   6937889.82221
  19879993.3244  -20569105.74848 -15944354.21065
  19816666.902   -22361990.139 7 -17276955.72724
 91  3 22  1 31 44.9960000  0  5G15G13G19G 2G 6
  22534676.5124   -4959835.26246  -3762274.56961
  20997621.5274  -11861969.14046  -8987386.13061
  22576720.184     8916142.013 4   6966420.53221
  19879730.723   -20570487.464 8 -15945430.84725
  19811753.340   -22387807.826 7 -17297073.35024
 91  3 22  1 31 59.9960000  0  5G15G13G19G 2G 6
  22532884.0984   -4969262.86946  -3769620.69561
  20987413.5514  -11915606.92246  -9029181.65461
  22583702.5594    8952813.48244   6994995.63561
  19879475.9574  -20571826.46448 -15946474.19865
  19806854.582   -22413553.046 7 -17317134.50824
 91  3 22  1 32 14.9960000  0  5G15G13G19G 2G 6
  22531117.2384   -4978548.45646  -3776856.14861
  20977227.7934  -11969137.71546  -9070893.81561
  22590689.066     8989551.682 4   7023622.76821
  19879231.3794  -20573112.88248 -15947476.57265
  19801970.5744  -22439215.78247 -17337131.38564
 91  3 22  1 32 29.9960000  0  5G15G13G19G 2G 6
  22529374.441    -4987709.566 6  -3783994.61621
  20967057.9024  -12022578.69246  -9112535.98061
  22597695.3244    9026338.80444   7052287.99361
  19878991.981   -20574364.528 8 -15948451.85625
  19797099.691   -22464813.545 7 -17357077.63724
 91  3 22  1 32 44.9960000  0  5G15G13G19G 2G 6
  22527652.7934   -4996737.68846  -3791029.45561
  20956908.2074  -12075921.36947  -9154101.54861
  22604702.5824    9063182.89544   7080997.62561
  19878763.254   -20575573.067 8 -15949393.55325
  19792242.7464  -22490337.59547 -17376966.45464
 91  3 22  1 32 59.9960000  0  5G15G13G19G 2G 6
  22525961.5744   -5005627.45246  -3797956.47961
  20946776.3014  -12129160.25347  -9195586.24861
  22611727.035     9100089.043 4   7109755.60521
  19878542.3244  -20576733.44448 -15950297.71365
  19787400.9264  -22515782.48547 -17396793.58264
 91  3 22  1 33 14.9960000  0  5G15G13G19G 2G 6
  22524295.7154   -5014388.49046  -3804783.20661
  20936664.4654  -12182304.67647  -9236997.34061
  22618755.598     9137047.568 4   7138554.41021
  19878328.3164  -20577855.24448 -15951171.81165
  19782571.3324  -22541157.58547 -17416566.32664
 91  3 22  1 33 29.9960000  0  5G15G13G19G 2G 6
  22522654.473    -5023018.915 6  -3811508.13821
  20926569.0824  -12235352.56247  -9278333.19861
  22625804.426     9174060.139 4   7167395.31821
  19878122.5124  -20578936.70148 -15952014.47565
  19777756.1764  -22566460.76947 -17436283.03864
 91  3 22  1 33 44.9960000  0  5G15G13G19G 2G 6
  22521039.6134   -5031508.48546  -3818123.32861
  20916493.8164  -12288293.57047  -9319585.78561
  22632858.106     9211136.621 4   7196286.04321
  19877925.5044  -20579967.87948 -15952817.96365
  19772957.7934  -22591681.89847 -17455935.81064
 91  3 22  1 33 59.9960000  0  5G15G13G19G 2G 6
  22519446.5824   -5039866.82846  -3824636.26161
  20906438.4024  -12341137.09047  -9360762.40761
  22639926.6294    9248267.22144   7225218.91061
  19877737.8564  -20580958.31348 -15953589.70465
  19768171.418   -22616830.276 7 -17475531.89424
 91  3 22  1 34 14.9960000  0  5G15G13G19G 2G 6
  22517881.6524   -5048087.84646  -3831042.17561
  20896401.848   -12393876.819 7  -9401858.15921
  22647004.5824    9285457.83345   7254198.57861
  19877557.3404  -20581902.03848 -15954325.04565
  19763400.9964  -22641899.55347 -17495066.33864
 91  3 22  1 34 29.9960000  0  5G15G13G19G 2G 6
  22516342.043    -5056179.794 6  -3837347.53421
  20886385.0664  -12446520.89247  -9442879.36061
  22654088.1684    9322699.67245   7283218.14261
  19877384.613   -20582807.671 8 -15955030.70725
  19758644.082   -22666898.117 7 -17514545.68424
 91  3 22  1 34 44.9960000  0  5G15G13G19G 2G 6
  22514827.254    -5064141.804 6  -3843551.63621
  20876384.5984  -12499068.09147  -9483825.09361
  22661185.9104    9359993.50845   7312278.20661
  19877221.9814  -20583674.53648 -15955706.15865
  19753900.9414  -22691824.68847 -17533968.92864
 91  3 22  1 34 59.9960000  0  5G15G13G19G 2G 6
  22513335.3874   -5071972.50746  -3849653.41261
  20866402.738   -12551517.194 7  -9524694.37421
  22668291.5824    9397340.28945   7341379.54561
  19877063.9734  -20584501.54448 -15956350.55165
  19749170.981   -22716678.072 7 -17553335.14824
 91  3 22  1 35 14.9960000  0  5G15G13G19G 2G 6
  22511872.4104   -5079673.44146  -3855654.08661
  20856441.410   -12603869.240 7  -9565488.02921
  22675408.676     9434738.406 5   7370520.89121
  19876912.3404  -20585290.19648 -15956965.06165
  19744455.2624  -22741459.39347 -17572645.20764
 91  3 22  1 35 29.9960000  0  5G15G13G19G 2G 6
  22510431.0744   -5087241.88646  -3861551.50061
  20846498.0514  -12656121.26147  -9606203.73961
  22682534.441     9472190.352 5   7399704.17421
  19876770.8244  -20586037.81448 -15957547.58765
  19739754.4024  -22766165.79747 -17591896.88864
 91  3 22  1 35 44.9960000  0  5G15G13G19G 2G 6
  22509015.723    -5094674.781 6  -3867343.32021
  20836574.566   -12708270.188 7  -9646839.13121
  22689673.5824    9509699.08845   7428931.70461
  19876638.231   -20586741.516 8 -15958095.90225
  19735066.465   -22790793.935 7 -17611087.59424
 91  3 22  1 35 59.9960000  0  5G15G13G19G 2G 6
  22507628.4814   -5101977.98146  -3873034.06261
  20826667.981   -12760321.682 7  -9687398.59521
  22696818.8794    9547258.54544   7458198.75561
  19876509.481   -20587407.246 8 -15958614.63125
  19730394.488   -22815349.634 7 -17630221.84924
 91  3 22  1 36 14.9960000  0  5G15G13G19G 2G 6
  22506260.7234   -5109158.56446  -3878629.26661
  20816780.027   -12812282.735 7  -9727887.58221
  22703975.246     9584861.150 5   7487499.43721
  19876387.902   -20588042.321 8 -15959109.47125
  19725734.5744  -22839839.68447 -17649304.95064
 91  3 22  1 36 29.9960000  0  5G15G13G19G 2G 6
  22504917.5354   -5116204.93746  -3884119.88661
  20806911.684   -12864141.615 7  -9768296.95621
  22711144.137     9622518.177 4   7516842.53021
  19876276.3404  -20588635.40348 -15959571.58365
  19721088.9964  -22864252.69347 -17668328.01564
 91  3 22  1 36 44.9960000  0  5G15G13G19G 2G 6
  22503603.5594   -5123116.22446  -3889505.23361
  20797063.832   -12915897.166 7  -9808625.82221
  22718317.4884    9660230.43644   7546228.64161
  19876170.3404  -20589185.66348 -15960000.33065
  19716457.934   -22888587.359 7 -17687290.04124
 91  3 22  1 36 59.9960000  0  5G15G13G19G 2G 6
  22502314.2464   -5129891.94546  -3894784.95661
  20787235.566   -12967548.906 7  -9848873.77921
  22725507.1914    9697998.13244   7575657.96561
  19876076.3094  -20589692.74948 -15960395.43665
  19711841.7074  -22912843.13047 -17706190.58364
 91  3 22  1 37 14.9960000  0  5G15G13G19G 2G 6
  22501048.059    -5136537.973 6  -3899963.60421
  20777424.8164  -13019101.91847  -9889044.82161
  22732702.379     9735815.355 5   7605125.89721
  19875985.731   -20590162.168 8 -15960761.19124
  19707240.152   -22937025.303 7 -17725033.78124
 91  3 22  1 37 29.9960000  0  5G15G13G19G 2G 6
  22499808.4964   -5143056.37246  -3905042.80961
  20767632.199   -13070558.411 7  -9929140.65121
  22739911.699     9773679.759 4   7634630.56321
  19875904.785   -20590596.585 8 -15961099.67125
  19702651.801   -22961135.981 7 -17743821.27224
 91  3 22  1 37 44.9960000  0  5G15G13G19G 2G 6
  22498592.5354   -5149441.63846  -3910018.28561
  20757859.371   -13121912.477 7  -9969156.66421
  22747124.2154    9811596.71844   7664176.19061
  19875830.621   -20590990.495 8 -15961406.59225
  19698078.168   -22985169.329 7 -17762548.50024
 91  3 22  1 37 59.9960000  0  5G15G13G19G 2G 6
  22497404.2544   -5155693.78346  -3914890.02361
  20748106.145   -13173164.171 7 -10009092.91121
  22754347.348     9849565.732 4   7693762.38821
  19875761.332   -20591344.153 8 -15961682.14824
  19693519.574   -23009125.441 7 -17781215.54524
 91  3 22  1 38 14.9960000  0  5G15G13G19G 2G 6
  22496240.8244   -5161810.64046  -3919656.34061
  20738373.121   -13224311.083 7 -10048947.51821
  22761583.277     9887588.886 5   7723390.77521
  19875699.941   -20591655.415 8 -15961924.66225
  19688976.7624  -23033001.93347 -17799820.55064
 91  3 22  1 38 29.9960000  0  5G15G13G19G 2G 6
  22495101.356    -5167795.669 6  -3924319.93521
  20728659.902   -13275356.428 7 -10088722.97421
  22768828.191     9925662.469 4   7753058.45021
  19875651.410   -20591927.846 8 -15962136.92024
  19684447.363   -23056802.018 7 -17818366.01624
 91  3 22  1 38 44.9960000  0  5G15G13G19G 2G 6
  22493986.2234   -5173643.71146  -3928876.79661
  20718966.707   -13326294.828 7 -10128415.09721
  22776085.145     9963791.425 5   7782769.27921
  19875608.246   -20592156.275 8 -15962314.89425
  19679933.895   -23080520.299 7 -17836847.74124
 91  3 22  1 38 59.9960000  0  5G15G13G19G 2G 6
  22492901.8014   -5179361.90646  -3933332.47061
  20709292.543   -13377133.168 7 -10168029.25521
  22783351.2074   10001968.29745   7812517.42461
  19875571.746   -20592348.066 8 -15962464.31924
  19675435.199   -23104163.743 7 -17855271.15524
 91  3 22  1 39 14.9960000  0  5G15G13G19G 2G 6
  22491836.879    -5184947.699 6  -3937684.97721
  20699637.324   -13427868.849 7 -10207563.41921
  22790621.8794   10040195.52345   7842304.83061
  19875541.402   -20592500.679 8
  19670950.324   -23127729.586 7 -17873634.10224
 91  3 22  1 39 29.9960000  0  5G15G13G19G 2G 6
  22490801.8014   -5190403.48446  -3941936.16861
  20690001.949   -13478503.920 7 -10247019.17821
  22797908.856    10078470.502 4   7872129.44921
  19875516.824   -20592616.744 8
  19666479.840   -23151219.957 7 -17891938.23624
 91  3 22  1 39 44.9960000  0  5G15G13G19G 2G 6
  22489784.1214   -5195720.30646  -3946079.08161
  20680387.184   -13529029.513 7 -10286389.64321
  22805203.0594   10116801.74344   7901997.88261
  19875505.879   -20592687.578 8
  19662026.051   -23174625.953 7 -17910176.62524
 91  3 22  1 39 59.9960000  0  5G15G13G19G 2G 6
  22488803.316    -5200890.211 6  -3950107.52121
  20670795.027   -13579437.366 7 -10325668.35321
  22812511.2314   10155197.00744   7931916.23961
  19875502.957   -20592705.327 8
  19657589.551   -23197939.393 7 -17928342.89624
 91  3 22  1 40 14.9960000  0  5G15G13G19G 2G 6
  22487846.4344   -5205927.70746  -3954032.77361
  20661222.012   -13629741.589 7 -10364866.32121
  22819823.809    10193641.583 4   7961873.00621
  19875505.848   -20592684.284 8
  19653168.059   -23221174.554 7 -17946448.16624
 91  3 22  1 40 29.9960000  0  5G15G13G19G 2G 6
  22486911.684    -5210833.238 6  -3957855.20221
  20651669.020   -13679942.305 7 -10403983.62621
  22827150.2704   10232135.10644   7991867.90761
  19875517.207   -20592624.860 8
  19648760.981   -23244331.480 7 -17964492.47624
 91  3 22  1 40 44.9960000  0  5G15G13G19G 2G 6
  22485999.7544   -5215612.96946  -3961579.61561
  20642133.4024  -13730045.67647 -10443025.09261
  22834483.3484   10270671.07944   8021895.87661
  19875536.145   -20592533.594 8
  19644368.395   -23267416.275 7 -17982480.57624
 91  3 22  1 40 59.9960000  0  5G15G13G19G 2G 6
  22485115.6844   -5220258.63246  -3965199.53961
  20632620.1524  -13780043.26847 -10481984.12761
  22841826.543    10309257.582 3   8051963.24021
  19875560.762   -20592402.281 8
  19639990.676   -23290420.447 7 -18000405.85424
 91  3 22  1 41 14.9960000  0  5G15G13G19G 2G 6
  22484253.426    -5224785.718 6  -3968727.09421
  20623123.6064  -13829950.38347 -10520872.66361
  22849172.871    10347878.651 4   8082057.53221
  19875587.5904  -20592246.75148
  19635624.988   -23313359.392 7 -18018280.31024
 91  3 22  1 41 29.9960000  0  5G15G13G19G 2G 6
  22483416.7154   -5229177.36646  -3972149.09661
  20613646.9734  -13879750.03947 -10559677.46261
  22856536.4884   10386551.01443   8112191.77061
  19875625.9024  -20592050.08548
  19631276.098   -23336215.912 7 -18036090.54424
 91  3 22  1 41 44.9960000  0  5G15G13G19G 2G 6
  22482607.5044   -5233437.12446  -3975468.32661
  20604189.5204  -13929445.34147 -10598400.94961
  22863900.012    10425271.256 3   8142363.33621
  19875673.715   -20591815.743 8 -15962049.25625
  19626942.262   -23358993.306 7 -18053839.10924
 91  3 22  1 41 59.9960000  0  5G15G13G19G 2G 6
  22481823.879    -5237567.018 6  -3978686.36221
  20594753.1764  -13979038.25947 -10637044.65761
  22871278.691    10464036.735 3   8172570.16221
  19875723.043   -20591546.016 8 -15961839.05525
  19622621.496   -23381693.682 7 -18071527.66824
 91  3 22  1 42 14.9960000  0  5G15G13G19G 2G 6
  22481064.5044   -5241561.96746  -3981799.23961
  20585336.3714  -14028523.48147 -10675604.44661
  22878664.723    10502852.356 4   8202816.04021
  19875782.457   -20591235.824 8 -15961597.32225
  19618318.066   -23404311.624 7 -18089151.99024
 91  3 22  1 42 29.9960000  0  5G15G13G19G 2G 6
  22480330.5664   -5245423.56746  -3984808.21861
  20575938.7384  -14077902.28447 -10714081.31661
  22886059.215    10541716.314 3   8233099.59621
  19875846.348   -20590886.872 8 -15961325.38725
  19614028.941   -23426848.436 7 -18106713.09724
 91  3 22  1 42 44.9960000  0  5G15G13G19G 2G 6
  22479617.652    -5249148.848 6  -3987710.98021
  20566564.1454  -14127171.70247 -10752472.94561
  22893467.285    10580631.447 4   8263423.02821
  19875921.4574  -20590496.46448 -15961021.14965
  19609757.301   -23449301.075 7 -18124208.61024
 91  3 22  1 42 59.9960000  0  5G15G13G19G 2G 6
  22478938.0594   -5252738.76146  -3990508.25661
  20557207.8714  -14176332.14447 -10790779.65961
  22900884.8014   10619596.79644   8293785.59261
  19876004.5204  -20590065.30948 -15960685.16165
  19605500.660   -23471669.979 7 -18141638.87824
 91  3 22  1 43 14.9960000  0  5G15G13G19G 2G 6
  22478276.2774   -5256195.97446  -3993202.12661
  20547874.0274  -14225386.36447 -10829003.60561
  22908305.1294   10658609.08944   8324184.73561
  19876092.848   -20589596.439 8 -15960319.78425
  19601258.309   -23493957.918 7 -18159006.05624
 91  3 22  1 43 29.9960000  0  5G15G13G19G 2G 6
  22477648.0514   -5259520.95946  -3995792.96061
  20538558.8324  -14274334.53747 -10867144.91961
  22915738.262    10697668.085 4   8354620.27021
  19876191.309   -20589090.187 8 -15959925.28225
  19597032.371   -23516164.940 7 -18176310.18424
 91  3 22  1 43 44.9960000  0  5G15G13G19G 2G 6
  22477038.590    -5262707.962 6  -3998276.27821
  20529265.0124  -14323170.49447 -10905198.78461
  22923179.590    10736779.334 4   8385096.53021
  19876295.191   -20588540.777 8 -15959497.14825
  19592823.824   -23538284.978 7 -18193546.53524
 91  3 22  1 43 59.9960000  0  5G15G13G19G 2G 6
  22476461.3714   -5265757.67146  -4000652.61661
  20519993.6294  -14371894.91247 -10943165.74861
  22930631.4494   10775941.61644   8415612.54561
  19876407.660   -20587949.068 8 -15959036.05025
  19588630.418   -23560318.529 7 -18210715.49224
 91  3 22  1 44 14.9960000  0  5G15G13G19G 2G 6
  22475904.215    -5268672.061 6  -4002923.51421
  20510741.9574  -14420509.48347 -10981047.11361
  22938093.137    10815152.855 4   8446166.70421
  19876528.371   -20587317.067 8 -15958543.55825
  19584453.137   -23582267.488 7 -18227818.53124
 91  3 22  1 44 29.9960000  0  5G15G13G19G 2G 6
  22475375.0274   -5271447.89346  -4005086.43261
  20501512.2854  -14469010.38247 -11018839.89961
  22945565.457    10854416.294 4   8476761.55121
  19876655.191   -20586641.411 8 -15958017.05225
  19580294.113   -23604128.174 7 -18244852.78824
 91  3 22  1 44 44.9960000  0  5G15G13G19G 2G 6
  22474872.5354   -5274089.39346  -4007144.68961
  20492304.2934  -14517402.14647 -11056547.64661
  22953045.879    10893727.301 4   8507393.46821
  19876790.5274  -20585926.71048 -15957460.11565
  19576149.527   -23625904.817 7 -18261821.55624
 91  3 22  1 44 59.9960000  0  5G15G13G19G 2G 6
  22474397.9184   -5276594.16746  -4009096.39761
  20483116.4494  -14565682.13547 -11094168.29861
  22960538.2544   10933087.98144   8538064.07561
  19876934.582   -20585170.721 8 -15956871.00924
  19572022.941   -23647594.858 7 -18278722.83924
 91  3 22  1 45 14.9960000  0  5G15G13G19G 2G 6
  22473946.1604   -5278972.92946  -4010949.92361
  20473947.8404  -14613860.95947 -11131710.12461
  22968032.629    10972487.477 4   8568764.96021
  19877083.199   -20584384.286 8 -15956258.18124
  19567910.262   -23669208.798 7 -18295564.82724
 91  3 22  1 45 29.9960000  0  5G15G13G19G 2G 6
  22473520.1214   -5281216.71446  -4012698.27761
  20464801.4414  -14661929.46247 -11169165.98261
  22975541.231    11011934.439 4   8599502.80821
  19877241.613   -20583558.441 8 -15955614.64224
  19563812.613   -23690737.543 7 -18312340.43024
 91  3 22  1 45 44.9960000  0  5G15G13G19G 2G 6
  22473116.2314   -5283326.32546  -4014342.06561
  20455674.027   -14709887.722 7 -11206535.94121
  22983056.4104   11051427.99144   8630276.96161
  19877407.004   -20582693.756 8 -15954940.84324
  19559731.543   -23712181.334 7 -18329049.83124
 91  3 22  1 45 59.9960000  0  5G15G13G19G 2G 6
  22472739.356    -5285302.004 6  -4015881.51321
  20446569.1764  -14757736.42647 -11243820.52561
  22990579.2854   11090967.60144   8661087.01261
  19877580.309   -20581790.764 8 -15954237.19124
  19555667.348   -23733540.477 7 -18345693.27524
 91  3 22  1 46 14.9960000  0  5G15G13G19G 2G 6
  22472387.2464   -5287143.73246  -4017316.56661
  20437485.1844  -14805474.87247 -11281019.19961
  22998112.574    11130553.497 4   8691933.12221
  19877758.387   -20580849.298 8 -15953503.55424
  19551618.895   -23754814.510 7 -18362270.39723
 91  3 22  1 46 29.9960000  0  5G15G13G19G 2G 6
  22472065.7074   -5288852.99946  -4018648.40461
  20428422.3094  -14853104.48047 -11318133.06061
  23005656.973    11170183.695 4   8722813.76821
  19877943.887   -20579870.986 8 -15952741.20624
  19547586.848   -23776004.798 7 -18378782.26623
 91  3 22  1 46 44.9960000  0  5G15G13G19G 2G 6
  22471765.887    -5290429.180 6  -4019876.54921
  20419379.2234  -14900624.32847 -11355161.39561
  23013203.902    11209858.551 4   8753729.19021
  19878137.707   -20578855.310 8 -15951949.75124
  19543569.832   -23797110.401 7 -18395228.14723
 91  3 22  1 46 59.9960000  0  5G15G13G19G 2G 6
  22471487.0744   -5291873.44146  -4021001.89161
  20410356.090   -14948035.214 7 -11392104.83021
  23020763.066    11249576.883 4   8784678.51021
  19878336.887   -20577803.234 8 -15951129.93624
  19539569.895   -23818132.168 7 -18411608.70424
 91  3 22  1 47 14.9960000  0  5G15G13G19G 2G 6
  22471242.2314   -5293183.73646  -4022022.83461
  20401355.9734  -14995334.93547 -11428961.63861
  23028328.8164   11289340.60444   8815663.18861
  19878544.145   -20576712.886 8 -15950280.29624
  19535585.5354  -23839067.82847 -18427922.16463
 91  3 22  1 47 29.9960000  0  5G15G13G19G 2G 6
  22471012.6604   -5294362.41446  -4022941.23561
  20392375.785   -15042525.904 7 -11465733.70521
  23035905.426    11329146.933 3   8846681.06821
  19878759.785   -20575586.781 8 -15949402.79524
  19531618.1214  -23859919.58247 -18444170.24263
 91  3 22  1 47 44.9960000  0  5G15G13G19G 2G 6
  22470819.004    -5295407.918 6  -4023755.86021
  20383416.0594  -15089606.19147 -11502419.52861
  23043486.8564   11368997.40943   8877733.33661
  19878980.629   -20574423.447 8 -15948496.28124
  19527666.4184  -23880685.58647 -18460351.50563
 91  3 22  1 47 59.9960000  0  5G15G13G19G 2G 6
  22470641.402    -5296319.355 6  -4024466.02321
  20374479.277   -15136574.831 7 -11539018.35421
  23051081.566    11408892.775 3   8908820.62021
  19879208.262   -20573221.998 8 -15947560.06824
  19523731.6454  -23901364.78447 -18476465.12463
 91  3 22  1 48 14.9960000  0  5G15G13G19G 2G 6
  22470495.3564   -5297090.39246  -4025066.76961
  20365563.152   -15183424.917 7 -11575524.80021
  23058678.551    11448839.188 3
  19879446.129   -20571976.000 8 -15946589.14424
  19519814.316   -23921950.507 7 -18492505.90623
 91  3 22  1 48 29.9960000  0  5G15G13G19G 2G 6
  22470378.465    -5297729.930 6  -4025565.05921
  20356668.137   -15230165.495 7 -11611945.91821
  23066291.5594         -0.51953
  19879689.098   -20570694.709 8 -15945590.71624
  19515912.6994  -23942451.65347 -18508480.78763
 91  3 22  1 48 44.9960000  0  5G15G13G19G 2G 6
  22470280.184    -5298236.317 6  -4025959.59121
  20347795.402   -15276794.732 7 -11648280.27421
  23073906.395       40030.975 3
  19879940.566   -20569376.578 8 -15944563.58024
  19512027.6604  -23962866.28847 -18524388.25463
 91  3 22  1 48 59.9960000  0  4G15G13G 2G 6
  22470208.387    -5298607.760 6  -4026248.97321
  20338942.863   -15323310.182 7 -11684525.97121
  19880198.684   -20568019.553 8 -15943506.13825
  19508159.3404  -23983192.29147 -18540226.65863
 91  3 22  1 49 14.9960000  0  4G15G13G 2G 6
  22470161.895    -5298843.104 6  -4026432.30621
  20330113.0594  -15369710.56847 -11720682.00261
  19880464.691   -20566622.514 8 -15942417.52124
  19504309.2704  -24003428.04147 -18555994.73463
 91  3 22  1 49 29.9960000  0  4G15G13G 2G 6
  22470143.8954   -5298941.10546
  20321305.512   -15415994.575 7 -11756747.35221
  19880739.004   -20565184.298 8 -15941296.81925
  19500475.1374  -24023572.16247 -18571691.41363
 91  3 22  1 49 44.9960000  0  4G15G13G 2G 6
  22470154.2234   -5298894.75546
  20312521.637   -15462155.055 7 -11792716.44821
  19881022.090   -20563697.927 8 -15940138.58825
  19496660.7544  -24043617.56247 -18587311.16863
 91  3 22  1 49 59.9960000  0  4G15G13G 2G 6
  22470190.020    -5298714.192 6
  20303758.840   -15508202.036 7 -11828597.09621
  19881311.012   -20562173.730 8 -15938950.88024
  19492863.332   -24063574.212 7 -18602861.76423
 91  3 22  1 50 14.9960000  0  4G15G13G 2G 6
  22470249.981    -5298401.150 6
  20295018.512   -15554136.645 7 -11864390.19121
  19881607.723   -20560613.133 8 -15937734.81525
  19489082.7704  -24083443.26447 -18618344.09963
 91  3 22  1 50 29.9960000  0  4G15G13G 2G 6
  22470331.848    -5297953.788 6  -4025739.09121
  20286299.113   -15599956.771 7 -11900094.07621
  19881912.199   -20559014.446 8 -15936489.06725
  19485319.4414  -24103222.70947 -18633756.61563
 91  3 22  1 50 44.9960000  0  4G15G13G 2G 6
  22470442.441    -5297370.930 6  -4025284.87121
  20277602.270   -15645661.397 7 -11935707.95821
  19882224.363   -20557376.755 8 -15935212.92024
  19481572.9494  -24122911.34447 -18649098.36463
 91  3 22  1 50 59.9960000  0  4G15G13G 2G 6
  22470581.035    -5296648.804 6  -4024722.12321
  20268926.863   -15691246.522 7 -11971228.72521
  19882544.027   -20555695.950 8 -15933903.18024
  19477842.8954  -24142504.88147 -18664366.02063
 91  3 22  1 51 14.9960000  0  4G15G13G 2G 6
  22470741.660    -5295793.158 6  -4024055.33821
  20260274.215   -15736717.436 7 -12006660.49521
  19882872.371   -20553977.856 8 -15932564.38724
  19474130.746   -24162008.787 7 -18679563.82723
 91  3 22  1 51 29.9960000  0  4G15G13G 2G 6
  22470935.7314   -5294797.92946  -4023279.78161
  20251644.277   -15782067.995 7 -12041998.48721
  19883205.566   -20552216.510 8 -15931191.89324
  19470438.824   -24181416.918 7 -18694687.00524
 91  3 22  1 51 44.9960000  0  4G15G13G 2G 6
  22471143.9414   -5293671.27846  -4022401.82161
  20243035.449   -15827306.204 7 -12077248.93021
  19883547.7314  -20550420.07448 -15929792.05064
  19466762.512   -24200737.177 7 -18709741.70824
 91  3 22  1 51 59.9960000  0  4G15G13G 2G 6
  22471385.606    -5292416.629 6  -4021424.12621
  20234446.676   -15872434.982 7 -12112414.10721
  19883896.473   -20548591.842 8 -15928367.42824
  19463101.129   -24219972.607 7 -18724730.30923
 91  3 22  1 52 14.9960000  0  4G15G13G 2G 6
  22471651.8014   -5291026.60146  -4020340.94861
  20225883.027   -15917446.796 7 -12147488.14621
  19884250.801   -20546724.428 8 -15926912.28324
  19459458.441   -24239115.360 7 -18739646.69623
 91  3 22  1 52 29.9960000  0  4G15G13G 2G 6
  22471939.606    -5289501.820 6  -4019152.75921
  20217338.535   -15962342.341 7 -12182471.58121
  19884613.887   -20544818.870 8 -15925427.41124
  19455834.941   -24258166.273 7 -18754491.52024
 91  3 22  1 52 44.9960000  0  4G15G13G 2G 6
  22472255.9184   -5287839.36746  -4017857.29761
  20208816.918   -16007118.283 7 -12217361.82521
  19884985.223   -20542871.948 8 -15923910.30824
  19452225.965   -24277121.936 7 -18769262.12524
 91  3 22  1 52 59.9960000  0  4G15G13G 2G 6
  22472595.637    -5286043.982 6  -4016458.24921
  20200319.527   -16051779.036 7 -12252162.30721
  19885361.066   -20540888.695 8 -15922364.89124
  19448637.590   -24295986.941 7 -18783962.08524
 91  3 22  1 53 14.9960000  0  4G15G13G 2G 6
  22472965.6064   -5284110.98846
  20191843.691   -16096319.725 7 -12286869.23621
  19885747.402   -20538864.291 8
  19445064.434   -24314756.298 7 -18798587.51423
 91  3 22  1 53 29.9960000  0  4G15G13G 2G 6
  22473359.160    -5282043.756 6
  20183389.613   -16140743.470 7 -12321485.04021
  19886140.231   -20536802.004 8
  19441510.785   -24333433.098 7 -18813140.82224
 91  3 22  1 53 44.9960000  0  4G15G13G 2G 6
  22473776.6524   -5279846.17746  -4011628.65561
  20174956.9024  -16185053.87447 -12356012.52961
  19886538.863   -20534705.649 8 -15917546.87124
  19437973.238   -24352020.839 7 -18827624.72424
 91  3 22  1 53 59.9960000  0  4G15G13G 2G 6
  22474218.660    -5277514.608 6  -4009811.81921
  20166547.527   -16229246.776 7 -12390448.45221
  19886945.7544  -20532571.46048 -15915883.83864
  19434454.246   -24370515.402 7 -18842036.03024
 91  3 22  1 54 14.9960000  0  4G15G13G 2G 6
  22474688.106    -5275046.620 6  -4007888.65721
  20158160.5274  -16273319.89147 -12424791.04261
  19887358.941   -20530397.339 8 -15914189.69324
  19430952.504   -24388914.396 7 -18856372.86824
 91  3 22  1 54 29.9960000  0  4G15G13G 2G 6
  22475189.1374   -5272434.59546  -4005853.26561
  20149797.3564  -16317265.34947 -12459034.15261
  19887781.527   -20528175.523 8 -15912458.38624
  19427470.395   -24407209.817 7 -18870628.99524
 91  3 22  1 54 44.9960000  0  4G15G13G 2G 6
  22475711.465    -5269683.078 6  -4003709.18221
  20141459.160   -16361087.660 7 -12493181.30621
  19888211.426   -20525910.597 8 -15910693.48524
  19424008.840   -24425406.056 7 -18884807.83524
 91  3 22  1 54 59.9960000  0  4G15G13G 2G 6
  22476257.4574   -5266802.27346  -4001464.36261
  20133141.098   -16404796.632 7 -12527240.14621
  19888648.5434  -20523612.79948 -15908902.96664
  19420563.809   -24443513.096 7 -18898917.17024
 91  3 22  1 55 14.9960000  0  4G15G13G 2G 6
  22476836.801    -5263793.696 6  -3999119.96921
  20124844.4964  -16448393.64747 -12561211.74861
  19889092.1994  -20521283.53448 -15907087.92464
  19417133.902   -24461532.118 7 -18912957.92524
 91  3 22  1 55 29.9960000  0  4G15G13G 2G 6
  22477428.363    -5260648.736 6  -3996669.30321
  20116571.9574  -16491869.97847 -12595089.30262
  19889544.449   -20518914.345 8 -15905241.78324
  19413723.012   -24479454.231 7 -18926923.16324
 91  3 22  1 55 44.9960000  0  4G15G13G 2G 6
  22478055.660    -5257363.897 6  -3994109.64221
  20108322.2774  -16535221.67947 -12628869.75462
  19890001.5124  -20516501.42748 -15903361.56164
  19410331.973   -24497275.533 7 -18940809.84524
 91  3 22  1 55 59.9960000  0  4G15G13G 2G 6
  22478706.535    -5253947.959 6  -3991447.82621
  20100093.465   -16578457.225 7 -12662559.69521
  19890468.5124  -20514053.63148 -15901454.15964
  19406958.215   -24515004.403 7 -18954624.50224
 91  3 22  1 56 14.9960000  0  4G15G13G 2G 6
  22479379.277    -5250401.865 6  -3988684.58921
  20091889.6214  -16621577.63947 -12696159.92162
  19890941.0044  -20511572.09548 -15899520.46964
  19403602.238   -24532641.929 7 -18968367.98124
 91  3 22  1 56 29.9960000  0  4G15G13G 2G 6
  22480080.402    -5246723.434 6  -3985818.23321
  20083705.4734  -16664579.88847 -12729668.07161
  19891419.582   -20509054.438 8 -15897558.63624
  19400264.613   -24550185.258 7 -18982038.06324
 91  3 22  1 56 44.9960000  0  4G15G13G 2G 6
  22480808.2154   -5242909.20546  -3982846.06461
  20075545.6914  -16707460.61847 -12763081.53062
  19891904.731   -20506497.105 8 -15895565.88224
  19396943.637   -24567630.890 7 -18995632.01824
 91  3 22  1 56 59.9960000  0  4G15G13G 2G 6
  22481559.4964   -5238960.06246  -3979768.76761
  20067408.4654  -16750220.68447 -12796400.96362
  19892400.0204  -20503901.13648 -15893543.02064
  19393642.418   -24584979.487 7 -19009150.35724
 91  3 22  1 57 14.9960000  0  4G15G13G 2G 6
  22482336.691    -5234873.490 6  -3976584.37421
  20059295.6294  -16792857.26047 -12829624.17262
  19892901.7774  -20501263.98548 -15891488.06664
  19390359.988   -24602228.071 7 -19022590.76624
 91  3 22  1 57 29.9960000  0  4G15G13G 2G 6
  22483140.902    -5230649.881 6  -3973293.20721
  20051206.1914  -16835370.57047 -12862751.32762
  19893410.6604  -20498585.96848 -15889401.28664
  19387097.184   -24619377.000 7 -19035953.52724
 91  3 22  1 57 44.9960000  0  4G15G13G 2G 6
  22483969.2704   -5226290.59846  -3969896.32561
  20043139.6214  -16877761.42947 -12895783.06962
  19893928.0744  -20495868.30548 -15887283.58864
  19383852.231   -24636426.955 7 -19049239.16124
 91  3 22  1 57 59.9960000  0  4G15G13G 2G 6
  22484825.441    -5221803.558 6  -3966399.89621
  20035092.8484  -16920037.74947 -12928725.56162
  19894451.762   -20493118.872 8 -15885141.14724
  19380625.4024  -24653385.66647 -19062453.70164
 91  3 22  1 58 14.9960000  0  4G15G13G 2G 6
  22485704.8094   -5217173.80346  -3962792.23561
  20027073.9494  -16962184.21647 -12961566.87062
  19894982.9264  -20490322.65948 -15882962.25264
  19377418.340   -24670238.025 7 -19075585.36424
 91  3 22  1 58 29.9960000  0  4G15G13G 2G 6
  22486608.199    -5212404.196 6  -3959075.61621
  20019076.6134  -17004203.39047 -12994308.98962
  19895524.9734  -20487482.62848 -15880749.21564
  19374230.590   -24686986.533 7 -19088636.09724
 91  3 22  1 58 44.9960000  0  4G15G13G 2G 6
  22487543.4104   -5207506.28846  -3955259.03661
  20011103.4344  -17046106.42847 -13026960.61662
  19896069.9884  -20484610.02548 -15878510.79464
  19371061.356   -24703642.264 7 -19101614.54724
 91  3 22  1 58 59.9960000  0  4G15G13G 2G 6
  22488501.895    -5202475.729 6  -3951339.06921
  20003152.3634  -17087888.87547 -13059518.27362
  19896623.832   -20481700.585 8 -15876243.67124
  19367911.324   -24720200.638 7 -19114517.13424
 91  3 22  1 59 14.9960000  0  4G15G13G 2G 6
  22489480.145    -5197312.159 6  -3947315.47121
  19995224.6914  -17129550.24847 -13091981.59162
  19897186.215   -20478753.756 8 -15873947.41524
  19364778.238   -24736660.878 7 -19127343.25124
 91  3 22  1 59 29.9960000  0  4G15G13G 2G 6
  22490496.043    -5192011.793 6  -3943185.26021
  19987320.0514  -17171086.72947 -13124347.58762
  19897753.2314  -20475766.12348 -15871619.36664
  19361665.996   -24753019.348 7 -19140090.06924
 91  3 22  1 59 44.9960000  0  4G15G13G 2G 6
  22491524.160    -5186579.304 6  -3938952.10521
  19979439.7464  -17212502.76147 -13156619.71962
  19898329.8714  -20472742.49448 -15869263.26064
  19358570.777   -24769280.441 7 -19152761.00824
 91  3 22  1 59 59.9960000  0  4G15G13G 2G 6
  22492583.996    -5181010.262 6  -3934612.54321
  19971581.5204  -17253793.51647 -13188794.24362
  19898911.6134  -20469677.84748 -15866875.19764
  19355496.1524  -24785439.13547 -19165352.15764
 91  3 22  2  0 14.9960000  0  4G15G13G 2G 6
  22493673.191    -5175306.146 6  -3930167.72921
  19963746.0204  -17294960.24447 -13220872.11462
  19899502.8094  -20466573.97648 -15864456.56864
  19352440.520   -24801496.896 7 -19177864.65624
 91  3 22  2  0 29.9960000  0  4G15G13G 2G 6
  22494781.324    -5169464.476 6  -3925615.73721
  19955937.9964  -17336000.38347 -13252851.34362
  19900100.902   -20463428.300 8 -15862005.36724
  19349404.035   -24817450.745 7 -19190296.18124
 91  3 22  2  0 44.9960000  0  4G15G13G 2G 6
  22495915.410    -5163492.353 6  -3920962.09721
  19948150.582   -17376920.576 7 -13284737.10922
  19900706.629   -20460247.618 8 -15859526.88924
  19346387.035   -24833307.534 7 -19202652.07424
 91  3 22  2  0 59.9960000  0  4G15G13G 2G 6
  22497079.184    -5157385.016 6  -3916203.08321
  19940387.2314  -17417715.90347 -13316525.57862
  19901319.988   -20457027.161 8 -15857017.41924
  19343388.684   -24849062.183 7 -19214928.38024
 91  3 22  2  1 14.9960000  0  4G15G13G 2G 6
  22498268.020    -5151139.876 6  -3911336.69121
  19932649.1764  -17458383.54647 -13348214.55762
  19901939.902   -20453764.276 8 -15854474.89224
  19340411.981   -24864711.679 7 -19227122.74524
 91  3 22  2  1 29.9960000  0  4G15G13G 2G 6
  22499482.1764   -5144756.02446  -3906362.21561
  19924934.6844  -17498922.31847 -13379803.11762
  19902569.160   -20450458.035 8 -15851898.57624
  19337454.160   -24880254.808 7 -19239234.23424
 91  3 22  2  1 44.9960000  0  4G15G13G 2G 6
  22500722.066    -5138236.924 6  -3901282.35221
  19917243.8404  -17539335.48547 -13411293.80062
  19903206.426   -20447112.001 8 -15849291.25224
  19334514.004   -24895694.879 7 -19251265.41624
 91  3 22  2  1 59.9960000  0  4G15G13G 2G 6
  22501988.020    -5131573.312 5  -3896089.88221
  19909578.9184  -17579613.60947 -13442679.25962
  19903853.277   -20443716.712 8 -15846645.55024
  19331597.137   -24911022.351 7 -19263208.85224
 91  3 22  2  2 14.9960000  0  4G15G13G 2G 6
  22503286.637    -5124767.176 6  -3890786.36521
  19901939.0514  -17619758.29447 -13473960.73662
  19904507.520   -20440274.111 8 -15843962.97824
  19328701.7544  -24926238.75047 -19275065.74464
 91  3 22  2  2 29.9960000  0  4G15G13G 2G 6
  22504610.918    -5117822.110 6  -3885374.58221
  19894325.2544  -17659772.78247 -13505140.76562
  19905170.2384  -20436787.76848 -15841246.31964
  19325826.9184  -24941347.44447 -19286838.71564
 91  3 22  2  2 44.9960000  0  4G15G13G 2G 6
  22505955.965    -5110744.576 5  -3879859.57221
  19886734.3874  -17699663.27247 -13536224.17462
  19905841.481   -20433264.005 8 -15838500.50624
  19322971.457   -24956354.462 7 -19298532.45424
 91  3 22  2  2 59.9960000  0  4G15G13G 2G 6
  22507326.1764   -5103529.45045  -3874237.38161
  19879167.6914  -17739424.38847 -13567206.77062
  19906520.5434  -20429697.56048 -15835721.43264
  19320135.582   -24971254.383 7 -19310142.73624
 91  3 22  2  3 14.9960000  0  4G15G13G 2G 6
  22508728.7854   -5096176.61445  -3868507.85861
  19871626.3244  -17779055.92547 -13598088.39862
  19907207.5204  -20426088.16848 -15832908.89364
  19317320.1454  -24986046.80447 -19321669.26064
 91  3 22  2  3 29.9960000  0  4G15G13G 2G 6
  22510151.4184   -5088683.63245  -3862669.13761
  19864109.0594  -17818555.25747 -13628867.00262
  19907903.6294  -20422433.41748 -15830061.00764
  19314526.5824  -25000729.02747 -19333109.91664
 91  3 22  2  3 44.9960000  0  4G15G13G 2G 6
  22511609.496    -5081038.999 5  -3856712.24121
  19856621.5204  -17857910.58347 -13659533.40562
  19908608.7704  -20418721.68848 -15827168.72564
  19311756.488   -25015289.239 7 -19344455.49324
 91  3 22  2  3 59.9960000  0  4G15G13G 2G 6
  22513088.9884   -5073256.12846  -3850647.63361
  19849157.160   -17897135.329 7 -13690098.05522
  19909322.652   -20414966.549 8 -15824242.62024
  19309006.5744  -25029740.72047 -19355716.34764
 91  3 22  2  4 14.9960000  0  4G15G13G 2G 6
  22514595.9494   -5065329.23445  -3844470.79861
  19841718.5984  -17936223.08947 -13720555.96062
  19910046.5434  -20411162.04848 -15821278.04664
  19306278.949   -25044077.286 7 -19366887.65224
 91  3 22  2  4 29.9960000  0  4G15G13G 2G 6
  22516133.1524   -5057263.90145  -3838186.08861
  19834305.1294  -17975179.38347 -13750911.42962
  19910779.066   -20407313.479 8 -15818279.13724
  19303571.012   -25058303.902 7 -19377973.28624
 91  3 22  2  4 44.9960000  0  4G15G13G 2G 6
  22517695.5984   -5049056.45545  -3831790.65561
  19826917.2234  -18014000.56847 -13781161.61662
  19911520.731   -20403417.423 8 -15815243.22724
  19300884.457   -25072417.004 7 -19388970.46324
 91  3 22  2  4 59.9960000  0  4G15G13G 2G 6
  22519281.2464   -5040711.49445  -3825288.05361
  19819554.7774  -18052690.61447 -13811309.61762
  19912270.285   -20399478.184 8 -15812173.67024
  19298220.3014  -25086420.67247 -19399882.37264
 91  3 22  2  5 14.9960000  0  4G15G13G 2G 6
  22520896.9964   -5032225.98945  -3818675.94761
  19812218.543   -18091246.209 7 -13841352.85222
  19913028.770   -20395492.695 8 -15809068.07124
  19295577.277   -25100311.453 7 -19410706.31524
 91  3 22  2  5 29.9960000  0  4G15G13G 2G 6
  22522538.3874   -5023592.05246  -3811948.17061
  19804907.965   -18129659.686 7 -13871285.35122
  19913796.332   -20391453.316 7 -15805920.47824
  19292956.8244  -25114081.58547 -19421436.24964
 91  3 22  2  5 44.9960000  0  4G15G13G 2G 6
  22524208.9574   -5014822.40445  -3805114.64061
  19797622.5904  -18167943.08247 -13901116.48262
  19914574.2384  -20387372.12648 -15802740.30564
  19290357.371   -25127742.959 7 -19432081.43024
 91  3 22  2  5 59.9960000  0  4G15G13G 2G 6
  22525904.113    -5005917.663 5  -3798175.85421
  19790361.293   -18206096.819 7 -13930846.58222
  19915358.0514  -20383249.67748 -15799527.97564
  19287778.2704  -25141295.95147 -19442642.16664
 91  3 22  2  6 14.9960000  0  4G15G13G 2G 6
  22527627.0984   -4996866.40946  -3791122.89161
  19783128.7074  -18244109.16347 -13960466.50162
  19916153.2464  -20379074.46248 -15796274.53464
  19285221.2234  -25154728.72047 -19453109.22364
 91  3 22  2  6 29.9960000  0  4G15G13G 2G 6
  22529377.0514   -4987670.33346  -3783957.08861
  19775921.1764  -18281981.80847 -13989977.56762
  19916956.4344  -20374848.11248 -15792981.25064
  19282688.3954  -25168042.93447 -19463483.89364
 91  3 22  2  6 44.9960000  0  4G15G13G 2G 6
  22531150.5514   -4978337.76846  -3776684.93561
  19768739.254   -18319722.529 7 -14019385.83822
  19917770.738   -20370578.911 8 -15789654.57424
  19280174.5984  -25181246.42547 -19473772.29464
 91  3 22  2  6 59.9960000  0  4G15G13G 2G 6
  22532954.3954   -4968873.44446  -3769310.10861
  19761581.762   -18357336.192 7 -14048695.10422
  19918588.4024  -20366271.57148 -15786298.18064
  19277683.5274  -25194343.69547 -19483977.91964
 91  3 22  2  7 14.9960000  0  4G15G13G 2G 6
  22534779.4104   -4959270.13846  -3761826.98061
  19754450.043   -18394815.427 7 -14077899.62122
  19919417.0664  -20361918.90848 -15782906.46864
  19275212.7154  -25207327.32547 -19494094.99264
 91  3 22  2  7 29.9960000  0  4G15G13G 2G 6
  22536634.7934   -4949521.35446  -3754230.48461
  19747344.512   -18432153.101 7 -14106993.82622
  19920255.7544  -20357514.22648 -15779474.22064
  19272764.4414  -25220190.30447 -19504118.05164
 91  3 22  2  7 44.9960000  0  4G15G13G 2G 6
  22538513.9104   -4939644.82746  -3746534.45461
  19740263.902   -18469366.819 7 -14135991.44622
  19921099.8794  -20353075.15348 -15776015.17864
  19270335.6524  -25232950.05847 -19514060.68164
 91  3 22  2  7 59.9960000  0  4G15G13G 2G 6
  22540421.8324   -4929623.99246  -3738725.98561
  19733208.3014  -18506439.98647 -14164879.54262
  19921954.8484  -20348584.86148 -15772516.22164
  19267930.2314  -25245589.76647 -19523909.76864
 91  3 22  2  8 14.9960000  0  4G15G13G 2G 6
  22542353.4574   -4919467.14946  -3730811.52661
  19726179.590   -18543380.468 7 -14193664.25022
  19922817.5514  -20344051.87248 -15768983.99564
  19265546.3244  -25258117.44547 -19533671.55764
 91  3 22  2  8 29.9960000  0  4G15G13G 2G 6
  22544311.6914   -4909172.87746  -3722789.98961
  19719174.6914  -18580186.64947 -14222344.30862
  19923689.356   -20339474.233 8 -15765416.98024
  19263184.8874  -25270531.12847 -19543344.52064
 91  3 22  2  8 44.9960000  0  4G15G13G 2G 6
  22546300.027    -4898747.045 6  -3714665.94521
  19712194.7234  -18616864.27347 -14250924.19462
  19924567.1374  -20334857.95548 -15761819.85364
  19260843.3404  -25282836.47847 -19552933.06764
 91  3 22  2  8 59.9960000  0  4G15G13G 2G 6
  22548306.129    -4888187.545 6  -3706437.74021
  19705239.816   -18653410.776 7 -14279401.90722
  19925453.8874  -20330200.48148 -15758190.62464
  19258521.6764  -25295031.03347 -19562435.28364
 91  3 22  2  9 14.9960000  0  4G15G13G 2G 6
  22550341.973    -4877487.131 6  -3698099.72021
  19698311.981   -18689818.649 7 -14307771.59922
  19926348.9184  -20325494.60248 -15754523.68064
  19256224.0594  -25307107.20047 -19571845.24464
 91  3 22  2  9 29.9960000  0  4G15G13G 2G 6
  22552403.4344   -4866644.48546  -3689650.87861
  19691410.840   -18726086.502 7 -14336032.17622
  19927253.7384  -20320739.15148 -15750818.10664
  19253949.3164  -25319063.46247 -19581161.77664
 91  3 22  2  9 44.9960000  0  4G15G13G 2G 6
  22554494.684    -4855664.394 6  -3681094.94121
  19684535.254   -18762218.997 7 -14364187.28521
  19928166.887   -20315938.747 8 -15747077.50224
  19251696.981   -25330904.300 7 -19590388.36524
 91  3 22  2  9 59.9960000  0  4G15G13G 2G 6
  22556611.5434   -4844550.46546  -3672434.71261
  19677684.285   -18798219.311 7 -14392239.39322
  19929087.8874  -20311096.76748 -15743304.51064
  19249464.7464  -25342632.81347 -19599527.42864
 91  3 22  2 10 14.9960000  0  4G15G13G 2G 6
  22558751.2544   -4833304.65246  -3663671.71361
  19670859.176   -18834089.059 7 -14420189.76022
  19930016.7624  -20306215.26748 -15739500.71764
  19247252.9734  -25354250.86047 -19608580.41464
 91  3 22  2 10 29.9960000  0  4G15G13G 2G 6
  22560916.3164   -4821925.82546  -3654805.06461
  19664058.277   -18869826.608 7 -14448037.12522
  19930953.082   -20301292.514 8 -15735664.78124
  19245063.5984  -25365756.59147 -19617545.88564
 91  3 22  2 10 44.9960000  0  4G15G13G 2G 6
  22563106.7074   -4810403.95246  -3645826.94761
  19657284.543   -18905422.097 7 -14475773.79022
  19931900.2234  -20296318.60848 -15731788.97964
  19242897.4964  -25377139.87447 -19626415.93864
 91  3 22  2 10 59.9960000  0  4G15G13G 2G 6
  22565325.184    -4798746.035 6  -3636742.83921
  19650536.082   -18940882.294 7 -14503405.03222
  19932856.059   -20291300.568 8 -15727878.79624
  19240752.6454  -25388407.39647 -19635195.79064
 91  3 22  2 11 14.9960000  0  4G15G13G 2G 6
  22567572.5664   -4786953.21746  -3627553.60361
  19643813.816   -18976207.826 7 -14530931.34122
  19933817.918   -20286239.018 8 -15723934.70724
  19238631.5274  -25399559.76347 -19643885.91164
 91  3 22  2 11 29.9960000  0  4G15G13G 2G 6
  22569839.191    -4775021.139 6  -3618255.86221
  19637118.316   -19011394.235 7 -14558349.24322
  19934790.9734  -20281129.67648 -15719953.37664
  19236530.8564  -25410592.42547 -19652482.75564
 91  3 22  2 11 44.9960000  0  4G15G13G 2G 6
  22572138.8714   -4762953.98946  -3608852.85161
  19630448.606   -19046445.633 7 -14585661.94122
  19935770.816   -20275976.699 8 -15715938.04524
  19234455.7854  -25421509.37447 -19660989.43564
 91  3 22  2 11 59.9960000  0  4G15G13G 2G 6
  22574457.668    -4750750.744 6  -3599343.80721
  19623803.668   -19081360.599 7 -14612868.32922
  19936761.426   -20270778.763 8 -15711887.68024
  19232399.1294  -25432309.13647 -19669404.80164
 91  3 22  2 12 14.9960000  0  4G15G13G 2G 6
  22576808.106    -4738410.904 6  -3589728.32621
  19617185.848   -19116138.646 7 -14639968.02522
  19937758.5904  -20265535.21748 -15707801.77364
  19230366.3794  -25442990.88247 -19677728.20664
 91  3 22  2 12 29.9960000  0  4G15G13G 2G 6
  22579183.012    -4725927.587 6  -3580001.05221
  19610594.621   -19150772.616 7 -14666955.45622
  19938765.7544  -20260239.26548 -15703675.03064
  19228358.6454  -25453547.54447 -19685954.14264
 91  3 22  2 12 44.9960000  0  4G15G13G 2G 6
  22581581.4344   -4713313.23646  -3570171.66461
  19604029.465   -19185274.400 7 -14693839.88022
  19939781.7234  -20254903.04748 -15699516.91164
  19226369.7774  -25463990.84847 -19694091.74164
 91  3 22  2 12 59.9960000  0  4G15G13G 2G 6
  22584006.160    -4700574.527 6  -3560245.36021
  19597487.488   -19219650.760 7 -14720626.57922
  19940804.184   -20249533.274 8 -15695332.65224
  19224402.7934  -25474327.46047 -19702146.20664
 91  3 22  2 13 14.9960000  0  4G15G13G 2G 6
  22586455.6914   -4687709.19246  -3550220.41561
  19590970.777   -19253898.815 7 -14747313.29622
  19941832.332   -20244127.337 8 -15691120.21025
  19222456.6914  -25484554.53847 -19710115.32063
 91  3 22  2 13 29.9960000  0  4G15G13G 2G 6
  22588931.449    -4674703.981 6  -3540086.45521
  19584480.137   -19288005.009 7 -14773889.47122
  19942870.2704  -20238672.01848 -15686869.28764
  19220532.8244  -25494658.62247 -19717988.59464
 91  3 22  2 13 44.9960000  0  4G15G13G 2G 6
  22591432.4414   -4661559.90946  -3529844.29861
  19578016.277   -19321970.377 7 -14800355.91222
  19943917.301   -20233167.972 8 -15682580.40024
  19218634.5824  -25504640.36347 -19725766.53764
 91  3 22  2 13 59.9960000  0  4G15G13G 2G 6
  22593957.8404   -4648280.83446  -3519496.92961
  19571579.832   -19355798.417 7 -14826715.34622
  19944973.043   -20227618.963 8 -15678256.47724
  19216757.8324  -25514503.28547 -19733451.89564
 91  3 22  2 14 14.9960000  0  4G15G13G 2G 6
  22596510.8794   -4634869.42246  -3509046.45661
  19565167.504   -19389491.766 7 -14852969.82422
  19946036.863   -20222027.425 8 -15673899.41124
  19214902.9344  -25524249.62347 -19741046.40763
 91  3 22  2 14 29.9960000  0  4G15G13G 2G 6
  22599086.762    -4621326.707 6  -3498493.66121
  19558781.145   -19423050.920 7 -14879119.74022
  19947109.371   -20216394.189 8 -15669509.85724
  19213070.6134  -25533879.89947 -19748550.48364
 91  3 22  2 14 44.9960000  0  4G15G13G 2G 6
  22601688.2544   -4607650.63446  -3487836.96261
  19552421.004   -19456473.878 7 -14905163.51722
  19948189.762   -20210717.306 8 -15665086.29124
  19211260.5044  -25543392.00447 -19755962.47563
 91  3 22  2 14 59.9960000  0  4G15G13G 2G 6
  22604317.4814   -4593839.75546  -3477075.20161
  19546086.793   -19489759.148 7 -14931100.01622
  19949277.918   -20204995.139 8 -15660627.44324
  19209473.7704  -25552784.14247 -19763280.98664
 91  3 22  2 15 14.9960000  0  4G15G13G 2G 6
  22606969.918    -4579911.421 6  -3466221.94721
  19539775.215   -19522923.476 7 -14956942.27222
  19950371.973   -20199244.912 8 -15656146.72124
  19207706.2464  -25562073.34347 -19770519.28863
 91  3 22  2 15 29.9960000  0  4G15G13G 2G 6
  22609645.020    -4565845.352 6  -3455261.34321
  19533491.754   -19555946.449 7 -14982674.38322
  19951475.723   -20193446.080 8 -15651628.13124
  19205961.6374  -25571238.99547 -19777661.32163
 91  3 22  2 15 44.9960000  0  4G15G13G 2G 6
  22612347.496    -4551643.709 6  -3444195.10521
  19527234.887   -19588829.847 7 -15008297.73522
  19952588.160   -20187600.623 8 -15647073.20624
  19204240.746   -25580282.709 7 -19784708.33924
 91  3 22  2 15 59.9960000  0  4G15G13G 2G 6
  22615072.059    -4537323.083 6  -3433036.14721
  19521000.535   -19621590.118 7 -15033825.14122
  19953706.082   -20181725.067 8 -15642494.83124
  19202538.9104  -25589220.99947 -19791673.19563
 91  3 22  2 16 14.9960000  0  4G15G13G 2G 6
  22617827.098    -4522862.825 6  -3421768.40521
  19514793.934   -19654206.622 7 -15059240.52722
  19954833.715   -20175798.736 8 -15637876.89024
  19200862.3244  -25598032.86347 -19798539.54863
 91  3 22  2 16 29.9960000  0  4G15G13G 2G 6
  22620599.5664   -4508265.76946  -3410394.03261
  19508613.231   -19686681.681 7 -15084545.69022
  19955971.285   -20169824.112 8 -15633221.31324
  19199209.2384  -25606720.61247 -19805309.18463
 91  3 22  2 16 44.9960000  0  4G15G13G 2G 6
  22623404.5124   -4493541.77646  -3398920.77861
  19502458.488   -19719024.860 7 -15109748.09222
  19957115.723   -20163810.891 8 -15628535.66224
  19197577.9344  -25615293.70547 -19811989.47663
 91  3 22  2 16 59.9960000  0  4G15G13G 2G 6
  22626228.481    -4478692.649 5  -3387350.00821
  19496328.684   -19751237.651 7 -15134848.89522
  19958266.613   -20157760.587 8 -15623821.12024
  19195968.8324  -25623753.59347 -19818581.56163
 91  3 22  2 17 14.9960000  0  4G15G13G 2G 6
  22629080.496    -4463704.809 6  -3375671.15521
  19490226.965   -19783306.287 7 -15159837.36822
  19959427.613   -20151659.472 8 -15619066.98324
  19194381.9734  -25632086.49547 -19825074.69663
 91  3 22  2 17 29.9960000  0  4G15G13G 2G 6
  22631959.0594   -4448581.83346  -3363886.99361
  19484150.457   -19815234.456 7 -15184716.39022
  19960597.5984  -20145511.19848 -15614276.09364
  19192819.6134  -25640295.76747 -19831471.49863
 91  3 22  2 17 44.9960000  0  4G15G13G 2G 6
  22634862.3714   -4433335.35446  -3352006.59361
  19478099.691   -19847033.348 7 -15209494.67022
  19961774.1064  -20139327.09248 -15609457.28264
  19191279.4104  -25648392.63947 -19837780.70763
 91  3 22  2 17 59.9960000  0  4G15G13G 2G 6
  22637785.324    -4417969.674 6  -3340033.31321
  19472072.215   -19878706.733 7 -15234175.15622
  19962957.1844  -20133111.13148 -15604613.65264
  19189759.5594  -25656380.72147 -19844005.14963
 91  3 22  2 18 14.9960000  0  4G15G13G 2G 6
  22640734.418    -4402467.908 5  -3327953.99421
  19466072.871   -19910237.622 7 -15258744.60922
  19964149.2704  -20126846.28648 -15599731.92864
  19188262.5354  -25664242.94747 -19850131.52063
 91  3 22  2 18 29.9960000  0  4G15G13G 2G 6
  22643709.293    -4386837.287 6  -3315774.28021
  19460097.481   -19941633.263 7 -15283208.67122
  19965349.801   -20120539.999 8 -15594817.91224
  19186789.0434  -25671986.35747 -19856165.31663
 91  3 22  2 18 44.9960000  0  4G15G13G 2G 6
  22646707.9964   -4371078.12345  -3303494.37961
  19454148.2854  -19972893.40847 -15307567.15962
  19966556.973   -20114191.952 8 -15589871.36124
  19185338.2544  -25679610.63747 -19862106.27763
 91  3 22  2 18 59.9960000  0  4G15G13G 2G 6
  22649729.0124   -4355190.42245  -3291114.32761
  19448226.356   -20004018.579 7 -15331820.46922
  19967772.8954  -20107802.46648 -15584892.51164
  19183910.3634  -25687116.08247 -19867954.64363
 91  3 22  2 19 14.9960000  0  4G15G13G 2G 6
  22652778.5824   -4339173.45845  -3278633.56761
  19442328.879   -20035007.035 7 -15355967.24322
  19968997.0124  -20101370.14248 -15579880.28064
  19182504.6994  -25694501.05847 -19873709.13763
 91  3 22  2 19 29.9960000  0  4G15G13G 2G 6
  22655852.832    -4323025.635 5  -3266050.82221
  19436458.441   -20065856.903 7 -15380006.02822
  19970230.2384  -20094893.19748 -15574833.27764
  19181122.4264  -25701763.49347 -19879368.14363
 91  3 22  2 19 44.9960000  0  4G15G13G 2G 6
  22658947.4104   -4306753.56145  -3253371.26461
  19430613.6454  -20096574.81647 -15403941.99762
  19971469.3954  -20088378.26448 -15569756.67664
  19179762.6764  -25708909.91947 -19884936.75063
 91  3 22  2 19 59.9960000  0  4G15G13G 2G 6
  22662070.5044   -4290347.18445  -3240587.05261
  19424794.957   -20127150.145 7 -15427766.85922
  19972717.9734  -20081814.83048 -15564642.28364
  19178426.9264  -25715929.49147 -19890406.51063
 91  3 22  2 20 14.9960000  0  4G15G13G 2G 6
  22665214.9104   -4273813.08645  -3227703.31861
  19419002.9104  -20157589.77347 -15451485.98362
  19973974.6134  -20075209.60048 -15559495.31864
  19177114.6374  -25722829.08647 -19895782.78263
 91  3 22  2 20 29.9960000  0  4G15G13G 2G 6
  22668387.543    -4257151.730 5  -3214720.40821
  19413234.8164  -20187893.54447 -15475099.23762
  19975239.7464  -20068562.59548 -15554315.80264
  19175824.5354  -25729608.49347 -19901065.40363
 91  3 22  2 20 44.9960000  0  4G15G13G 2G 6
  22671582.8094   -4240357.14745  -3201633.70761
  19407495.8874  -20218055.38147 -15498601.90562
  19976514.2154  -20061867.91348 -15549099.14064
  19174557.6844  -25736261.44647 -19906249.48963
 91  3 22  2 20 59.9960000  0  4G15G13G 2G 6
  22674804.231    -4223434.604 5  -3188447.30421
  19401782.7234  -20248080.44147 -15521997.98562
  19977795.8164  -20055130.44748 -15543849.13364
  19173315.2314  -25742792.82847 -19911338.84163
 91  3 22  2 21 14.9950000  0  4G15G13G 2G 6
  22678045.687    -4206390.857 5  -3175166.43921
  19396093.8984  -20277971.98747 -15545290.03662
  19979085.2184  -20048356.14848 -15538570.42764
  19172094.0694  -25749207.41647 -19916337.19063
 91  3 22  2 21 29.9950000  0  4G15G13G 2G 6
  22681312.2184   -4189228.67745  -3161793.28361
  19390428.8354  -20307739.00047 -15568485.04162
  19980380.1014  -20041549.11148 -15533266.21164
  19170895.1244  -25755510.95947 -19921249.01463
 91  3 22  2 21 44.9950000  0  4G15G13G 2G 6
  22684602.632    -4171938.481 5  -3148320.37921
  19384790.9914  -20337368.32447 -15591572.76262
  19981684.4834  -20034698.77548 -15527928.25764
  19169718.4294  -25761691.83847 -19926065.24663
 91  3 22  2 21 59.9950000  0  4G15G13G 2G 6
  22687918.8274   -4154513.11245  -3134742.15461
  19379180.257   -20366852.393 7 -15614547.29222
  19982997.2334  -20027797.47648 -15522550.59064
  19168567.8664  -25767742.44347 -19930779.96763
 91  3 22  2 22 14.9950000  0  4G15G13G 2G 6
  22691259.671    -4136959.774 5  -3121064.19621
  19373595.9214  -20396198.64247 -15637414.43162
  19984319.3194  -20020852.77648 -15517139.10164
  19167439.1484  -25773669.83247 -19935398.68663
 91  3 22  2 22 29.9950000  0  4G15G13G 2G 6
  22694622.890    -4119278.748 5  -3107286.74521
  19368036.8584  -20425406.94747 -15660174.08462
  19985649.3984  -20013864.52948 -15511693.68464
  19166335.7804  -25779474.00247 -19939921.38063
 91  3 22  2 22 44.9950000  0  4G15G13G 2G 6
  22698012.374    -4101467.440 5  -3093407.78021
  19362506.7414  -20454474.21047 -15682823.83362
  19986986.7494  -20006829.56748 -15506211.86664
  19165254.4914  -25785151.44347 -19944345.32963
 91  3 22  2 22 59.9950000  0  4G15G13G 2G 6
  22701424.6484   -4083534.05145  -3079433.70961
  19357000.2804  -20483408.55647 -15705370.01462
  19988333.4914  -19999756.47148 -15500700.33164
  19164196.5074  -25790710.49547 -19948677.02863
 91  3 22  2 23 14.9950000  0  4G15G13G 2G 6
  22704861.874    -4065471.961 5  -3065359.33721
  19351520.9764  -20512203.19847 -15727807.33062
  19989687.3354  -19992638.06448 -15495153.48564
  19163162.3744  -25796144.08347 -19952910.96063
 91  3 22  2 23 29.9950000  0  4G15G13G 2G 6
  22708323.640    -4047284.535 5  -3051187.28821
  19346067.2884  -20540861.12847 -15750138.11962
  19991050.5234  -19985477.48448 -15489573.78464
  19162151.7414  -25801455.17647 -19957049.44363
 91  3 22  2 23 44.9950000  0  4G15G13G 2G 6
  22711807.585    -4028973.373 5  -3036918.84621
  19340639.413   -20569383.878 7 -15772363.56922
  19992420.9834  -19978276.17848 -15483962.35164
  19161164.3904  -25806645.09647 -19961093.50363
 91  3 22  2 23 59.9950000  0  4G15G13G 2G 6
  22715316.554    -4010534.915 5  -3022551.18921
  19335239.2494  -20597767.39647 -15794480.52762
  19993799.6014  -19971030.21548 -15478316.11564
  19160200.5384  -25811709.72047 -19965039.93563
 91  3 22  2 24 14.9950000  0  4G15G13G 2G 6
  22718849.0624   -3991968.48745  -3008083.81161
  19329863.4764  -20626011.05647 -15816488.50362
  19995186.8904  -19963738.93548 -15472634.57064
  19159260.4834  -25816648.11847 -19968888.00563
 91  3 22  2 24 29.9950000  0  4G15G13G 2G 6
  22722406.273    -3973279.550 5  -2993520.98121
  19324513.7104  -20654119.84947 -15838391.39562
  19996582.9994  -19956407.35548 -15466921.62264
  19158343.8514  -25821465.32847 -19972641.64563
 91  3 22  2 24 44.9950000  0  4G15G13G 2G 6
  22725980.741    -3954483.251 5  -2978874.50021
  19319188.5854  -20682108.98047 -15860201.04462
  19997982.7734  -19949050.63448 -15461189.08364
  19157447.2024  -25826176.35447 -19976312.54263
 91  3 22  2 24 59.9950000  0  4G15G13G 2G 6
  22729581.398    -3935564.350 5  -2964132.46921
  19313888.3354  -20709962.82147 -15881905.26862
  19999390.6634  -19941653.19048 -15455424.81364
  19156573.7184  -25830765.41847 -19979888.40663
 91  3 22  2 25 14.9950000  0  4G15G13G 2G 6
  22733205.6794   -3916518.10745  -2949291.22361
  19308614.4054  -20737676.36847 -15903500.18062
  20000806.4294  -19934210.12348 -15449624.99464
  19155725.1794  -25835227.44747 -19983365.27863
 91  3 22  2 25 29.9950000  0  4G15G13G 2G 6
  22736854.046    -3897347.352 5  -2934352.96921
  19303367.8584  -20765252.24247 -15924987.80462
  20002230.905   -19926723.946 8 -15443791.58624
  19154899.4524  -25839564.85947 -19986745.04563
 91  3 22  2 25 44.9950000  0  4G15G13G 2G 6
  22740525.6554   -3878053.56145  -2919318.84261
  19298145.6324  -20792691.65747 -15946369.10562
  20003663.5304  -19919196.12048 -15437925.72064
  19154097.1874  -25843778.85147 -19990028.64363
 91  3 22  2 25 59.9950000  0  4G15G13G 2G 6
  22744221.9684   -3858635.28145  -2904187.70661
  19292949.5234  -20819992.84547 -15967642.69362
  20005103.9374  -19911624.79748 -15432025.96164
  19153319.7104  -25847867.64947 -19993214.69163
 91  3 22  2 26 14.9950000  0  4G15G13G 2G 6
  22747939.1944   -3839095.59745  -2888961.98461
  19287780.7334  -20847158.59447 -15988810.74262
  20006552.1244  -19904012.84748 -15426094.54464
  19152565.0934  -25851833.82247 -19996305.18463
 91  3 22  2 26 29.9950000  0  4G15G13G 2G 6
  22751682.9604   -3819428.74945  -2873637.16961
  19282638.2184  -20874183.17047 -16009868.79062
  20008009.616   -19896354.365 8 -15420126.87324
  19151834.7884  -25855671.47247 -19999295.52963
 91  3 22  2 26 44.9950000  0  4G15G13G 2G 6
  22755445.249    -3799637.572 5  -2858215.46921
  19277521.0694  -20901069.06047 -16030818.77362
  20009475.5074  -19888651.98448 -15414124.99164
  19151127.6484  -25859383.08547 -20002187.66363
 91  3 22  2 26 59.9950000  0  4G15G13G 2G 6
  22759235.921    -3779722.095 5  -2842696.89721
  19272430.8434  -20927815.94847 -16051660.44262
  20010950.5464  -19880905.25148 -15408088.54864
  19150445.3044  -25862968.09847 -20004981.15063
 91  3 22  2 27 14.9950000  0  4G15G13G 2G 6
  22763050.6944   -3759682.19445  -2827081.38161
  19267367.2654  -20954423.80847 -16072393.77462
  20012431.460   -19873113.984 8 -15402017.40624
  19149788.2334  -25866426.23447 -20007675.76763
 91  3 22  2 27 29.9950000  0  4G15G13G 2G 6
  22766890.7104   -3739516.51145  -2811367.84661
  19262331.4834  -20980890.75447 -16093017.30262
  20013922.530   -19865276.482 8 -15395910.23924
  19149153.5074  -25869755.59447 -20010270.04263
 91  3 22  2 27 44.9950000  0  4G15G13G 2G 6
  22770748.9764   -3719228.15445  -2795558.73761
  19257320.9054  -21007219.87947 -16113533.44262
  20015422.7734  -19857395.96748 -15389769.54864
  19148544.8044  -25872959.28747 -20012766.39363
 91  3 22  2 27 59.9950000  0  4G15G13G 2G 6
  22774633.8274   -3698814.91845  -2779652.31261
  19252336.7184  -21033408.72247 -16133940.26862
  20016931.874   -19849469.864 8 -15383593.34324
  19147958.9054  -25876034.54947 -20015162.67563
 91  3 22  2 28 14.9950000  0  3G13G 2G 6
  19247379.6164  -21059457.21447 -16154237.73362
  20018448.687   -19841498.229 8 -15377381.65223
  19147398.1794  -25878981.25447 -20017458.77663
 91  3 22  2 28 29.9950000  0  3G13G 2G 6
  19242448.5234  -21085370.52447 -16174429.85662
  20019973.780   -19833486.134 8 -15371138.44324
  19146860.7104  -25881804.48047 -20019658.66463
 91  3 22  2 28 44.9950000  0  3G13G 2G 6
  19237543.8354  -21111147.10147 -16194515.44162
  20021506.069   -19825431.850 8 -15364862.35424
  19146347.4914  -25884502.38447 -20021760.89663
 91  3 22  2 28 59.9950000  0  3G13G 2G 6
  19232664.7574  -21136785.88247 -16214493.64762
  20023046.827   -19817334.574 8 -15358552.76324
  19145857.2414  -25887073.89647 -20023764.64463
 91  3 22  2 29 14.9950000  0  3G13G 2G 6
  19227814.3044  -21162277.57047 -16234357.23862
  20024597.507   -19809184.721 8 -15352202.20723
  19145394.3354  -25889509.28647 -20025662.32363
 91  3 22  2 29 29.9950000  0  3G13G 2G 6
  19222988.8274  -21187632.58647 -16254114.32862
  20026155.593   -19800992.792 8 -15345818.85923
  19144954.7414  -25891819.28247 -20027462.28763
 91  3 22  2 29 44.9950000  0  3G13G 2G 6
  19218189.3744  -21212850.36747 -16273764.48862
  20027723.046   -19792758.181 8 -15339402.25623
  19144540.4834  -25894002.83047 -20029163.72963
 91  3 22  2 29 59.9950000  0  3G13G 2G 6
  19213416.9994  -21237931.96447 -16293308.52862
  20029298.7264  -19784482.11348 -15332953.34863
  19144146.7804  -25896061.17847 -20030767.60663
 91  3 22  2 30 14.9950000  0  3G13G 2G 6
  19208670.6944  -21262874.38447 -16312744.11762
  20030880.999   -19776161.333 8 -15326469.60223
  19143779.5774  -25897991.07447 -20032271.39363
 91  3 22  2 30 29.9950000  0  3G13G 2G 6
  19203950.1944  -21287679.67647 -16332072.85062
  20032472.179   -19767797.910 8 -15319952.62623
  19143437.6324  -25899794.41147 -20033676.55863
 91  3 22  2 30 44.9950000  0  3G13G 2G 6
  19199256.8124  -21312347.70447 -16351294.62762
  20034072.5934  -19759391.77248 -15313402.36063
  19143117.4374  -25901470.96747 -20034982.93663
 91  3 22  2 30 59.9950000  0  3G13G 2G 6
  19194587.5074  -21336878.75847 -16370409.67262
  20035679.624   -19750943.130 8 -15306818.97723
  19142825.1244  -25903020.78647 -20036190.56163
 91  3 22  2 31 14.9950000  0  3G13G 2G 6
  19189947.6944  -21361268.14947 -16389414.33462
  20037297.7414  -19742447.32848 -15300198.84463
  19142552.3354  -25904439.01647 -20037295.64863
 91  3 22  2 31 29.9950000  0  3G13G 2G 6
  19185332.1244  -21385520.69147 -16408312.35662
  20038921.413   -19733909.004 8 -15293545.58523
  19142308.8514  -25905730.41647 -20038301.90963
 91  3 22  2 31 44.9950000  0  3G13G 2G 6
  19180742.8584  -21409637.20547 -16427104.38562
  20040554.1324  -19725329.03748 -15286859.86563
  19142087.171   -25906895.698 7 -20039209.89423
 91  3 22  2 31 59.9950000  0  3G13G 2G 6
  19176179.3824  -21433616.25747 -16445789.30062
  20042196.1164  -19716705.96048 -15280140.55663
  19141887.929   -25907933.212 7 -20040018.32323
 91  3 22  2 32 14.9950000  0  3G13G 2G 6
  19171640.8904  -21457466.91147 -16464374.16262
  20043842.976   -19708048.739 8 -15273394.64723
  19141712.0304  -25908851.91047 -20040734.16763
